Wetterdaten: Dienstag, 25.06.2019
Datum Zeit Temp. A. Pool Temp. Temp. 5cm Feuchte A. Luftdruck Regen Wind Richtung Richtung Sonnenschein ET UV Solar Taupunkt Windchill Windben Empfang
25.06.2019 00:00 19,7 C 25,0 C 18,3 C 75 % 1019,8 hPa 0,0 l/m 7,3 km/h (2 Bft) O-NO 73 0 min 0,000 mm 0,0 UV-I 0 W/m 15,1 C 19,3 C 11,3 km/h (2 Bft) 94,00 %
25.06.2019 00:02 19,7 C 25,0 C 18,3 C 75 % 1019,8 hPa 0,0 l/m 5,9 km/h (2 Bft) O-NO 75 0 min 0,000 mm 0,0 UV-I 0 W/m 15,1 C 19,7 C 8,0 km/h (2 Bft) 5,56 %
25.06.2019 00:04 19,5 C 25,0 C 17,8 C 76 % 1019,8 hPa 0,0 l/m 4,6 km/h (1 Bft) O-NO 68 0 min 0,000 mm 0,0 UV-I 0 W/m 15,2 C 19,5 C 6,4 km/h (2 Bft) 82,76 %
25.06.2019 00:06 19,4 C 25,0 C 17,8 C 77 % 1019,7 hPa 0,0 l/m 5,8 km/h (2 Bft) O-NO 73 0 min 0,000 mm 0,0 UV-I 0 W/m 15,3 C 19,4 C 8,0 km/h (2 Bft) 95,83 %
25.06.2019 00:08 19,4 C 25,0 C 17,8 C 77 % 1019,8 hPa 0,0 l/m 5,7 km/h (1 Bft) O 82 0 min 0,000 mm 0,0 UV-I 0 W/m 15,3 C 19,4 C 9,7 km/h (2 Bft) 97,56 %
25.06.2019 00:10 19,3 C 25,0 C 17,8 C 77 % 1019,7 hPa 0,0 l/m 6,2 km/h (2 Bft) O 88 0 min 0,000 mm 0,0 UV-I 0 W/m 15,2 C 19,3 C 9,7 km/h (2 Bft) 96,00 %
25.06.2019 00:12 19,3 C 25,0 C 17,8 C 78 % 1019,8 hPa 0,0 l/m 6,6 km/h (2 Bft) O 82 0 min 0,000 mm 0,0 UV-I 0 W/m 15,4 C 19,2 C 11,3 km/h (2 Bft) 94,00 %
25.06.2019 00:14 19,3 C 25,0 C 17,8 C 78 % 1019,7 hPa 0,0 l/m 5,5 km/h (1 Bft) O 85 0 min 0,000 mm 0,0 UV-I 0 W/m 15,4 C 19,3 C 8,0 km/h (2 Bft) 95,74 %
25.06.2019 00:16 19,2 C 25,0 C 17,8 C 78 % 1019,7 hPa 0,0 l/m 5,5 km/h (1 Bft) O-NO 70 0 min 0,000 mm 0,0 UV-I 0 W/m 15,3 C 19,2 C 8,0 km/h (2 Bft) 97,87 %
25.06.2019 00:18 19,1 C 25,0 C 17,8 C 78 % 1019,7 hPa 0,0 l/m 6,6 km/h (2 Bft) O-NO 77 0 min 0,000 mm 0,0 UV-I 0 W/m 15,2 C 19,0 C 11,3 km/h (2 Bft) 98,00 %
25.06.2019 00:20 19,1 C 25,0 C 17,8 C 79 % 1019,7 hPa 0,0 l/m 7,3 km/h (2 Bft) O 81 0 min 0,000 mm 0,0 UV-I 0 W/m 15,4 C 18,7 C 11,3 km/h (2 Bft) 100,00 %
25.06.2019 00:22 19,0 C 25,0 C 17,8 C 79 % 1019,7 hPa 0,0 l/m 6,5 km/h (2 Bft) O 88 0 min 0,000 mm 0,0 UV-I 0 W/m 15,3 C 19,0 C 9,7 km/h (2 Bft) 87,80 %
25.06.2019 00:24 18,9 C 25,0 C 17,8 C 80 % 1019,6 hPa 0,0 l/m 6,7 km/h (2 Bft) O 85 0 min 0,000 mm 0,0 UV-I 0 W/m 15,4 C 18,8 C 12,9 km/h (3 Bft) 98,00 %
25.06.2019 00:26 18,9 C 25,0 C 17,8 C 80 % 1019,6 hPa 0,0 l/m 6,4 km/h (2 Bft) O-NO 67 0 min 0,000 mm 0,0 UV-I 0 W/m 15,4 C 18,9 C 11,3 km/h (2 Bft) 97,87 %
25.06.2019 00:28 18,8 C 25,0 C 17,8 C 80 % 1019,6 hPa 0,0 l/m 5,4 km/h (1 Bft) NO 54 0 min 0,000 mm 0,0 UV-I 0 W/m 15,3 C 18,8 C 8,0 km/h (2 Bft) 96,00 %
25.06.2019 00:30 18,8 C 25,0 C 17,8 C 80 % 1019,6 hPa 0,0 l/m 4,5 km/h (1 Bft) O-NO 64 0 min 0,000 mm 0,0 UV-I 0 W/m 15,3 C 18,8 C 6,4 km/h (2 Bft) 96,00 %
25.06.2019 00:32 18,8 C 25,0 C 17,8 C 80 % 1019,5 hPa 0,0 l/m 5,4 km/h (1 Bft) O-NO 69 0 min 0,000 mm 0,0 UV-I 0 W/m 15,3 C 18,8 C 8,0 km/h (2 Bft) 96,00 %
25.06.2019 00:34 18,8 C 25,0 C 17,8 C 80 % 1019,5 hPa 0,0 l/m 6,6 km/h (2 Bft) O 86 0 min 0,000 mm 0,0 UV-I 0 W/m 15,3 C 18,7 C 11,3 km/h (2 Bft) 97,56 %
25.06.2019 00:36 18,8 C 25,0 C 17,8 C 80 % 1019,6 hPa 0,0 l/m 6,5 km/h (2 Bft) O-NO 77 0 min 0,000 mm 0,0 UV-I 0 W/m 15,3 C 18,8 C 9,7 km/h (2 Bft) 98,11 %
25.06.2019 00:38 18,9 C 25,0 C 17,8 C 80 % 1019,5 hPa 0,0 l/m 6,7 km/h (2 Bft) O 80 0 min 0,000 mm 0,0 UV-I 0 W/m 15,4 C 18,8 C 11,3 km/h (2 Bft) 97,37 %
25.06.2019 00:40 18,9 C 25,0 C 17,8 C 80 % 1019,5 hPa 0,0 l/m 7,9 km/h (2 Bft) O-NO 69 0 min 0,000 mm 0,0 UV-I 0 W/m 15,4 C 18,2 C 12,9 km/h (3 Bft) 98,11 %
25.06.2019 00:42 18,9 C 25,0 C 17,8 C 80 % 1019,5 hPa 0,0 l/m 7,5 km/h (2 Bft) O-NO 67 0 min 0,000 mm 0,0 UV-I 0 W/m 15,4 C 18,4 C 11,3 km/h (2 Bft) 98,00 %
25.06.2019 00:44 18,9 C 25,0 C 17,8 C 80 % 1019,5 hPa 0,0 l/m 6,8 km/h (2 Bft) O-SO 108 0 min 0,000 mm 0,0 UV-I 0 W/m 15,4 C 18,7 C 9,7 km/h (2 Bft) 97,22 %
25.06.2019 00:46 18,9 C 25,0 C 17,8 C 80 % 1019,5 hPa 0,0 l/m 7,5 km/h (2 Bft) O-SO 109 0 min 0,000 mm 0,0 UV-I 0 W/m 15,4 C 18,4 C 12,9 km/h (3 Bft) 98,21 %
25.06.2019 00:48 18,9 C 25,0 C 17,8 C 80 % 1019,5 hPa 0,0 l/m 8,4 km/h (2 Bft) O 80 0 min 0,000 mm 0,0 UV-I 0 W/m 15,4 C 18,0 C 12,9 km/h (3 Bft) 94,74 %
25.06.2019 00:50 18,9 C 25,0 C 17,8 C 80 % 1019,5 hPa 0,0 l/m 9,0 km/h (2 Bft) O-NO 72 0 min 0,000 mm 0,0 UV-I 0 W/m 15,4 C 17,8 C 12,9 km/h (3 Bft) 96,23 %
25.06.2019 00:52 18,9 C 25,0 C 17,8 C 80 % 1019,5 hPa 0,0 l/m 8,0 km/h (2 Bft) O 79 0 min 0,000 mm 0,0 UV-I 0 W/m 15,4 C 18,2 C 12,9 km/h (3 Bft) 94,74 %
25.06.2019 00:54 18,9 C 25,0 C 17,8 C 80 % 1019,5 hPa 0,0 l/m 8,6 km/h (2 Bft) O 83 0 min 0,000 mm 0,0 UV-I 0 W/m 15,4 C 18,0 C 11,3 km/h (2 Bft) 98,11 %
25.06.2019 00:56 18,9 C 25,0 C 17,8 C 80 % 1019,5 hPa 0,0 l/m 8,2 km/h (2 Bft) O 84 0 min 0,000 mm 0,0 UV-I 0 W/m 15,4 C 18,1 C 11,3 km/h (2 Bft) 96,00 %
25.06.2019 00:58 18,9 C 25,0 C 17,8 C 80 % 1019,5 hPa 0,0 l/m 6,8 km/h (2 Bft) NO 49 0 min 0,000 mm 0,0 UV-I 0 W/m 15,4 C 18,7 C 12,9 km/h (3 Bft) 98,00 %
25.06.2019 01:00 18,9 C 25,0 C 17,8 C 80 % 1019,5 hPa 0,0 l/m 6,8 km/h (2 Bft) O-NO 65 0 min 0,025 mm 0,0 UV-I 0 W/m 15,4 C 18,7 C 11,3 km/h (2 Bft) 100,00 %
25.06.2019 01:02 18,8 C 25,0 C 17,8 C 80 % 1019,4 hPa 0,0 l/m 7,0 km/h (2 Bft) O 81 0 min 0,000 mm 0,0 UV-I 0 W/m 15,3 C 18,5 C 11,3 km/h (2 Bft) 100,00 %
25.06.2019 01:04 18,9 C 25,0 C 17,8 C 80 % 1019,5 hPa 0,0 l/m 6,4 km/h (2 Bft) O 89 0 min 0,000 mm 0,0 UV-I 0 W/m 15,4 C 18,9 C 12,9 km/h (3 Bft) 98,21 %
25.06.2019 01:06 18,8 C 25,0 C 17,8 C 81 % 1019,4 hPa 0,0 l/m 7,1 km/h (2 Bft) O-NO 76 0 min 0,000 mm 0,0 UV-I 0 W/m 15,5 C 18,5 C 11,3 km/h (2 Bft) 100,00 %
25.06.2019 01:08 18,8 C 25,0 C 17,8 C 81 % 1019,5 hPa 0,0 l/m 7,6 km/h (2 Bft) O-NO 78 0 min 0,000 mm 0,0 UV-I 0 W/m 15,5 C 18,3 C 14,5 km/h (3 Bft) 100,00 %
25.06.2019 01:10 18,8 C 25,0 C 17,8 C 81 % 1019,5 hPa 0,0 l/m 8,1 km/h (2 Bft) O-NO 77 0 min 0,000 mm 0,0 UV-I 0 W/m 15,5 C 18,0 C 12,9 km/h (3 Bft) 100,00 %
25.06.2019 01:12 18,8 C 25,0 C 17,8 C 81 % 1019,5 hPa 0,0 l/m 8,1 km/h (2 Bft) O-NO 67 0 min 0,000 mm 0,0 UV-I 0 W/m 15,5 C 18,0 C 12,9 km/h (3 Bft) 98,11 %
25.06.2019 01:14 18,8 C 25,0 C 17,8 C 81 % 1019,5 hPa 0,0 l/m 6,5 km/h (2 Bft) O-NO 76 0 min 0,000 mm 0,0 UV-I 0 W/m 15,5 C 18,8 C 9,7 km/h (2 Bft) 97,56 %
25.06.2019 01:16 18,8 C 25,0 C 17,8 C 81 % 1019,4 hPa 0,0 l/m 7,4 km/h (2 Bft) O 82 0 min 0,000 mm 0,0 UV-I 0 W/m 15,5 C 18,4 C 11,3 km/h (2 Bft) 98,11 %
25.06.2019 01:18 18,7 C 25,0 C 17,8 C 81 % 1019,4 hPa 0,0 l/m 5,7 km/h (1 Bft) O 95 0 min 0,000 mm 0,0 UV-I 0 W/m 15,4 C 18,7 C 8,0 km/h (2 Bft) 95,74 %
25.06.2019 01:20 18,7 C 25,0 C 17,8 C 81 % 1019,4 hPa 0,0 l/m 5,6 km/h (1 Bft) O-NO 69 0 min 0,000 mm 0,0 UV-I 0 W/m 15,4 C 18,7 C 8,0 km/h (2 Bft) 97,44 %
25.06.2019 01:22 18,7 C 25,0 C 17,8 C 82 % 1019,4 hPa 0,0 l/m 6,8 km/h (2 Bft) O-NO 67 0 min 0,000 mm 0,0 UV-I 0 W/m 15,6 C 18,5 C 9,7 km/h (2 Bft) 96,00 %
25.06.2019 01:24 18,7 C 25,0 C 17,8 C 81 % 1019,4 hPa 0,0 l/m 5,4 km/h (1 Bft) O-NO 72 0 min 0,000 mm 0,0 UV-I 0 W/m 15,4 C 18,7 C 8,0 km/h (2 Bft) 98,11 %
25.06.2019 01:26 18,6 C 25,0 C 17,2 C 82 % 1019,4 hPa 0,0 l/m 5,6 km/h (1 Bft) O-NO 62 0 min 0,000 mm 0,0 UV-I 0 W/m 15,5 C 18,6 C 11,3 km/h (2 Bft) 97,37 %
25.06.2019 01:28 18,6 C 25,0 C 17,8 C 82 % 1019,4 hPa 0,0 l/m 5,9 km/h (2 Bft) O 90 0 min 0,000 mm 0,0 UV-I 0 W/m 15,5 C 18,6 C 9,7 km/h (2 Bft) 98,11 %
25.06.2019 01:30 18,6 C 25,0 C 17,8 C 82 % 1019,4 hPa 0,0 l/m 5,2 km/h (1 Bft) NO 50 0 min 0,000 mm 0,0 UV-I 0 W/m 15,5 C 18,6 C 8,0 km/h (2 Bft) 96,00 %
25.06.2019 01:32 18,6 C 25,0 C 17,2 C 82 % 1019,4 hPa 0,0 l/m 6,0 km/h (2 Bft) NO 39 0 min 0,000 mm 0,0 UV-I 0 W/m 15,5 C 18,6 C 9,7 km/h (2 Bft) 97,87 %
25.06.2019 01:34 18,6 C 25,0 C 17,2 C 82 % 1019,4 hPa 0,0 l/m 5,4 km/h (1 Bft) O 84 0 min 0,000 mm 0,0 UV-I 0 W/m 15,5 C 18,6 C 11,3 km/h (2 Bft) 97,37 %
25.06.2019 01:36 18,5 C 25,0 C 17,2 C 82 % 1019,4 hPa 0,0 l/m 6,5 km/h (2 Bft) O 81 0 min 0,000 mm 0,0 UV-I 0 W/m 15,4 C 18,5 C 8,0 km/h (2 Bft) 98,00 %
25.06.2019 01:38 18,5 C 25,0 C 17,2 C 82 % 1019,3 hPa 0,0 l/m 5,3 km/h (1 Bft) O-NO 61 0 min 0,000 mm 0,0 UV-I 0 W/m 15,4 C 18,5 C 8,0 km/h (2 Bft) 97,87 %
25.06.2019 01:40 18,5 C 25,0 C 17,2 C 82 % 1019,3 hPa 0,0 l/m 6,3 km/h (2 Bft) O-NO 74 0 min 0,000 mm 0,0 UV-I 0 W/m 15,4 C 18,5 C 12,9 km/h (3 Bft) 97,73 %
25.06.2019 01:42 18,5 C 25,0 C 17,2 C 82 % 1019,4 hPa 0,0 l/m 6,0 km/h (2 Bft) O-NO 72 0 min 0,000 mm 0,0 UV-I 0 W/m 15,4 C 18,5 C 9,7 km/h (2 Bft) 98,00 %
25.06.2019 01:44 18,5 C 25,0 C 17,2 C 82 % 1019,3 hPa 0,0 l/m 6,7 km/h (2 Bft) O-NO 58 0 min 0,000 mm 0,0 UV-I 0 W/m 15,4 C 18,4 C 9,7 km/h (2 Bft) 97,56 %
25.06.2019 01:46 18,4 C 25,0 C 17,2 C 82 % 1019,4 hPa 0,0 l/m 7,7 km/h (2 Bft) O-NO 74 0 min 0,000 mm 0,0 UV-I 0 W/m 15,3 C 17,8 C 11,3 km/h (2 Bft) 100,00 %
25.06.2019 01:48 18,4 C 25,0 C 17,2 C 82 % 1019,4 hPa 0,0 l/m 6,7 km/h (2 Bft) O-NO 76 0 min 0,000 mm 0,0 UV-I 0 W/m 15,3 C 18,3 C 11,3 km/h (2 Bft) 100,00 %
25.06.2019 01:50 18,4 C 25,0 C 17,2 C 82 % 1019,3 hPa 0,0 l/m 6,3 km/h (2 Bft) O 85 0 min 0,000 mm 0,0 UV-I 0 W/m 15,3 C 18,4 C 11,3 km/h (2 Bft) 100,00 %
25.06.2019 01:52 18,4 C 25,0 C 17,2 C 82 % 1019,4 hPa 0,0 l/m 6,9 km/h (2 Bft) O 90 0 min 0,000 mm 0,0 UV-I 0 W/m 15,3 C 18,2 C 11,3 km/h (2 Bft) 100,00 %
25.06.2019 01:54 18,4 C 25,0 C 17,2 C 82 % 1019,3 hPa 0,0 l/m 6,3 km/h (2 Bft) O-NO 69 0 min 0,000 mm 0,0 UV-I 0 W/m 15,3 C 18,4 C 11,3 km/h (2 Bft) 100,00 %
25.06.2019 01:56 18,3 C 25,0 C 17,2 C 83 % 1019,3 hPa 0,0 l/m 4,4 km/h (1 Bft) O-NO 74 0 min 0,000 mm 0,0 UV-I 0 W/m 15,4 C 18,3 C 6,4 km/h (2 Bft) 100,00 %
25.06.2019 01:58 18,3 C 25,0 C 17,2 C 83 % 1019,3 hPa 0,0 l/m 5,1 km/h (1 Bft) O-NO 70 0 min 0,000 mm 0,0 UV-I 0 W/m 15,4 C 18,3 C 8,0 km/h (2 Bft) 100,00 %
25.06.2019 02:00 18,2 C 25,0 C 17,2 C 83 % 1019,4 hPa 0,0 l/m 4,9 km/h (1 Bft) O-NO 76 0 min 0,026 mm 0,0 UV-I 0 W/m 15,3 C 18,2 C 11,3 km/h (2 Bft) 100,00 %
25.06.2019 02:02 18,1 C 25,0 C 17,2 C 84 % 1019,3 hPa 0,0 l/m 5,8 km/h (2 Bft) O-NO 74 0 min 0,000 mm 0,0 UV-I 0 W/m 15,4 C 18,1 C 8,0 km/h (2 Bft) 100,00 %
25.06.2019 02:04 18,0 C 25,0 C 16,7 C 84 % 1019,3 hPa 0,0 l/m 5,5 km/h (1 Bft) O-NO 60 0 min 0,000 mm 0,0 UV-I 0 W/m 15,3 C 18,0 C 8,0 km/h (2 Bft) 100,00 %
25.06.2019 02:06 17,9 C 25,0 C 16,7 C 84 % 1019,3 hPa 0,0 l/m 5,7 km/h (1 Bft) O-NO 69 0 min 0,000 mm 0,0 UV-I 0 W/m 15,2 C 17,9 C 8,0 km/h (2 Bft) 100,00 %
25.06.2019 02:08 17,9 C 25,0 C 16,7 C 84 % 1019,3 hPa 0,0 l/m 5,9 km/h (2 Bft) O 84 0 min 0,000 mm 0,0 UV-I 0 W/m 15,2 C 17,9 C 11,3 km/h (2 Bft) 100,00 %
25.06.2019 02:10 17,9 C 25,0 C 16,7 C 84 % 1019,3 hPa 0,0 l/m 4,5 km/h (1 Bft) O-NO 67 0 min 0,000 mm 0,0 UV-I 0 W/m 15,2 C 17,9 C 6,4 km/h (2 Bft) 100,00 %
25.06.2019 02:12 17,9 C 25,0 C 16,7 C 84 % 1019,3 hPa 0,0 l/m 5,9 km/h (2 Bft) O 88 0 min 0,000 mm 0,0 UV-I 0 W/m 15,2 C 17,9 C 8,0 km/h (2 Bft) 100,00 %
25.06.2019 02:14 17,9 C 25,0 C 16,7 C 84 % 1019,3 hPa 0,0 l/m 5,9 km/h (2 Bft) O 79 0 min 0,000 mm 0,0 UV-I 0 W/m 15,2 C 17,9 C 12,9 km/h (3 Bft) 100,00 %
25.06.2019 02:16 17,9 C 25,0 C 16,7 C 84 % 1019,3 hPa 0,0 l/m 6,3 km/h (2 Bft) O 80 0 min 0,000 mm 0,0 UV-I 0 W/m 15,2 C 17,9 C 9,7 km/h (2 Bft) 100,00 %
25.06.2019 02:18 18,0 C 25,0 C 16,7 C 84 % 1019,3 hPa 0,0 l/m 7,3 km/h (2 Bft) O-NO 75 0 min 0,000 mm 0,0 UV-I 0 W/m 15,3 C 17,6 C 11,3 km/h (2 Bft) 100,00 %
25.06.2019 02:20 18,0 C 25,0 C 17,2 C 84 % 1019,3 hPa 0,0 l/m 6,8 km/h (2 Bft) NO 53 0 min 0,000 mm 0,0 UV-I 0 W/m 15,3 C 17,8 C 11,3 km/h (2 Bft) 100,00 %
25.06.2019 02:22 17,9 C 25,0 C 16,7 C 84 % 1019,2 hPa 0,0 l/m 5,9 km/h (2 Bft) O-NO 77 0 min 0,000 mm 0,0 UV-I 0 W/m 15,2 C 17,9 C 9,7 km/h (2 Bft) 98,00 %
25.06.2019 02:24 17,9 C 25,0 C 16,7 C 84 % 1019,2 hPa 0,0 l/m 4,3 km/h (1 Bft) N-NO 31 0 min 0,000 mm 0,0 UV-I 0 W/m 15,2 C 17,9 C 6,4 km/h (2 Bft) 97,87 %
25.06.2019 02:26 17,9 C 25,0 C 16,7 C 85 % 1019,2 hPa 0,0 l/m 4,4 km/h (1 Bft) O 80 0 min 0,000 mm 0,0 UV-I 0 W/m 15,3 C 17,9 C 6,4 km/h (2 Bft) 97,37 %
25.06.2019 02:28 17,8 C 25,0 C 16,7 C 85 % 1019,2 hPa 0,0 l/m 5,0 km/h (1 Bft) O 90 0 min 0,000 mm 0,0 UV-I 0 W/m 15,2 C 17,8 C 8,0 km/h (2 Bft) 97,56 %
25.06.2019 02:30 17,8 C 25,0 C 16,7 C 85 % 1019,2 hPa 0,0 l/m 4,3 km/h (1 Bft) O-NO 71 0 min 0,000 mm 0,0 UV-I 0 W/m 15,2 C 17,8 C 6,4 km/h (2 Bft) 98,31 %
25.06.2019 02:32 17,8 C 25,0 C 16,7 C 85 % 1019,2 hPa 0,0 l/m 5,3 km/h (1 Bft) O 89 0 min 0,000 mm 0,0 UV-I 0 W/m 15,2 C 17,8 C 11,3 km/h (2 Bft) 97,22 %
25.06.2019 02:34 17,9 C 25,0 C 16,7 C 85 % 1019,2 hPa 0,0 l/m 5,4 km/h (1 Bft) O 84 0 min 0,000 mm 0,0 UV-I 0 W/m 15,3 C 17,9 C 8,0 km/h (2 Bft) 98,00 %
25.06.2019 02:36 17,9 C 25,0 C 16,7 C 84 % 1019,1 hPa 0,0 l/m 7,2 km/h (2 Bft) O 93 0 min 0,000 mm 0,0 UV-I 0 W/m 15,2 C 17,5 C 12,9 km/h (3 Bft) 96,00 %
25.06.2019 02:38 17,9 C 25,0 C 16,7 C 84 % 1019,2 hPa 0,0 l/m 5,6 km/h (1 Bft) O 99 0 min 0,000 mm 0,0 UV-I 0 W/m 15,2 C 17,9 C 9,7 km/h (2 Bft) 98,00 %
25.06.2019 02:40 17,9 C 25,0 C 16,7 C 84 % 1019,1 hPa 0,0 l/m 5,9 km/h (2 Bft) O-NO 66 0 min 0,000 mm 0,0 UV-I 0 W/m 15,2 C 17,9 C 11,3 km/h (2 Bft) 100,00 %
25.06.2019 02:42 17,9 C 25,0 C 16,7 C 84 % 1019,1 hPa 0,0 l/m 7,3 km/h (2 Bft) O 81 0 min 0,000 mm 0,0 UV-I 0 W/m 15,2 C 17,5 C 12,9 km/h (3 Bft) 95,77 %
25.06.2019 02:44 18,0 C 25,0 C 16,7 C 84 % 1019,0 hPa 0,0 l/m 7,9 km/h (2 Bft) O 97 0 min 0,000 mm 0,0 UV-I 0 W/m 15,3 C 17,3 C 11,3 km/h (2 Bft) 95,12 %
25.06.2019 02:46 17,9 C 25,0 C 16,7 C 84 % 1019,0 hPa 0,0 l/m 6,6 km/h (2 Bft) O-NO 72 0 min 0,000 mm 0,0 UV-I 0 W/m 15,2 C 17,8 C 12,9 km/h (3 Bft) 96,23 %
25.06.2019 02:48 17,9 C 25,0 C 16,7 C 84 % 1019,0 hPa 0,0 l/m 6,0 km/h (2 Bft) O 80 0 min 0,000 mm 0,0 UV-I 0 W/m 15,2 C 17,9 C 8,0 km/h (2 Bft) 93,62 %
25.06.2019 02:50 17,9 C 25,0 C 16,7 C 84 % 1019,0 hPa 0,0 l/m 5,9 km/h (2 Bft) O 80 0 min 0,000 mm 0,0 UV-I 0 W/m 15,2 C 17,9 C 8,0 km/h (2 Bft) 97,14 %
25.06.2019 02:52 17,9 C 25,0 C 16,7 C 84 % 1019,0 hPa 0,0 l/m 5,3 km/h (1 Bft) O 84 0 min 0,000 mm 0,0 UV-I 0 W/m 15,2 C 17,9 C 8,0 km/h (2 Bft) 94,64 %
25.06.2019 02:54 17,9 C 25,0 C 16,7 C 84 % 1019,0 hPa 0,0 l/m 5,6 km/h (1 Bft) O 81 0 min 0,000 mm 0,0 UV-I 0 W/m 15,2 C 17,9 C 8,0 km/h (2 Bft) 94,74 %
25.06.2019 02:56 17,9 C 25,0 C 16,7 C 84 % 1019,0 hPa 0,0 l/m 5,9 km/h (2 Bft) O 82 0 min 0,000 mm 0,0 UV-I 0 W/m 15,2 C 17,9 C 8,0 km/h (2 Bft) 95,74 %
25.06.2019 02:58 17,8 C 25,0 C 16,7 C 84 % 1018,9 hPa 0,0 l/m 5,9 km/h (2 Bft) O 87 0 min 0,000 mm 0,0 UV-I 0 W/m 15,1 C 17,8 C 9,7 km/h (2 Bft) 98,11 %
25.06.2019 03:00 17,8 C 25,0 C 16,7 C 85 % 1019,0 hPa 0,0 l/m 5,6 km/h (1 Bft) O-NO 78 0 min 0,025 mm 0,0 UV-I 0 W/m 15,2 C 17,8 C 8,0 km/h (2 Bft) 92,11 %
25.06.2019 03:02 17,8 C 25,0 C 16,7 C 85 % 1019,0 hPa 0,0 l/m 6,3 km/h (2 Bft) O 80 0 min 0,000 mm 0,0 UV-I 0 W/m 15,2 C 17,8 C 11,3 km/h (2 Bft) 96,00 %
25.06.2019 03:04 17,8 C 25,0 C 16,7 C 85 % 1019,0 hPa 0,0 l/m 5,6 km/h (1 Bft) O 83 0 min 0,000 mm 0,0 UV-I 0 W/m 15,2 C 17,8 C 11,3 km/h (2 Bft) 95,74 %
25.06.2019 03:06 17,8 C 25,0 C 16,7 C 84 % 1018,9 hPa 0,0 l/m 6,3 km/h (2 Bft) O-NO 78 0 min 0,000 mm 0,0 UV-I 0 W/m 15,1 C 17,8 C 11,3 km/h (2 Bft) 94,34 %
25.06.2019 03:08 17,8 C 25,0 C 16,7 C 85 % 1018,9 hPa 0,0 l/m 5,4 km/h (1 Bft) O 87 0 min 0,000 mm 0,0 UV-I 0 W/m 15,2 C 17,8 C 9,7 km/h (2 Bft) 97,87 %
25.06.2019 03:10 17,7 C 25,0 C 16,7 C 85 % 1018,9 hPa 0,0 l/m 5,5 km/h (1 Bft) O 82 0 min 0,000 mm 0,0 UV-I 0 W/m 15,1 C 17,7 C 11,3 km/h (2 Bft) 97,87 %
25.06.2019 03:12 17,6 C 25,0 C 16,7 C 85 % 1018,9 hPa 0,0 l/m 4,9 km/h (1 Bft) O-NO 75 0 min 0,000 mm 0,0 UV-I 0 W/m 15,0 C 17,6 C 8,0 km/h (2 Bft) 98,00 %
25.06.2019 03:14 17,4 C 24,4 C 16,7 C 86 % 1018,9 hPa 0,0 l/m 4,6 km/h (1 Bft) O-NO 59 0 min 0,000 mm 0,0 UV-I 0 W/m 15,0 C 17,4 C 8,0 km/h (2 Bft) 97,62 %
25.06.2019 03:16 17,3 C 24,4 C 16,7 C 86 % 1018,9 hPa 0,0 l/m 5,4 km/h (1 Bft) O 98 0 min 0,000 mm 0,0 UV-I 0 W/m 14,9 C 17,3 C 9,7 km/h (2 Bft) 97,87 %
25.06.2019 03:18 17,4 C 24,4 C 16,7 C 86 % 1018,9 hPa 0,0 l/m 6,1 km/h (2 Bft) O 87 0 min 0,000 mm 0,0 UV-I 0 W/m 15,0 C 17,4 C 9,7 km/h (2 Bft) 97,14 %
25.06.2019 03:20 17,5 C 24,4 C 16,7 C 86 % 1018,9 hPa 0,0 l/m 8,1 km/h (2 Bft) O 84 0 min 0,000 mm 0,0 UV-I 0 W/m 15,1 C 16,7 C 12,9 km/h (3 Bft) 96,43 %
25.06.2019 03:22 17,6 C 24,4 C 16,7 C 86 % 1018,9 hPa 0,0 l/m 6,5 km/h (2 Bft) O 88 0 min 0,000 mm 0,0 UV-I 0 W/m 15,2 C 17,6 C 12,9 km/h (3 Bft) 98,00 %
25.06.2019 03:24 17,7 C 24,4 C 16,7 C 85 % 1018,9 hPa 0,0 l/m 6,9 km/h (2 Bft) O-NO 78 0 min 0,000 mm 0,0 UV-I 0 W/m 15,1 C 17,5 C 11,3 km/h (2 Bft) 97,56 %
25.06.2019 03:26 17,8 C 24,4 C 16,7 C 85 % 1018,9 hPa 0,0 l/m 6,4 km/h (2 Bft) O 86 0 min 0,000 mm 0,0 UV-I 0 W/m 15,2 C 17,8 C 11,3 km/h (2 Bft) 98,11 %
25.06.2019 03:28 17,8 C 24,4 C 16,7 C 85 % 1018,9 hPa 0,0 l/m 7,0 km/h (2 Bft) O 94 0 min 0,000 mm 0,0 UV-I 0 W/m 15,2 C 17,5 C 12,9 km/h (3 Bft) 95,74 %
25.06.2019 03:30 17,8 C 24,4 C 16,7 C 85 % 1018,9 hPa 0,0 l/m 6,0 km/h (2 Bft) O-NO 74 0 min 0,000 mm 0,0 UV-I 0 W/m 15,2 C 17,8 C 11,3 km/h (2 Bft) 97,87 %
25.06.2019 03:32 17,9 C 24,4 C 16,7 C 85 % 1018,8 hPa 0,0 l/m 8,5 km/h (2 Bft) O-NO 69 0 min 0,000 mm 0,0 UV-I 0 W/m 15,3 C 16,9 C 12,9 km/h (3 Bft) 98,00 %
25.06.2019 03:34 17,9 C 24,4 C 16,7 C 84 % 1018,9 hPa 0,0 l/m 8,0 km/h (2 Bft) O-NO 64 0 min 0,000 mm 0,0 UV-I 0 W/m 15,2 C 17,1 C 14,5 km/h (3 Bft) 97,56 %
25.06.2019 03:36 18,0 C 24,4 C 16,7 C 84 % 1018,9 hPa 0,0 l/m 7,0 km/h (2 Bft) O 81 0 min 0,000 mm 0,0 UV-I 0 W/m 15,3 C 17,7 C 12,9 km/h (3 Bft) 94,00 %
25.06.2019 03:38 18,0 C 24,4 C 16,7 C 84 % 1018,8 hPa 0,0 l/m 8,3 km/h (2 Bft) O-NO 69 0 min 0,000 mm 0,0 UV-I 0 W/m 15,3 C 17,1 C 12,9 km/h (3 Bft) 98,00 %
25.06.2019 03:40 18,0 C 24,4 C 16,7 C 84 % 1018,8 hPa 0,0 l/m 9,2 km/h (2 Bft) O-NO 65 0 min 0,000 mm 0,0 UV-I 0 W/m 15,3 C 16,7 C 11,3 km/h (2 Bft) 97,56 %
25.06.2019 03:42 18,0 C 24,4 C 16,7 C 84 % 1018,8 hPa 0,0 l/m 8,8 km/h (2 Bft) O 88 0 min 0,000 mm 0,0 UV-I 0 W/m 15,3 C 16,9 C 12,9 km/h (3 Bft) 98,11 %
25.06.2019 03:44 18,0 C 24,4 C 16,7 C 84 % 1018,7 hPa 0,0 l/m 7,3 km/h (2 Bft) O-NO 74 0 min 0,000 mm 0,0 UV-I 0 W/m 15,3 C 17,6 C 11,3 km/h (2 Bft) 92,11 %
25.06.2019 03:46 17,9 C 24,4 C 16,7 C 84 % 1018,8 hPa 0,0 l/m 5,7 km/h (1 Bft) O-NO 75 0 min 0,000 mm 0,0 UV-I 0 W/m 15,2 C 17,9 C 8,0 km/h (2 Bft) 98,00 %
25.06.2019 03:48 17,8 C 24,4 C 16,7 C 84 % 1018,8 hPa 0,0 l/m 6,1 km/h (2 Bft) O-NO 69 0 min 0,000 mm 0,0 UV-I 0 W/m 15,1 C 17,8 C 9,7 km/h (2 Bft) 97,44 %
25.06.2019 03:50 17,7 C 24,4 C 16,7 C 85 % 1018,8 hPa 0,0 l/m 6,5 km/h (2 Bft) O-NO 67 0 min 0,000 mm 0,0 UV-I 0 W/m 15,1 C 17,7 C 9,7 km/h (2 Bft) 98,00 %
25.06.2019 03:52 17,6 C 24,4 C 16,7 C 85 % 1018,7 hPa 0,0 l/m 6,8 km/h (2 Bft) O-NO 61 0 min 0,000 mm 0,0 UV-I 0 W/m 15,0 C 17,4 C 9,7 km/h (2 Bft) 96,36 %
25.06.2019 03:54 17,3 C 24,4 C 16,7 C 86 % 1018,7 hPa 0,0 l/m 7,0 km/h (2 Bft) O-NO 78 0 min 0,000 mm 0,0 UV-I 0 W/m 14,9 C 17,0 C 11,3 km/h (2 Bft) 95,24 %
25.06.2019 03:56 17,3 C 24,4 C 16,7 C 86 % 1018,6 hPa 0,0 l/m 7,6 km/h (2 Bft) O-NO 67 0 min 0,000 mm 0,0 UV-I 0 W/m 14,9 C 16,7 C 12,9 km/h (3 Bft) 98,11 %
25.06.2019 03:58 17,3 C 24,4 C 16,7 C 86 % 1018,6 hPa 0,0 l/m 6,8 km/h (2 Bft) O-NO 57 0 min 0,000 mm 0,0 UV-I 0 W/m 14,9 C 17,1 C 11,3 km/h (2 Bft) 97,87 %
25.06.2019 04:00 17,3 C 24,4 C 16,7 C 86 % 1018,6 hPa 0,0 l/m 6,4 km/h (2 Bft) O 88 0 min 0,026 mm 0,0 UV-I 0 W/m 14,9 C 17,3 C 8,0 km/h (2 Bft) 97,37 %
25.06.2019 04:02 17,4 C 24,4 C 16,7 C 86 % 1018,6 hPa 0,0 l/m 6,0 km/h (2 Bft) O-NO 57 0 min 0,000 mm 0,0 UV-I 0 W/m 15,0 C 17,4 C 8,0 km/h (2 Bft) 100,00 %
25.06.2019 04:04 17,4 C 24,4 C 16,7 C 86 % 1018,6 hPa 0,0 l/m 5,2 km/h (1 Bft) O-NO 78 0 min 0,000 mm 0,0 UV-I 0 W/m 15,0 C 17,4 C 8,0 km/h (2 Bft) 95,74 %
25.06.2019 04:06 17,4 C 24,4 C 16,7 C 86 % 1018,6 hPa 0,0 l/m 4,8 km/h (1 Bft) O 94 0 min 0,000 mm 0,0 UV-I 0 W/m 15,0 C 17,4 C 6,4 km/h (2 Bft) 98,00 %
25.06.2019 04:08 17,4 C 24,4 C 16,7 C 86 % 1018,6 hPa 0,0 l/m 5,9 km/h (2 Bft) O-NO 76 0 min 0,000 mm 0,0 UV-I 0 W/m 15,0 C 17,4 C 11,3 km/h (2 Bft) 97,56 %
25.06.2019 04:10 17,4 C 24,4 C 16,7 C 86 % 1018,6 hPa 0,0 l/m 7,1 km/h (2 Bft) O-NO 62 0 min 0,000 mm 0,0 UV-I 0 W/m 15,0 C 17,1 C 12,9 km/h (3 Bft) 98,21 %
25.06.2019 04:12 17,4 C 24,4 C 16,7 C 86 % 1018,6 hPa 0,0 l/m 4,4 km/h (1 Bft) O-NO 74 0 min 0,000 mm 0,0 UV-I 0 W/m 15,0 C 17,4 C 6,4 km/h (2 Bft) 97,37 %
25.06.2019 04:14 17,4 C 24,4 C 16,1 C 86 % 1018,7 hPa 0,0 l/m 5,2 km/h (1 Bft) O 98 0 min 0,000 mm 0,0 UV-I 0 W/m 15,0 C 17,4 C 6,4 km/h (2 Bft) 98,11 %
25.06.2019 04:16 17,4 C 24,4 C 16,1 C 86 % 1018,6 hPa 0,0 l/m 5,6 km/h (1 Bft) O 96 0 min 0,000 mm 0,0 UV-I 0 W/m 15,0 C 17,4 C 11,3 km/h (2 Bft) 97,56 %
25.06.2019 04:18 17,4 C 24,4 C 16,1 C 86 % 1018,6 hPa 0,0 l/m 5,5 km/h (1 Bft) O 86 0 min 0,000 mm 0,0 UV-I 0 W/m 15,0 C 17,4 C 11,3 km/h (2 Bft) 95,74 %
25.06.2019 04:20 17,4 C 24,4 C 16,1 C 86 % 1018,6 hPa 0,0 l/m 5,7 km/h (1 Bft) O 84 0 min 0,000 mm 0,0 UV-I 0 W/m 15,0 C 17,4 C 11,3 km/h (2 Bft) 96,00 %
25.06.2019 04:22 17,4 C 24,4 C 16,1 C 86 % 1018,6 hPa 0,0 l/m 5,5 km/h (1 Bft) O 93 0 min 0,000 mm 0,0 UV-I 0 W/m 15,0 C 17,4 C 9,7 km/h (2 Bft) 96,23 %
25.06.2019 04:24 17,4 C 24,4 C 16,1 C 86 % 1018,6 hPa 0,0 l/m 6,2 km/h (2 Bft) O-NO 69 0 min 0,000 mm 0,0 UV-I 0 W/m 15,0 C 17,4 C 12,9 km/h (3 Bft) 95,74 %
25.06.2019 04:26 17,5 C 24,4 C 16,1 C 86 % 1018,6 hPa 0,0 l/m 7,1 km/h (2 Bft) O 88 0 min 0,000 mm 0,0 UV-I 0 W/m 15,1 C 17,2 C 12,9 km/h (3 Bft) 95,74 %
25.06.2019 04:28 17,6 C 24,4 C 16,7 C 86 % 1018,6 hPa 0,0 l/m 7,7 km/h (2 Bft) O 91 0 min 0,000 mm 0,0 UV-I 0 W/m 15,2 C 17,0 C 11,3 km/h (2 Bft) 97,44 %
25.06.2019 04:30 17,7 C 24,4 C 16,7 C 85 % 1018,5 hPa 0,0 l/m 7,4 km/h (2 Bft) O-NO 71 0 min 0,000 mm 0,0 UV-I 0 W/m 15,1 C 17,2 C 11,3 km/h (2 Bft) 95,74 %
25.06.2019 04:32 17,8 C 24,4 C 16,7 C 85 % 1018,5 hPa 0,0 l/m 8,7 km/h (2 Bft) O-NO 74 0 min 0,000 mm 0,0 UV-I 0 W/m 15,2 C 16,7 C 12,9 km/h (3 Bft) 94,34 %
25.06.2019 04:34 17,8 C 24,4 C 16,7 C 84 % 1018,6 hPa 0,0 l/m 7,5 km/h (2 Bft) O 92 0 min 0,000 mm 0,0 UV-I 0 W/m 15,1 C 17,3 C 11,3 km/h (2 Bft) 97,37 %
25.06.2019 04:36 17,9 C 24,4 C 16,7 C 84 % 1018,5 hPa 0,0 l/m 7,2 km/h (2 Bft) O-NO 77 0 min 0,000 mm 0,0 UV-I 0 W/m 15,2 C 17,5 C 11,3 km/h (2 Bft) 96,23 %
25.06.2019 04:38 17,8 C 24,4 C 16,7 C 84 % 1018,5 hPa 0,0 l/m 7,9 km/h (2 Bft) O 89 0 min 0,000 mm 0,0 UV-I 0 W/m 15,1 C 17,1 C 11,3 km/h (2 Bft) 97,37 %
25.06.2019 04:40 17,8 C 24,4 C 16,7 C 84 % 1018,5 hPa 0,0 l/m 8,6 km/h (2 Bft) O-NO 72 0 min 0,000 mm 0,0 UV-I 0 W/m 15,1 C 16,8 C 12,9 km/h (3 Bft) 98,31 %
25.06.2019 04:42 17,8 C 24,4 C 16,7 C 84 % 1018,5 hPa 0,0 l/m 7,4 km/h (2 Bft) O 84 0 min 0,000 mm 0,0 UV-I 0 W/m 15,1 C 17,3 C 11,3 km/h (2 Bft) 97,56 %
25.06.2019 04:44 17,7 C 24,4 C 16,7 C 84 % 1018,5 hPa 0,0 l/m 6,5 km/h (2 Bft) O 83 0 min 0,000 mm 0,0 UV-I 0 W/m 15,0 C 17,7 C 9,7 km/h (2 Bft) 98,00 %
25.06.2019 04:46 17,6 C 24,4 C 16,7 C 85 % 1018,5 hPa 0,0 l/m 5,8 km/h (2 Bft) NO 55 0 min 0,000 mm 0,0 UV-I 0 W/m 15,0 C 17,6 C 9,7 km/h (2 Bft) 97,87 %
25.06.2019 04:48 17,4 C 24,4 C 16,1 C 85 % 1018,5 hPa 0,0 l/m 5,5 km/h (1 Bft) O-NO 78 0 min 0,000 mm 0,0 UV-I 5 W/m 14,8 C 17,4 C 8,0 km/h (2 Bft) 97,87 %
25.06.2019 04:50 17,3 C 24,4 C 16,1 C 86 % 1018,5 hPa 0,0 l/m 6,0 km/h (2 Bft) O-NO 76 0 min 0,000 mm 0,0 UV-I 5 W/m 14,9 C 17,3 C 8,0 km/h (2 Bft) 98,00 %
25.06.2019 04:52 17,3 C 24,4 C 16,1 C 86 % 1018,5 hPa 0,0 l/m 5,9 km/h (2 Bft) O-NO 74 0 min 0,000 mm 0,0 UV-I 5 W/m 14,9 C 17,3 C 8,0 km/h (2 Bft) 95,12 %
25.06.2019 04:54 17,2 C 24,4 C 16,1 C 86 % 1018,5 hPa 0,0 l/m 6,4 km/h (2 Bft) O 94 0 min 0,000 mm 0,0 UV-I 5 W/m 14,8 C 17,2 C 9,7 km/h (2 Bft) 100,00 %
25.06.2019 04:56 17,2 C 24,4 C 16,1 C 86 % 1018,5 hPa 0,0 l/m 6,6 km/h (2 Bft) O 80 0 min 0,000 mm 0,0 UV-I 6 W/m 14,8 C 17,1 C 11,3 km/h (2 Bft) 98,11 %
25.06.2019 04:58 17,2 C 24,4 C 16,1 C 87 % 1018,4 hPa 0,0 l/m 6,2 km/h (2 Bft) O-NO 74 0 min 0,000 mm 0,0 UV-I 7 W/m 15,0 C 17,2 C 9,7 km/h (2 Bft) 100,00 %
25.06.2019 05:00 17,2 C 24,4 C 16,1 C 86 % 1018,5 hPa 0,0 l/m 8,0 km/h (2 Bft) O 86 0 min 0,025 mm 0,0 UV-I 7 W/m 14,8 C 16,4 C 14,5 km/h (3 Bft) 100,00 %
25.06.2019 05:02 17,2 C 24,4 C 16,1 C 86 % 1018,5 hPa 0,0 l/m 6,8 km/h (2 Bft) O 80 0 min 0,000 mm 0,0 UV-I 7 W/m 14,8 C 17,0 C 11,3 km/h (2 Bft) 97,87 %
25.06.2019 05:04 17,2 C 24,4 C 16,1 C 86 % 1018,5 hPa 0,0 l/m 8,0 km/h (2 Bft) O-NO 70 0 min 0,000 mm 0,0 UV-I 9 W/m 14,8 C 16,4 C 12,9 km/h (3 Bft) 100,00 %
25.06.2019 05:06 17,2 C 24,4 C 16,1 C 86 % 1018,5 hPa 0,0 l/m 6,9 km/h (2 Bft) O 79 0 min 0,000 mm 0,0 UV-I 9 W/m 14,8 C 17,0 C 12,9 km/h (3 Bft) 98,00 %
25.06.2019 05:08 17,2 C 24,4 C 16,1 C 86 % 1018,5 hPa 0,0 l/m 6,0 km/h (2 Bft) O 91 0 min 0,000 mm 0,0 UV-I 9 W/m 14,8 C 17,2 C 11,3 km/h (2 Bft) 97,37 %
25.06.2019 05:10 17,2 C 24,4 C 16,1 C 87 % 1018,6 hPa 0,0 l/m 5,7 km/h (1 Bft) O-SO 110 0 min 0,000 mm 0,0 UV-I 11 W/m 15,0 C 17,2 C 9,7 km/h (2 Bft) 100,00 %
25.06.2019 05:12 17,2 C 24,4 C 16,1 C 87 % 1018,6 hPa 0,0 l/m 5,7 km/h (1 Bft) O 92 0 min 0,000 mm 0,0 UV-I 11 W/m 15,0 C 17,2 C 11,3 km/h (2 Bft) 100,00 %
25.06.2019 05:14 17,2 C 24,4 C 16,1 C 87 % 1018,6 hPa 0,0 l/m 4,3 km/h (1 Bft) O-NO 65 0 min 0,000 mm 0,0 UV-I 12 W/m 15,0 C 17,2 C 6,4 km/h (2 Bft) 100,00 %
25.06.2019 05:16 17,2 C 24,4 C 16,1 C 87 % 1018,6 hPa 0,0 l/m 6,2 km/h (2 Bft) O 84 0 min 0,000 mm 0,0 UV-I 13 W/m 15,0 C 17,2 C 8,0 km/h (2 Bft) 100,00 %
25.06.2019 05:18 17,1 C 24,4 C 16,1 C 87 % 1018,6 hPa 0,0 l/m 6,9 km/h (2 Bft) O-NO 74 2 min 0,000 mm 0,0 UV-I 14 W/m 14,9 C 16,9 C 11,3 km/h (2 Bft) 100,00 %
25.06.2019 05:20 17,1 C 24,4 C 16,1 C 87 % 1018,6 hPa 0,0 l/m 6,1 km/h (2 Bft) O 93 2 min 0,000 mm 0,0 UV-I 18 W/m 14,9 C 17,1 C 9,7 km/h (2 Bft) 100,00 %
25.06.2019 05:22 17,1 C 24,4 C 16,1 C 87 % 1018,5 hPa 0,0 l/m 6,4 km/h (2 Bft) O 88 2 min 0,000 mm 0,0 UV-I 20 W/m 14,9 C 17,1 C 11,3 km/h (2 Bft) 100,00 %
25.06.2019 05:24 17,1 C 24,4 C 16,1 C 87 % 1018,5 hPa 0,0 l/m 5,2 km/h (1 Bft) O 84 2 min 0,000 mm 0,0 UV-I 22 W/m 14,9 C 17,1 C 8,0 km/h (2 Bft) 100,00 %
25.06.2019 05:26 17,0 C 24,4 C 16,1 C 87 % 1018,5 hPa 0,0 l/m 4,9 km/h (1 Bft) O 96 2 min 0,000 mm 0,0 UV-I 25 W/m 14,8 C 17,0 C 9,7 km/h (2 Bft) 97,87 %
25.06.2019 05:28 16,9 C 24,4 C 16,1 C 87 % 1018,6 hPa 0,0 l/m 5,0 km/h (1 Bft) O-NO 78 2 min 0,000 mm 0,0 UV-I 27 W/m 14,7 C 16,9 C 6,4 km/h (2 Bft) 100,00 %
25.06.2019 05:30 16,9 C 24,4 C 16,1 C 87 % 1018,6 hPa 0,0 l/m 5,6 km/h (1 Bft) O 79 2 min 0,000 mm 0,0 UV-I 30 W/m 14,7 C 16,9 C 8,0 km/h (2 Bft) 100,00 %
25.06.2019 05:32 16,9 C 24,4 C 16,1 C 87 % 1018,6 hPa 0,0 l/m 5,4 km/h (1 Bft) O 85 2 min 0,000 mm 0,0 UV-I 33 W/m 14,7 C 16,9 C 8,0 km/h (2 Bft) 100,00 %
25.06.2019 05:34 16,9 C 24,4 C 16,1 C 88 % 1018,6 hPa 0,0 l/m 4,6 km/h (1 Bft) O 85 2 min 0,000 mm 0,0 UV-I 36 W/m 14,9 C 16,9 C 6,4 km/h (2 Bft) 100,00 %
25.06.2019 05:36 16,8 C 24,4 C 16,1 C 88 % 1018,6 hPa 0,0 l/m 5,0 km/h (1 Bft) O 79 2 min 0,000 mm 0,0 UV-I 39 W/m 14,8 C 16,8 C 6,4 km/h (2 Bft) 100,00 %
25.06.2019 05:38 16,8 C 24,4 C 16,1 C 88 % 1018,6 hPa 0,0 l/m 4,7 km/h (1 Bft) O-NO 76 2 min 0,000 mm 0,0 UV-I 42 W/m 14,8 C 16,8 C 8,0 km/h (2 Bft) 96,23 %
25.06.2019 05:40 16,8 C 24,4 C 16,1 C 88 % 1018,6 hPa 0,0 l/m 4,1 km/h (1 Bft) O 82 2 min 0,000 mm 0,0 UV-I 45 W/m 14,8 C 16,8 C 6,4 km/h (2 Bft) 97,44 %
25.06.2019 05:42 16,8 C 24,4 C 16,1 C 88 % 1018,5 hPa 0,0 l/m 3,9 km/h (1 Bft) O-NO 78 2 min 0,000 mm 0,0 UV-I 49 W/m 14,8 C 16,8 C 6,4 km/h (2 Bft) 97,73 %
25.06.2019 05:44 16,7 C 24,4 C 16,1 C 88 % 1018,5 hPa 0,0 l/m 3,7 km/h (1 Bft) O-NO 64 2 min 0,000 mm 0,0 UV-I 53 W/m 14,7 C 16,7 C 4,8 km/h (1 Bft) 98,11 %
25.06.2019 05:46 16,7 C 24,4 C 16,1 C 89 % 1018,5 hPa 0,0 l/m 3,7 km/h (1 Bft) NO 54 2 min 0,000 mm 0,0 UV-I 54 W/m 14,9 C 16,7 C 6,4 km/h (2 Bft) 95,74 %
25.06.2019 05:48 16,7 C 24,4 C 16,1 C 89 % 1018,5 hPa 0,0 l/m 3,6 km/h (1 Bft) NO 55 2 min 0,000 mm 0,0 UV-I 56 W/m 14,9 C 16,7 C 6,4 km/h (2 Bft) 96,00 %
25.06.2019 05:50 16,7 C 24,4 C 16,1 C 89 % 1018,5 hPa 0,0 l/m 4,1 km/h (1 Bft) O 80 2 min 0,000 mm 0,0 UV-I 63 W/m 14,9 C 16,7 C 4,8 km/h (1 Bft) 97,37 %
25.06.2019 05:52 16,8 C 24,4 C 16,1 C 89 % 1018,6 hPa 0,0 l/m 3,7 km/h (1 Bft) O 82 2 min 0,000 mm 0,0 UV-I 68 W/m 15,0 C 16,8 C 4,8 km/h (1 Bft) 98,11 %
25.06.2019 05:54 16,8 C 24,4 C 16,1 C 89 % 1018,6 hPa 0,0 l/m 2,7 km/h (1 Bft) O 82 2 min 0,000 mm 0,0 UV-I 71 W/m 15,0 C 16,8 C 4,8 km/h (1 Bft) 96,00 %
25.06.2019 05:56 16,8 C 24,4 C 16,1 C 89 % 1018,6 hPa 0,0 l/m 2,8 km/h (1 Bft) O 82 2 min 0,000 mm 0,0 UV-I 76 W/m 15,0 C 16,8 C 4,8 km/h (1 Bft) 95,74 %
25.06.2019 05:58 16,9 C 24,4 C 16,1 C 89 % 1018,6 hPa 0,0 l/m 2,7 km/h (1 Bft) O 82 2 min 0,000 mm 0,0 UV-I 78 W/m 15,1 C 16,9 C 3,2 km/h (1 Bft) 97,87 %
25.06.2019 06:00 16,9 C 24,4 C 16,1 C 89 % 1018,6 hPa 0,0 l/m 1,8 km/h (1 Bft) O 82 2 min 0,025 mm 0,0 UV-I 82 W/m 15,1 C 16,9 C 3,2 km/h (1 Bft) 97,14 %
25.06.2019 06:02 16,9 C 24,4 C 16,1 C 89 % 1018,5 hPa 0,0 l/m 2,2 km/h (1 Bft) O 82 2 min 0,000 mm 0,0 UV-I 86 W/m 15,1 C 16,9 C 3,2 km/h (1 Bft) 98,00 %
25.06.2019 06:04 16,9 C 24,4 C 16,1 C 89 % 1018,6 hPa 0,0 l/m 2,9 km/h (1 Bft) O 82 2 min 0,000 mm 0,0 UV-I 91 W/m 15,1 C 16,9 C 4,8 km/h (1 Bft) 100,00 %
25.06.2019 06:06 16,9 C 24,4 C 16,1 C 89 % 1018,5 hPa 0,0 l/m 3,9 km/h (1 Bft) O-NO 67 2 min 0,000 mm 0,0 UV-I 95 W/m 15,1 C 16,9 C 6,4 km/h (2 Bft) 100,00 %
25.06.2019 06:08 17,0 C 24,4 C 16,1 C 89 % 1018,5 hPa 0,0 l/m 4,6 km/h (1 Bft) NO 51 2 min 0,000 mm 0,0 UV-I 99 W/m 15,2 C 17,0 C 6,4 km/h (2 Bft) 100,00 %
25.06.2019 06:10 17,0 C 24,4 C 16,7 C 89 % 1018,6 hPa 0,0 l/m 4,9 km/h (1 Bft) O-NO 65 2 min 0,000 mm 0,0 UV-I 103 W/m 15,2 C 17,0 C 8,0 km/h (2 Bft) 100,00 %
25.06.2019 06:12 17,1 C 24,4 C 16,7 C 89 % 1018,6 hPa 0,0 l/m 5,1 km/h (1 Bft) NO 55 2 min 0,000 mm 0,0 UV-I 107 W/m 15,3 C 17,1 C 8,0 km/h (2 Bft) 97,87 %
25.06.2019 06:14 17,2 C 24,4 C 16,7 C 89 % 1018,6 hPa 0,0 l/m 3,4 km/h (1 Bft) O-NO 57 2 min 0,000 mm 0,0 UV-I 111 W/m 15,4 C 17,2 C 4,8 km/h (1 Bft) 100,00 %
25.06.2019 06:16 17,3 C 24,4 C 16,7 C 89 % 1018,6 hPa 0,0 l/m 3,4 km/h (1 Bft) O-NO 58 2 min 0,000 mm 0,0 UV-I 116 W/m 15,5 C 17,3 C 4,8 km/h (1 Bft) 100,00 %
25.06.2019 06:18 17,3 C 24,4 C 16,7 C 89 % 1018,6 hPa 0,0 l/m 4,3 km/h (1 Bft) O-NO 65 2 min 0,000 mm 0,0 UV-I 121 W/m 15,5 C 17,3 C 6,4 km/h (2 Bft) 98,00 %
25.06.2019 06:20 17,4 C 24,4 C 16,7 C 88 % 1018,6 hPa 0,0 l/m 3,8 km/h (1 Bft) O-SO 103 2 min 0,000 mm 0,0 UV-I 125 W/m 15,4 C 17,4 C 4,8 km/h (1 Bft) 100,00 %
25.06.2019 06:22 17,5 C 24,4 C 16,7 C 88 % 1018,7 hPa 0,0 l/m 3,8 km/h (1 Bft) O 84 2 min 0,000 mm 0,0 UV-I 129 W/m 15,5 C 17,5 C 4,8 km/h (1 Bft) 100,00 %
25.06.2019 06:24 17,6 C 24,4 C 16,7 C 88 % 1018,6 hPa 0,0 l/m 3,1 km/h (1 Bft) O 84 2 min 0,000 mm 0,0 UV-I 134 W/m 15,6 C 17,6 C 4,8 km/h (1 Bft) 100,00 %
25.06.2019 06:26 17,7 C 24,4 C 17,2 C 88 % 1018,6 hPa 0,0 l/m 3,6 km/h (1 Bft) O-NO 69 2 min 0,000 mm 0,0 UV-I 139 W/m 15,7 C 17,7 C 6,4 km/h (2 Bft) 100,00 %
25.06.2019 06:28 17,7 C 24,4 C 17,2 C 87 % 1018,7 hPa 0,0 l/m 3,9 km/h (1 Bft) O-NO 68 2 min 0,000 mm 0,0 UV-I 143 W/m 15,5 C 17,7 C 6,4 km/h (2 Bft) 98,00 %
25.06.2019 06:30 17,8 C 24,4 C 17,2 C 87 % 1018,7 hPa 0,0 l/m 1,1 km/h (1 Bft) O-NO 69 2 min 0,000 mm 0,0 UV-I 148 W/m 15,6 C 17,8 C 3,2 km/h (1 Bft) 97,14 %
25.06.2019 06:32 17,8 C 24,4 C 17,2 C 87 % 1018,7 hPa 0,0 l/m 1,6 km/h (1 Bft) O-NO 69 2 min 0,000 mm 0,0 UV-I 153 W/m 15,6 C 17,8 C 3,2 km/h (1 Bft) 94,64 %
25.06.2019 06:34 17,9 C 24,4 C 17,2 C 86 % 1018,7 hPa 0,0 l/m 3,3 km/h (1 Bft) O-NO 77 2 min 0,000 mm 0,0 UV-I 158 W/m 15,5 C 17,9 C 6,4 km/h (2 Bft) 97,56 %
25.06.2019 06:36 18,0 C 24,4 C 17,8 C 86 % 1018,7 hPa 0,0 l/m 3,8 km/h (1 Bft) O 82 2 min 0,000 mm 0,0 UV-I 163 W/m 15,6 C 18,0 C 6,4 km/h (2 Bft) 96,00 %
25.06.2019 06:38 18,1 C 24,4 C 17,8 C 86 % 1018,7 hPa 0,0 l/m 6,0 km/h (2 Bft) O-NO 61 2 min 0,000 mm 0,0 UV-I 167 W/m 15,7 C 18,1 C 9,7 km/h (2 Bft) 95,12 %
25.06.2019 06:40 18,1 C 24,4 C 17,8 C 86 % 1018,7 hPa 0,0 l/m 4,4 km/h (1 Bft) O-NO 64 2 min 0,000 mm 0,0 UV-I 173 W/m 15,7 C 18,1 C 6,4 km/h (2 Bft) 96,43 %
25.06.2019 06:42 18,2 C 24,4 C 17,8 C 86 % 1018,8 hPa 0,0 l/m 6,2 km/h (2 Bft) NO 56 2 min 0,000 mm 0,0 UV-I 178 W/m 15,8 C 18,2 C 8,0 km/h (2 Bft) 97,87 %
25.06.2019 06:44 18,3 C 24,4 C 17,8 C 86 % 1018,7 hPa 0,0 l/m 5,1 km/h (1 Bft) NO 55 2 min 0,000 mm 0,0 UV-I 183 W/m 15,9 C 18,3 C 8,0 km/h (2 Bft) 97,87 %
25.06.2019 06:46 18,3 C 24,4 C 17,8 C 86 % 1018,7 hPa 0,0 l/m 4,4 km/h (1 Bft) O-NO 68 2 min 0,000 mm 0,0 UV-I 187 W/m 15,9 C 18,3 C 6,4 km/h (2 Bft) 95,74 %
25.06.2019 06:48 18,4 C 24,4 C 18,3 C 85 % 1018,7 hPa 0,0 l/m 7,2 km/h (2 Bft) O 79 2 min 0,000 mm 0,0 UV-I 193 W/m 15,8 C 18,0 C 9,7 km/h (2 Bft) 96,00 %
25.06.2019 06:50 18,5 C 24,4 C 18,3 C 85 % 1018,7 hPa 0,0 l/m 5,7 km/h (1 Bft) O-NO 69 2 min 0,000 mm 0,0 UV-I 198 W/m 15,9 C 18,5 C 11,3 km/h (2 Bft) 94,29 %
25.06.2019 06:52 18,6 C 24,4 C 18,3 C 85 % 1018,7 hPa 0,0 l/m 5,9 km/h (2 Bft) O-NO 67 2 min 0,000 mm 0,0 UV-I 204 W/m 16,0 C 18,6 C 9,7 km/h (2 Bft) 92,86 %
25.06.2019 06:54 18,7 C 24,4 C 18,3 C 85 % 1018,7 hPa 0,0 l/m 8,3 km/h (2 Bft) O-NO 63 2 min 0,000 mm 0,0 UV-I 209 W/m 16,1 C 17,9 C 14,5 km/h (3 Bft) 96,00 %
25.06.2019 06:56 18,8 C 24,4 C 18,3 C 84 % 1018,7 hPa 0,0 l/m 8,3 km/h (2 Bft) NO 55 2 min 0,000 mm 0,0 UV-I 214 W/m 16,0 C 18,0 C 9,7 km/h (2 Bft) 94,87 %
25.06.2019 06:58 18,8 C 24,4 C 18,9 C 84 % 1018,7 hPa 0,0 l/m 8,7 km/h (2 Bft) O 98 2 min 0,000 mm 0,0 UV-I 219 W/m 16,0 C 17,8 C 12,9 km/h (3 Bft) 96,15 %
25.06.2019 07:00 18,8 C 24,4 C 18,9 C 84 % 1018,7 hPa 0,0 l/m 5,3 km/h (1 Bft) NO 54 2 min 0,000 mm 0,0 UV-I 224 W/m 16,0 C 18,8 C 9,7 km/h (2 Bft) 92,86 %
25.06.2019 07:02 18,9 C 24,4 C 18,9 C 84 % 1018,7 hPa 0,0 l/m 8,8 km/h (2 Bft) O-NO 71 2 min 0,102 mm 0,0 UV-I 230 W/m 16,1 C 17,9 C 14,5 km/h (3 Bft) 92,45 %
25.06.2019 07:04 18,9 C 24,4 C 18,9 C 83 % 1018,7 hPa 0,0 l/m 8,0 km/h (2 Bft) O-NO 74 2 min 0,000 mm 0,0 UV-I 235 W/m 15,9 C 18,2 C 12,9 km/h (3 Bft) 94,74 %
25.06.2019 07:06 19,0 C 24,4 C 18,9 C 83 % 1018,7 hPa 0,0 l/m 6,1 km/h (2 Bft) O 96 2 min 0,000 mm 0,0 UV-I 241 W/m 16,0 C 19,0 C 9,7 km/h (2 Bft) 94,00 %
25.06.2019 07:08 19,1 C 24,4 C 18,9 C 83 % 1018,7 hPa 0,0 l/m 7,2 km/h (2 Bft) O-NO 78 2 min 0,000 mm 0,2 UV-I 247 W/m 16,1 C 18,7 C 11,3 km/h (2 Bft) 96,23 %
25.06.2019 07:10 19,1 C 24,4 C 18,9 C 83 % 1018,7 hPa 0,0 l/m 10,0 km/h (2 Bft) NO 55 2 min 0,000 mm 0,5 UV-I 253 W/m 16,1 C 17,6 C 14,5 km/h (3 Bft) 94,29 %
25.06.2019 07:12 19,2 C 24,4 C 18,9 C 83 % 1018,7 hPa 0,0 l/m 8,2 km/h (2 Bft) O 96 2 min 0,000 mm 0,5 UV-I 258 W/m 16,2 C 18,4 C 11,3 km/h (2 Bft) 94,34 %
25.06.2019 07:14 19,3 C 24,4 C 18,9 C 82 % 1018,7 hPa 0,0 l/m 7,0 km/h (2 Bft) NO 51 2 min 0,000 mm 0,5 UV-I 264 W/m 16,1 C 19,0 C 11,3 km/h (2 Bft) 94,00 %
25.06.2019 07:16 19,4 C 24,4 C 19,4 C 82 % 1018,7 hPa 0,0 l/m 7,1 km/h (2 Bft) O 80 2 min 0,000 mm 0,5 UV-I 268 W/m 16,2 C 19,1 C 12,9 km/h (3 Bft) 97,14 %
25.06.2019 07:18 19,4 C 24,4 C 19,4 C 81 % 1018,7 hPa 0,0 l/m 8,5 km/h (2 Bft) O-NO 72 2 min 0,000 mm 0,5 UV-I 273 W/m 16,1 C 18,5 C 16,1 km/h (3 Bft) 92,86 %
25.06.2019 07:20 19,4 C 24,4 C 19,4 C 81 % 1018,7 hPa 0,0 l/m 8,5 km/h (2 Bft) O-NO 67 2 min 0,000 mm 0,6 UV-I 279 W/m 16,1 C 18,5 C 14,5 km/h (3 Bft) 95,12 %
25.06.2019 07:22 19,4 C 24,4 C 19,4 C 81 % 1018,8 hPa 0,0 l/m 10,0 km/h (2 Bft) O-NO 61 2 min 0,000 mm 0,6 UV-I 286 W/m 16,1 C 18,0 C 16,1 km/h (3 Bft) 94,34 %
25.06.2019 07:24 19,5 C 24,4 C 19,4 C 81 % 1018,8 hPa 0,0 l/m 10,4 km/h (2 Bft) O 96 2 min 0,000 mm 0,6 UV-I 291 W/m 16,1 C 18,0 C 14,5 km/h (3 Bft) 97,87 %
25.06.2019 07:26 19,6 C 24,4 C 19,4 C 82 % 1018,8 hPa 0,0 l/m 9,3 km/h (2 Bft) O 88 2 min 0,000 mm 0,6 UV-I 296 W/m 16,4 C 18,4 C 14,5 km/h (3 Bft) 95,74 %
25.06.2019 07:28 19,7 C 24,4 C 19,4 C 81 % 1018,8 hPa 0,0 l/m 8,2 km/h (2 Bft) O-NO 59 2 min 0,000 mm 0,6 UV-I 302 W/m 16,3 C 19,0 C 12,9 km/h (3 Bft) 97,56 %
25.06.2019 07:30 19,8 C 24,4 C 19,4 C 81 % 1018,8 hPa 0,0 l/m 7,8 km/h (2 Bft) O 98 2 min 0,000 mm 0,7 UV-I 308 W/m 16,4 C 19,2 C 12,9 km/h (3 Bft) 97,87 %
25.06.2019 07:32 19,8 C 24,4 C 20,0 C 80 % 1018,9 hPa 0,0 l/m 10,6 km/h (2 Bft) O-NO 73 2 min 0,000 mm 0,7 UV-I 313 W/m 16,2 C 18,2 C 14,5 km/h (3 Bft) 95,83 %
25.06.2019 07:34 19,9 C 24,4 C 20,0 C 80 % 1018,9 hPa 0,0 l/m 11,9 km/h (2 Bft) O 99 2 min 0,000 mm 0,7 UV-I 318 W/m 16,3 C 17,9 C 16,1 km/h (3 Bft) 97,87 %
25.06.2019 07:36 19,9 C 24,4 C 20,0 C 80 % 1018,9 hPa 0,0 l/m 12,6 km/h (3 Bft) O-SO 109 2 min 0,000 mm 0,7 UV-I 324 W/m 16,3 C 17,7 C 16,1 km/h (3 Bft) 98,00 %
25.06.2019 07:38 19,9 C 24,4 C 20,0 C 80 % 1018,9 hPa 0,0 l/m 10,4 km/h (2 Bft) O 96 2 min 0,000 mm 0,7 UV-I 331 W/m 16,3 C 18,4 C 14,5 km/h (3 Bft) 96,00 %
25.06.2019 07:40 20,0 C 24,4 C 20,0 C 81 % 1018,8 hPa 0,0 l/m 7,7 km/h (2 Bft) O 101 2 min 0,000 mm 0,8 UV-I 336 W/m 16,6 C 19,5 C 14,5 km/h (3 Bft) 97,87 %
25.06.2019 07:42 20,1 C 24,4 C 20,0 C 79 % 1018,9 hPa 0,0 l/m 9,2 km/h (2 Bft) O 85 2 min 0,000 mm 0,8 UV-I 342 W/m 16,3 C 19,0 C 14,5 km/h (3 Bft) 97,56 %
25.06.2019 07:44 20,2 C 24,4 C 20,0 C 79 % 1018,9 hPa 0,0 l/m 12,7 km/h (3 Bft) O 94 2 min 0,000 mm 0,8 UV-I 347 W/m 16,4 C 18,1 C 17,7 km/h (3 Bft) 97,87 %
25.06.2019 07:46 20,2 C 24,4 C 20,0 C 78 % 1018,9 hPa 0,0 l/m 15,2 km/h (3 Bft) O 92 2 min 0,000 mm 0,8 UV-I 353 W/m 16,2 C 17,4 C 20,9 km/h (4 Bft) 97,87 %
25.06.2019 07:48 20,2 C 24,4 C 20,0 C 79 % 1018,9 hPa 0,0 l/m 10,3 km/h (2 Bft) O-NO 71 2 min 0,000 mm 0,9 UV-I 359 W/m 16,4 C 18,8 C 16,1 km/h (3 Bft) 95,12 %
25.06.2019 07:50 20,2 C 24,4 C 20,0 C 78 % 1018,9 hPa 0,0 l/m 9,4 km/h (2 Bft) O-NO 74 2 min 0,000 mm 0,9 UV-I 364 W/m 16,2 C 19,1 C 14,5 km/h (3 Bft) 100,00 %
25.06.2019 07:52 20,3 C 24,4 C 20,6 C 78 % 1018,9 hPa 0,0 l/m 10,7 km/h (2 Bft) O 92 2 min 0,000 mm 0,9 UV-I 370 W/m 16,3 C 18,8 C 17,7 km/h (3 Bft) 100,00 %
25.06.2019 07:54 20,4 C 24,4 C 20,6 C 78 % 1018,9 hPa 0,0 l/m 10,8 km/h (2 Bft) O 83 2 min 0,000 mm 0,9 UV-I 375 W/m 16,4 C 18,8 C 19,3 km/h (3 Bft) 97,87 %
25.06.2019 07:56 20,4 C 24,4 C 20,6 C 78 % 1018,9 hPa 0,0 l/m 11,3 km/h (2 Bft) O-NO 63 2 min 0,000 mm 1,0 UV-I 382 W/m 16,4 C 18,7 C 16,1 km/h (3 Bft) 100,00 %
25.06.2019 07:58 20,4 C 24,4 C 20,6 C 78 % 1018,9 hPa 0,0 l/m 12,4 km/h (3 Bft) O 88 2 min 0,000 mm 1,0 UV-I 387 W/m 16,4 C 18,4 C 16,1 km/h (3 Bft) 100,00 %
25.06.2019 08:00 20,5 C 24,4 C 20,6 C 78 % 1018,9 hPa 0,0 l/m 8,5 km/h (2 Bft) O-NO 68 2 min 0,203 mm 1,0 UV-I 392 W/m 16,5 C 19,7 C 14,5 km/h (3 Bft) 96,23 %
25.06.2019 08:02 20,6 C 24,4 C 20,6 C 77 % 1018,9 hPa 0,0 l/m 10,7 km/h (2 Bft) O-NO 77 2 min 0,000 mm 1,1 UV-I 399 W/m 16,4 C 19,1 C 14,5 km/h (3 Bft) 100,00 %
25.06.2019 08:04 20,6 C 24,4 C 20,6 C 77 % 1018,9 hPa 0,0 l/m 9,4 km/h (2 Bft) O 94 2 min 0,000 mm 1,1 UV-I 405 W/m 16,4 C 19,5 C 16,1 km/h (3 Bft) 98,11 %
25.06.2019 08:06 20,7 C 24,4 C 21,1 C 78 % 1018,9 hPa 0,0 l/m 9,7 km/h (2 Bft) O-NO 61 2 min 0,000 mm 1,1 UV-I 410 W/m 16,7 C 19,5 C 14,5 km/h (3 Bft) 98,11 %
25.06.2019 08:08 20,9 C 24,4 C 21,1 C 78 % 1018,8 hPa 0,0 l/m 11,4 km/h (2 Bft) O-NO 71 2 min 0,000 mm 1,1 UV-I 415 W/m 16,9 C 19,2 C 16,1 km/h (3 Bft) 100,00 %
25.06.2019 08:10 21,1 C 24,4 C 21,1 C 77 % 1018,8 hPa 0,0 l/m 11,1 km/h (2 Bft) O-NO 67 2 min 0,000 mm 1,2 UV-I 422 W/m 16,9 C 19,5 C 16,1 km/h (3 Bft) 100,00 %
25.06.2019 08:12 21,1 C 24,4 C 21,1 C 76 % 1018,9 hPa 0,0 l/m 10,8 km/h (2 Bft) NO 55 2 min 0,000 mm 1,2 UV-I 427 W/m 16,7 C 19,6 C 16,1 km/h (3 Bft) 97,62 %
25.06.2019 08:14 21,3 C 24,4 C 21,7 C 76 % 1018,9 hPa 0,0 l/m 8,5 km/h (2 Bft) O-NO 57 2 min 0,000 mm 1,2 UV-I 432 W/m 16,9 C 20,5 C 12,9 km/h (3 Bft) 98,00 %
25.06.2019 08:16 21,3 C 24,4 C 21,7 C 76 % 1018,9 hPa 0,0 l/m 7,9 km/h (2 Bft) O 88 2 min 0,000 mm 1,2 UV-I 438 W/m 16,9 C 20,8 C 12,9 km/h (3 Bft) 100,00 %
25.06.2019 08:18 21,3 C 24,4 C 21,7 C 75 % 1018,9 hPa 0,0 l/m 8,7 km/h (2 Bft) O-NO 71 2 min 0,000 mm 1,3 UV-I 444 W/m 16,7 C 20,5 C 17,7 km/h (3 Bft) 97,87 %
25.06.2019 08:20 21,3 C 24,4 C 21,7 C 76 % 1018,8 hPa 0,0 l/m 10,2 km/h (2 Bft) O 80 2 min 0,000 mm 1,3 UV-I 449 W/m 16,9 C 20,0 C 14,5 km/h (3 Bft) 97,87 %
25.06.2019 08:22 21,3 C 24,4 C 21,7 C 75 % 1018,9 hPa 0,0 l/m 7,7 km/h (2 Bft) O 79 2 min 0,000 mm 1,3 UV-I 455 W/m 16,7 C 20,8 C 11,3 km/h (2 Bft) 100,00 %
25.06.2019 08:24 21,6 C 24,4 C 22,2 C 77 % 1018,9 hPa 0,0 l/m 10,5 km/h (2 Bft) O-NO 65 2 min 0,000 mm 1,4 UV-I 461 W/m 17,4 C 20,3 C 16,1 km/h (3 Bft) 100,00 %
25.06.2019 08:26 21,7 C 24,4 C 22,2 C 76 % 1018,9 hPa 0,0 l/m 10,3 km/h (2 Bft) O-NO 60 2 min 0,000 mm 1,4 UV-I 467 W/m 17,3 C 20,4 C 17,7 km/h (3 Bft) 100,00 %
25.06.2019 08:28 21,8 C 24,4 C 22,2 C 76 % 1018,9 hPa 0,0 l/m 10,7 km/h (2 Bft) NO 52 2 min 0,000 mm 1,4 UV-I 472 W/m 17,4 C 20,4 C 17,7 km/h (3 Bft) 96,15 %
25.06.2019 08:30 21,9 C 24,4 C 22,8 C 75 % 1019,0 hPa 0,0 l/m 11,8 km/h (2 Bft) O-NO 77 2 min 0,000 mm 1,4 UV-I 477 W/m 17,3 C 20,3 C 19,3 km/h (3 Bft) 93,55 %
25.06.2019 08:32 21,9 C 24,4 C 22,8 C 75 % 1018,9 hPa 0,0 l/m 13,2 km/h (3 Bft) NO 38 2 min 0,000 mm 1,5 UV-I 482 W/m 17,3 C 19,9 C 17,7 km/h (3 Bft) 95,74 %
25.06.2019 08:34 21,9 C 24,4 C 22,8 C 74 % 1018,9 hPa 0,0 l/m 9,3 km/h (2 Bft) O-NO 69 2 min 0,000 mm 1,5 UV-I 487 W/m 17,0 C 20,9 C 16,1 km/h (3 Bft) 94,64 %
25.06.2019 08:36 22,0 C 24,4 C 23,3 C 74 % 1018,9 hPa 0,0 l/m 7,1 km/h (2 Bft) O-NO 57 2 min 0,000 mm 1,5 UV-I 493 W/m 17,1 C 21,8 C 16,1 km/h (3 Bft) 94,74 %
25.06.2019 08:38 22,1 C 24,4 C 23,9 C 75 % 1019,0 hPa 0,0 l/m 14,3 km/h (3 Bft) O-NO 69 2 min 0,000 mm 1,6 UV-I 498 W/m 17,5 C 19,9 C 19,3 km/h (3 Bft) 91,07 %
25.06.2019 08:40 22,1 C 24,4 C 23,9 C 73 % 1019,0 hPa 0,0 l/m 10,1 km/h (2 Bft) NO 54 2 min 0,000 mm 1,6 UV-I 504 W/m 17,0 C 20,9 C 14,5 km/h (3 Bft) 95,45 %
25.06.2019 08:42 22,1 C 24,4 C 24,4 C 73 % 1019,0 hPa 0,0 l/m 13,4 km/h (3 Bft) NO 51 2 min 0,000 mm 1,7 UV-I 509 W/m 17,0 C 20,1 C 17,7 km/h (3 Bft) 95,12 %
25.06.2019 08:44 22,2 C 24,4 C 25,0 C 73 % 1019,0 hPa 0,0 l/m 10,7 km/h (2 Bft) O-NO 78 2 min 0,000 mm 1,7 UV-I 515 W/m 17,1 C 20,9 C 16,1 km/h (3 Bft) 95,83 %
25.06.2019 08:46 22,2 C 24,4 C 26,7 C 73 % 1019,0 hPa 0,0 l/m 11,1 km/h (2 Bft) NO 55 2 min 0,000 mm 1,7 UV-I 520 W/m 17,1 C 20,8 C 16,1 km/h (3 Bft) 95,74 %
25.06.2019 08:48 22,2 C 24,4 C 28,3 C 73 % 1019,0 hPa 0,0 l/m 11,0 km/h (2 Bft) O-NO 65 2 min 0,000 mm 1,8 UV-I 526 W/m 17,1 C 20,8 C 17,7 km/h (3 Bft) 92,73 %
25.06.2019 08:50 22,3 C 24,4 C 28,9 C 72 % 1019,0 hPa 0,0 l/m 12,5 km/h (3 Bft) O-NO 70 2 min 0,000 mm 1,8 UV-I 532 W/m 17,0 C 20,6 C 17,7 km/h (3 Bft) 95,45 %
25.06.2019 08:52 22,3 C 24,4 C 30,0 C 71 % 1019,0 hPa 0,0 l/m 14,6 km/h (3 Bft) O 93 2 min 0,000 mm 1,8 UV-I 536 W/m 16,8 C 20,1 C 20,9 km/h (4 Bft) 94,87 %
25.06.2019 08:54 22,3 C 24,4 C 30,6 C 72 % 1019,0 hPa 0,0 l/m 12,9 km/h (3 Bft) O 89 2 min 0,000 mm 1,9 UV-I 540 W/m 17,0 C 20,5 C 19,3 km/h (3 Bft) 96,00 %
25.06.2019 08:56 22,4 C 24,4 C 30,6 C 72 % 1019,0 hPa 0,0 l/m 13,7 km/h (3 Bft) O-SO 104 2 min 0,000 mm 1,9 UV-I 545 W/m 17,1 C 20,4 C 19,3 km/h (3 Bft) 97,56 %
25.06.2019 08:58 22,4 C 24,4 C 31,1 C 72 % 1019,0 hPa 0,0 l/m 12,4 km/h (3 Bft) O 96 2 min 0,000 mm 2,0 UV-I 551 W/m 17,1 C 20,7 C 17,7 km/h (3 Bft) 94,34 %
25.06.2019 09:00 22,5 C 24,4 C 31,7 C 72 % 1019,0 hPa 0,0 l/m 8,3 km/h (2 Bft) SO 126 2 min 0,330 mm 2,0 UV-I 556 W/m 17,2 C 21,9 C 16,1 km/h (3 Bft) 97,87 %
25.06.2019 09:02 22,7 C 24,4 C 32,2 C 74 % 1019,0 hPa 0,0 l/m 7,3 km/h (2 Bft) N-NO 30 2 min 0,000 mm 2,0 UV-I 563 W/m 17,8 C 22,4 C 14,5 km/h (3 Bft) 100,00 %
25.06.2019 09:04 22,8 C 24,4 C 32,2 C 74 % 1019,0 hPa 0,0 l/m 7,2 km/h (2 Bft) NO 50 2 min 0,000 mm 2,1 UV-I 566 W/m 17,9 C 22,5 C 9,7 km/h (2 Bft) 100,00 %
25.06.2019 09:06 22,8 C 24,4 C 31,7 C 72 % 1019,0 hPa 0,0 l/m 7,8 km/h (2 Bft) O 90 2 min 0,000 mm 2,1 UV-I 572 W/m 17,5 C 22,4 C 14,5 km/h (3 Bft) 100,00 %
25.06.2019 09:08 22,9 C 24,4 C 32,8 C 73 % 1018,9 hPa 0,0 l/m 11,8 km/h (2 Bft) O 87 2 min 0,000 mm 2,1 UV-I 575 W/m 17,8 C 21,4 C 19,3 km/h (3 Bft) 100,00 %
25.06.2019 09:10 23,0 C 24,4 C 32,8 C 73 % 1018,9 hPa 0,0 l/m 15,4 km/h (3 Bft) O-NO 65 2 min 0,000 mm 2,2 UV-I 582 W/m 17,9 C 20,8 C 19,3 km/h (3 Bft) 97,56 %
25.06.2019 09:12 23,1 C 24,4 C 33,3 C 74 % 1019,0 hPa 0,0 l/m 11,2 km/h (2 Bft) O-NO 67 2 min 0,000 mm 2,2 UV-I 586 W/m 18,2 C 21,8 C 16,1 km/h (3 Bft) 96,23 %
25.06.2019 09:14 23,2 C 24,4 C 33,3 C 72 % 1018,9 hPa 0,0 l/m 8,7 km/h (2 Bft) NO 53 2 min 0,000 mm 2,3 UV-I 594 W/m 17,9 C 22,5 C 12,9 km/h (3 Bft) 100,00 %
25.06.2019 09:16 23,3 C 24,4 C 33,3 C 72 % 1019,0 hPa 0,0 l/m 8,2 km/h (2 Bft) O 84 2 min 0,000 mm 2,3 UV-I 597 W/m 18,0 C 22,8 C 14,5 km/h (3 Bft) 100,00 %
25.06.2019 09:18 23,4 C 24,4 C 33,9 C 70 % 1019,0 hPa 0,0 l/m 10,1 km/h (2 Bft) O-SO 107 2 min 0,000 mm 2,3 UV-I 603 W/m 17,6 C 22,4 C 17,7 km/h (3 Bft) 97,87 %
25.06.2019 09:20 23,4 C 24,4 C 33,9 C 69 % 1019,0 hPa 0,0 l/m 13,7 km/h (3 Bft) O-SO 105 2 min 0,000 mm 2,4 UV-I 608 W/m 17,4 C 21,6 C 17,7 km/h (3 Bft) 100,00 %
25.06.2019 09:22 23,3 C 24,4 C 33,9 C 69 % 1019,0 hPa 0,0 l/m 11,4 km/h (2 Bft) O 94 2 min 0,000 mm 2,4 UV-I 613 W/m 17,3 C 22,0 C 14,5 km/h (3 Bft) 100,00 %
25.06.2019 09:24 23,4 C 24,4 C 33,9 C 69 % 1019,0 hPa 0,0 l/m 9,3 km/h (2 Bft) O-SO 120 2 min 0,000 mm 2,5 UV-I 618 W/m 17,4 C 22,6 C 17,7 km/h (3 Bft) 100,00 %
25.06.2019 09:26 23,6 C 24,4 C 34,4 C 72 % 1019,0 hPa 0,0 l/m 6,4 km/h (2 Bft) O-NO 78 2 min 0,000 mm 2,4 UV-I 624 W/m 18,2 C 23,6 C 14,5 km/h (3 Bft) 100,00 %
25.06.2019 09:28 23,8 C 24,4 C 35,0 C 68 % 1019,0 hPa 0,0 l/m 10,1 km/h (2 Bft) O 82 2 min 0,000 mm 2,3 UV-I 628 W/m 17,5 C 22,8 C 14,5 km/h (3 Bft) 100,00 %
25.06.2019 09:30 23,8 C 24,4 C 35,0 C 69 % 1018,9 hPa 0,0 l/m 11,5 km/h (2 Bft) O-NO 61 2 min 0,000 mm 2,6 UV-I 633 W/m 17,8 C 22,5 C 14,5 km/h (3 Bft) 100,00 %
25.06.2019 09:32 23,9 C 24,4 C 34,4 C 70 % 1019,0 hPa 0,0 l/m 11,1 km/h (2 Bft) O-NO 58 2 min 0,000 mm 2,6 UV-I 638 W/m 18,1 C 22,7 C 16,1 km/h (3 Bft) 100,00 %
25.06.2019 09:34 23,9 C 24,4 C 33,9 C 70 % 1019,0 hPa 0,0 l/m 11,1 km/h (2 Bft) O-NO 72 2 min 0,000 mm 2,7 UV-I 642 W/m 18,1 C 22,7 C 16,1 km/h (3 Bft) 100,00 %
25.06.2019 09:36 23,8 C 24,4 C 33,9 C 68 % 1019,0 hPa 0,0 l/m 11,3 km/h (2 Bft) O-SO 113 2 min 0,000 mm 2,1 UV-I 648 W/m 17,5 C 22,6 C 16,1 km/h (3 Bft) 100,00 %
25.06.2019 09:38 23,8 C 24,4 C 33,9 C 67 % 1019,0 hPa 0,0 l/m 11,5 km/h (2 Bft) O-NO 75 2 min 0,000 mm 1,8 UV-I 652 W/m 17,3 C 22,5 C 16,1 km/h (3 Bft) 98,31 %
25.06.2019 09:40 23,7 C 24,4 C 33,9 C 67 % 1019,0 hPa 0,0 l/m 6,3 km/h (2 Bft) O 84 2 min 0,000 mm 1,8 UV-I 656 W/m 17,2 C 23,7 C 11,3 km/h (2 Bft) 100,00 %
25.06.2019 09:42 23,9 C 24,4 C 35,0 C 68 % 1019,0 hPa 0,0 l/m 11,5 km/h (2 Bft) O 80 2 min 0,000 mm 1,9 UV-I 662 W/m 17,6 C 22,6 C 16,1 km/h (3 Bft) 100,00 %
25.06.2019 09:44 23,9 C 24,4 C 35,0 C 67 % 1019,0 hPa 0,0 l/m 9,5 km/h (2 Bft) O-SO 107 2 min 0,000 mm 1,9 UV-I 666 W/m 17,4 C 23,1 C 14,5 km/h (3 Bft) 100,00 %
25.06.2019 09:46 24,1 C 24,4 C 35,6 C 68 % 1019,0 hPa 0,0 l/m 5,9 km/h (2 Bft) O-NO 69 2 min 0,000 mm 2,7 UV-I 669 W/m 17,8 C 24,1 C 9,7 km/h (2 Bft) 100,00 %
25.06.2019 09:48 24,4 C 24,4 C 36,1 C 68 % 1019,0 hPa 0,0 l/m 8,8 km/h (2 Bft) O-NO 75 2 min 0,000 mm 2,6 UV-I 674 W/m 18,1 C 23,8 C 17,7 km/h (3 Bft) 100,00 %
25.06.2019 09:50 24,5 C 24,4 C 36,1 C 66 % 1019,0 hPa 0,0 l/m 8,9 km/h (2 Bft) O-NO 68 2 min 0,000 mm 2,4 UV-I 680 W/m 17,7 C 23,9 C 16,1 km/h (3 Bft) 100,00 %
25.06.2019 09:52 24,6 C 24,4 C 36,1 C 67 % 1019,0 hPa 0,0 l/m 12,0 km/h (2 Bft) O-NO 76 2 min 0,000 mm 2,7 UV-I 685 W/m 18,1 C 23,3 C 17,7 km/h (3 Bft) 100,00 %
25.06.2019 09:54 24,6 C 24,4 C 35,6 C 68 % 1019,0 hPa 0,0 l/m 11,2 km/h (2 Bft) O-NO 59 2 min 0,000 mm 2,7 UV-I 688 W/m 18,3 C 23,5 C 17,7 km/h (3 Bft) 100,00 %
25.06.2019 09:56 24,6 C 24,4 C 35,0 C 66 % 1019,1 hPa 0,0 l/m 10,8 km/h (2 Bft) O-SO 103 2 min 0,000 mm 2,7 UV-I 692 W/m 17,8 C 23,6 C 16,1 km/h (3 Bft) 100,00 %
25.06.2019 09:58 24,6 C 24,4 C 35,6 C 67 % 1019,1 hPa 0,0 l/m 8,6 km/h (2 Bft) O-NO 68 2 min 0,000 mm 3,0 UV-I 696 W/m 18,1 C 24,0 C 16,1 km/h (3 Bft) 100,00 %
25.06.2019 10:00 24,7 C 24,4 C 35,6 C 69 % 1019,1 hPa 0,0 l/m 8,6 km/h (2 Bft) NO 37 2 min 0,432 mm 3,2 UV-I 700 W/m 18,6 C 24,1 C 11,3 km/h (2 Bft) 98,11 %
25.06.2019 10:02 24,8 C 24,4 C 35,6 C 66 % 1019,1 hPa 0,0 l/m 8,7 km/h (2 Bft) O 86 2 min 0,000 mm 3,3 UV-I 704 W/m 18,0 C 24,2 C 16,1 km/h (3 Bft) 98,00 %
25.06.2019 10:04 24,9 C 24,4 C 36,7 C 68 % 1019,1 hPa 0,0 l/m 7,7 km/h (2 Bft) NO 37 2 min 0,000 mm 3,3 UV-I 708 W/m 18,6 C 24,6 C 14,5 km/h (3 Bft) 97,87 %
25.06.2019 10:06 25,0 C 24,4 C 36,7 C 66 % 1019,1 hPa 0,0 l/m 7,0 km/h (2 Bft) O-NO 77 2 min 0,000 mm 3,4 UV-I 714 W/m 18,2 C 24,8 C 11,3 km/h (2 Bft) 97,22 %
25.06.2019 10:08 25,1 C 24,4 C 36,7 C 64 % 1019,1 hPa 0,0 l/m 11,6 km/h (2 Bft) O 88 2 min 0,000 mm 3,4 UV-I 716 W/m 17,8 C 24,0 C 16,1 km/h (3 Bft) 98,21 %
25.06.2019 10:10 25,1 C 24,4 C 36,7 C 65 % 1019,1 hPa 0,0 l/m 8,6 km/h (2 Bft) O-NO 63 2 min 0,000 mm 3,4 UV-I 721 W/m 18,0 C 24,6 C 16,1 km/h (3 Bft) 97,87 %
25.06.2019 10:12 25,2 C 24,4 C 37,2 C 68 % 1019,0 hPa 0,0 l/m 11,1 km/h (2 Bft) O-NO 66 2 min 0,000 mm 3,4 UV-I 723 W/m 18,9 C 24,2 C 19,3 km/h (3 Bft) 97,37 %
25.06.2019 10:14 25,4 C 24,4 C 37,2 C 67 % 1019,1 hPa 0,0 l/m 12,9 km/h (3 Bft) O 86 2 min 0,000 mm 3,2 UV-I 730 W/m 18,8 C 24,1 C 20,9 km/h (4 Bft) 96,23 %
25.06.2019 10:16 25,5 C 24,4 C 37,2 C 65 % 1019,1 hPa 0,0 l/m 11,8 km/h (2 Bft) O 94 2 min 0,000 mm 2,7 UV-I 733 W/m 18,4 C 24,4 C 16,1 km/h (3 Bft) 97,14 %
25.06.2019 10:18 25,5 C 24,4 C 37,8 C 66 % 1019,1 hPa 0,0 l/m 11,4 km/h (2 Bft) O-NO 61 2 min 0,000 mm 3,0 UV-I 737 W/m 18,7 C 24,5 C 17,7 km/h (3 Bft) 96,77 %
25.06.2019 10:20 25,7 C 24,4 C 37,2 C 66 % 1019,1 hPa 0,0 l/m 12,8 km/h (3 Bft) O-NO 61 2 min 0,000 mm 3,6 UV-I 740 W/m 18,9 C 24,5 C 22,5 km/h (4 Bft) 97,56 %
25.06.2019 10:22 25,7 C 25,0 C 36,7 C 64 % 1019,1 hPa 0,0 l/m 14,2 km/h (3 Bft) O-NO 73 2 min 0,000 mm 3,7 UV-I 745 W/m 18,4 C 24,3 C 22,5 km/h (4 Bft) 97,73 %
25.06.2019 10:24 25,7 C 25,0 C 36,7 C 65 % 1019,0 hPa 0,0 l/m 14,2 km/h (3 Bft) O-NO 58 2 min 0,000 mm 3,8 UV-I 750 W/m 18,6 C 24,3 C 19,3 km/h (3 Bft) 94,64 %
25.06.2019 10:26 25,6 C 25,0 C 35,6 C 65 % 1019,1 hPa 0,0 l/m 13,2 km/h (3 Bft) NO 53 2 min 0,000 mm 3,8 UV-I 752 W/m 18,5 C 24,3 C 20,9 km/h (4 Bft) 94,29 %
25.06.2019 10:28 25,6 C 25,0 C 35,6 C 66 % 1019,1 hPa 0,0 l/m 12,8 km/h (3 Bft) NO 55 2 min 0,000 mm 3,8 UV-I 755 W/m 18,8 C 24,4 C 17,7 km/h (3 Bft) 96,23 %
25.06.2019 10:30 25,7 C 25,0 C 36,7 C 65 % 1019,1 hPa 0,0 l/m 11,8 km/h (2 Bft) O-NO 62 2 min 0,000 mm 3,8 UV-I 759 W/m 18,6 C 24,6 C 20,9 km/h (4 Bft) 95,74 %
25.06.2019 10:32 25,8 C 25,0 C 37,2 C 63 % 1019,1 hPa 0,0 l/m 15,3 km/h (3 Bft) NO 53 2 min 0,000 mm 3,9 UV-I 765 W/m 18,2 C 24,2 C 19,3 km/h (3 Bft) 97,73 %
25.06.2019 10:34 25,8 C 25,0 C 36,7 C 63 % 1019,1 hPa 0,0 l/m 14,4 km/h (3 Bft) O 84 2 min 0,000 mm 3,1 UV-I 768 W/m 18,2 C 24,4 C 17,7 km/h (3 Bft) 97,87 %
25.06.2019 10:36 25,8 C 25,0 C 37,2 C 60 % 1019,1 hPa 0,0 l/m 15,2 km/h (3 Bft) O-NO 74 2 min 0,000 mm 4,0 UV-I 772 W/m 17,4 C 24,3 C 22,5 km/h (4 Bft) 96,43 %
25.06.2019 10:38 25,7 C 25,0 C 37,2 C 62 % 1019,1 hPa 0,0 l/m 12,5 km/h (3 Bft) O-SO 107 2 min 0,000 mm 4,1 UV-I 775 W/m 17,9 C 24,5 C 22,5 km/h (4 Bft) 97,56 %
25.06.2019 10:40 25,8 C 25,0 C 37,8 C 63 % 1019,1 hPa 0,0 l/m 9,5 km/h (2 Bft) O 88 2 min 0,000 mm 4,1 UV-I 778 W/m 18,2 C 25,1 C 14,5 km/h (3 Bft) 98,00 %
25.06.2019 10:42 25,9 C 25,0 C 38,3 C 63 % 1019,1 hPa 0,0 l/m 11,9 km/h (2 Bft) O 96 2 min 0,000 mm 4,1 UV-I 783 W/m 18,3 C 24,8 C 17,7 km/h (3 Bft) 94,87 %
25.06.2019 10:44 26,0 C 25,0 C 38,3 C 62 % 1019,1 hPa 0,0 l/m 14,2 km/h (3 Bft) O-SO 109 2 min 0,000 mm 4,2 UV-I 787 W/m 18,1 C 24,6 C 17,7 km/h (3 Bft) 98,00 %
25.06.2019 10:46 26,1 C 25,0 C 38,9 C 64 % 1019,1 hPa 0,0 l/m 7,1 km/h (2 Bft) O 81 2 min 0,000 mm 4,2 UV-I 789 W/m 18,7 C 25,9 C 14,5 km/h (3 Bft) 96,23 %
25.06.2019 10:48 26,2 C 25,0 C 38,9 C 64 % 1019,1 hPa 0,0 l/m 8,0 km/h (2 Bft) O-NO 67 2 min 0,000 mm 3,4 UV-I 792 W/m 18,8 C 25,9 C 16,1 km/h (3 Bft) 97,56 %
25.06.2019 10:50 26,3 C 25,0 C 37,8 C 64 % 1019,1 hPa 0,0 l/m 12,2 km/h (2 Bft) NO 39 2 min 0,000 mm 4,3 UV-I 795 W/m 18,9 C 25,3 C 20,9 km/h (4 Bft) 96,23 %
25.06.2019 10:52 26,3 C 25,0 C 37,8 C 61 % 1019,1 hPa 0,0 l/m 11,9 km/h (2 Bft) NO 43 2 min 0,000 mm 4,3 UV-I 799 W/m 18,2 C 25,3 C 16,1 km/h (3 Bft) 94,74 %
25.06.2019 10:54 26,3 C 25,0 C 38,3 C 60 % 1019,1 hPa 0,0 l/m 10,8 km/h (2 Bft) O 92 2 min 0,000 mm 4,4 UV-I 804 W/m 17,9 C 25,5 C 17,7 km/h (3 Bft) 94,64 %
25.06.2019 10:56 26,3 C 25,0 C 39,4 C 63 % 1019,2 hPa 0,0 l/m 6,5 km/h (2 Bft) O-SO 111 2 min 0,000 mm 4,4 UV-I 806 W/m 18,7 C 26,3 C 11,3 km/h (2 Bft) 94,74 %
25.06.2019 10:58 26,4 C 25,0 C 39,4 C 61 % 1019,2 hPa 0,0 l/m 11,8 km/h (2 Bft) O-NO 68 2 min 0,000 mm 4,5 UV-I 811 W/m 18,3 C 25,4 C 17,7 km/h (3 Bft) 96,23 %
25.06.2019 11:00 26,6 C 25,0 C 39,4 C 66 % 1019,2 hPa 0,0 l/m 9,5 km/h (2 Bft) O-SO 110 2 min 0,000 mm 4,4 UV-I 813 W/m 19,7 C 26,0 C 16,1 km/h (3 Bft) 97,73 %
25.06.2019 11:02 26,7 C 25,0 C 40,0 C 61 % 1019,2 hPa 0,0 l/m 8,5 km/h (2 Bft) NO 49 2 min 0,534 mm 4,5 UV-I 816 W/m 18,5 C 26,3 C 12,9 km/h (3 Bft) 95,45 %
25.06.2019 11:04 26,7 C 25,0 C 38,9 C 62 % 1019,2 hPa 0,0 l/m 11,7 km/h (2 Bft) NO 56 2 min 0,000 mm 4,6 UV-I 819 W/m 18,8 C 25,8 C 17,7 km/h (3 Bft) 95,74 %
25.06.2019 11:06 26,8 C 25,0 C 38,9 C 63 % 1019,1 hPa 0,0 l/m 12,3 km/h (3 Bft) O-NO 67 2 min 0,000 mm 4,6 UV-I 819 W/m 19,1 C 25,8 C 16,1 km/h (3 Bft) 96,23 %
25.06.2019 11:08 26,7 C 25,0 C 37,8 C 62 % 1019,2 hPa 0,0 l/m 12,1 km/h (2 Bft) NO 41 2 min 0,000 mm 4,7 UV-I 822 W/m 18,8 C 25,7 C 20,9 km/h (4 Bft) 97,87 %
25.06.2019 11:10 26,8 C 25,0 C 37,8 C 65 % 1019,2 hPa 0,0 l/m 10,4 km/h (2 Bft) NO 40 2 min 0,000 mm 4,6 UV-I 824 W/m 19,7 C 26,1 C 16,1 km/h (3 Bft) 97,56 %
25.06.2019 11:12 27,0 C 25,0 C 38,3 C 62 % 1019,2 hPa 0,0 l/m 10,5 km/h (2 Bft) NO 47 2 min 0,000 mm 4,8 UV-I 829 W/m 19,1 C 26,3 C 16,1 km/h (3 Bft) 98,11 %
25.06.2019 11:14 27,2 C 25,0 C 38,9 C 60 % 1019,2 hPa 0,0 l/m 13,8 km/h (3 Bft) O-NO 65 2 min 0,000 mm 4,8 UV-I 831 W/m 18,7 C 26,1 C 20,9 km/h (4 Bft) 97,37 %
25.06.2019 11:16 27,1 C 25,0 C 39,4 C 61 % 1019,2 hPa 0,0 l/m 12,0 km/h (2 Bft) O 80 2 min 0,000 mm 4,8 UV-I 834 W/m 18,9 C 26,2 C 17,7 km/h (3 Bft) 98,21 %
25.06.2019 11:18 27,2 C 25,0 C 40,0 C 61 % 1019,2 hPa 0,0 l/m 10,7 km/h (2 Bft) O-NO 60 2 min 0,000 mm 4,8 UV-I 835 W/m 19,0 C 26,5 C 20,9 km/h (4 Bft) 97,87 %
25.06.2019 11:20 27,2 C 25,0 C 39,4 C 57 % 1019,2 hPa 0,0 l/m 13,8 km/h (3 Bft) O-SO 103 2 min 0,000 mm 4,9 UV-I 840 W/m 17,9 C 26,1 C 19,3 km/h (3 Bft) 97,62 %
25.06.2019 11:22 27,1 C 25,0 C 39,4 C 59 % 1019,2 hPa 0,0 l/m 12,0 km/h (2 Bft) O-NO 59 2 min 0,000 mm 4,9 UV-I 843 W/m 18,4 C 26,2 C 20,9 km/h (4 Bft) 95,74 %
25.06.2019 11:24 27,2 C 25,0 C 39,4 C 58 % 1019,2 hPa 0,0 l/m 15,9 km/h (3 Bft) O 87 2 min 0,000 mm 5,0 UV-I 848 W/m 18,2 C 25,9 C 20,9 km/h (4 Bft) 98,00 %
25.06.2019 11:26 27,2 C 25,0 C 38,9 C 57 % 1019,2 hPa 0,0 l/m 15,1 km/h (3 Bft) O 88 2 min 0,000 mm 5,0 UV-I 850 W/m 17,9 C 26,0 C 22,5 km/h (4 Bft) 97,87 %
25.06.2019 11:28 27,2 C 25,0 C 38,9 C 59 % 1019,2 hPa 0,0 l/m 14,1 km/h (3 Bft) O 92 2 min 0,000 mm 5,0 UV-I 851 W/m 18,5 C 26,1 C 19,3 km/h (3 Bft) 97,87 %
25.06.2019 11:30 27,1 C 25,0 C 39,4 C 58 % 1019,2 hPa 0,0 l/m 11,6 km/h (2 Bft) O-NO 78 2 min 0,000 mm 5,1 UV-I 853 W/m 18,1 C 26,3 C 19,3 km/h (3 Bft) 97,87 %
25.06.2019 11:32 27,2 C 25,0 C 39,4 C 57 % 1019,1 hPa 0,0 l/m 11,6 km/h (2 Bft) O-NO 57 2 min 0,000 mm 5,1 UV-I 858 W/m 17,9 C 26,4 C 19,3 km/h (3 Bft) 97,37 %
25.06.2019 11:34 27,3 C 25,0 C 39,4 C 60 % 1019,2 hPa 0,0 l/m 14,6 km/h (3 Bft) O-SO 107 2 min 0,000 mm 5,2 UV-I 860 W/m 18,8 C 26,1 C 20,9 km/h (4 Bft) 95,74 %
25.06.2019 11:36 27,4 C 25,0 C 40,6 C 59 % 1019,2 hPa 0,0 l/m 9,1 km/h (2 Bft) O 96 2 min 0,000 mm 5,2 UV-I 861 W/m 18,7 C 26,9 C 14,5 km/h (3 Bft) 96,43 %
25.06.2019 11:38 27,6 C 25,0 C 40,6 C 58 % 1019,2 hPa 0,0 l/m 12,9 km/h (3 Bft) O-NO 66 2 min 0,000 mm 5,2 UV-I 861 W/m 18,6 C 26,7 C 19,3 km/h (3 Bft) 97,37 %
25.06.2019 11:40 27,6 C 25,0 C 40,6 C 58 % 1019,2 hPa 0,0 l/m 13,8 km/h (3 Bft) O-SO 105 2 min 0,000 mm 5,2 UV-I 867 W/m 18,6 C 26,6 C 19,3 km/h (3 Bft) 95,74 %
25.06.2019 11:42 27,6 C 25,0 C 40,6 C 58 % 1019,2 hPa 0,0 l/m 11,5 km/h (2 Bft) O 100 2 min 0,000 mm 5,3 UV-I 868 W/m 18,6 C 26,8 C 17,7 km/h (3 Bft) 96,00 %
25.06.2019 11:44 27,8 C 25,0 C 41,7 C 60 % 1019,2 hPa 0,0 l/m 6,4 km/h (2 Bft) O 80 2 min 0,000 mm 5,3 UV-I 868 W/m 19,3 C 27,8 C 11,3 km/h (2 Bft) 92,68 %
25.06.2019 11:46 28,0 C 25,0 C 41,7 C 62 % 1019,2 hPa 0,0 l/m 12,5 km/h (3 Bft) N-NO 29 2 min 0,000 mm 5,3 UV-I 869 W/m 20,0 C 27,2 C 22,5 km/h (4 Bft) 92,45 %
25.06.2019 11:48 27,9 C 25,0 C 40,0 C 61 % 1019,2 hPa 0,0 l/m 10,6 km/h (2 Bft) O-NO 61 2 min 0,000 mm 5,3 UV-I 870 W/m 19,7 C 27,3 C 16,1 km/h (3 Bft) 96,00 %
25.06.2019 11:50 27,8 C 25,0 C 39,4 C 62 % 1019,1 hPa 0,0 l/m 8,2 km/h (2 Bft) NO 53 2 min 0,000 mm 5,3 UV-I 871 W/m 19,8 C 27,5 C 16,1 km/h (3 Bft) 95,74 %
25.06.2019 11:52 27,9 C 25,0 C 40,0 C 64 % 1019,1 hPa 0,0 l/m 9,5 km/h (2 Bft) NO 54 2 min 0,000 mm 5,4 UV-I 873 W/m 20,4 C 27,4 C 14,5 km/h (3 Bft) 95,74 %
25.06.2019 11:54 28,1 C 25,0 C 40,0 C 59 % 1019,1 hPa 0,0 l/m 9,8 km/h (2 Bft) N-NO 29 2 min 0,000 mm 5,4 UV-I 873 W/m 19,3 C 27,6 C 17,7 km/h (3 Bft) 95,12 %
25.06.2019 11:56 28,1 C 25,0 C 38,9 C 59 % 1019,1 hPa 0,0 l/m 18,5 km/h (3 Bft) O-NO 61 2 min 0,000 mm 5,4 UV-I 846 W/m 19,3 C 26,8 C 27,4 km/h (4 Bft) 94,34 %
25.06.2019 11:58 28,1 C 25,0 C 38,9 C 57 % 1019,1 hPa 0,0 l/m 13,0 km/h (3 Bft) O 92 2 min 0,000 mm 5,5 UV-I 882 W/m 18,8 C 27,3 C 22,5 km/h (4 Bft) 97,73 %
25.06.2019 12:00 28,1 C 25,0 C 39,4 C 55 % 1019,1 hPa 0,0 l/m 12,7 km/h (3 Bft) O 82 2 min 0,635 mm 5,5 UV-I 884 W/m 18,2 C 27,3 C 19,3 km/h (3 Bft) 93,75 %
25.06.2019 12:02 28,1 C 25,0 C 39,4 C 55 % 1019,1 hPa 0,0 l/m 12,3 km/h (3 Bft) O 82 2 min 0,000 mm 5,5 UV-I 887 W/m 18,2 C 27,3 C 17,7 km/h (3 Bft) 97,87 %
25.06.2019 12:04 28,1 C 25,0 C 40,0 C 56 % 1019,1 hPa 0,0 l/m 13,6 km/h (3 Bft) O-NO 74 2 min 0,000 mm 5,6 UV-I 889 W/m 18,5 C 27,2 C 16,1 km/h (3 Bft) 97,56 %
25.06.2019 12:06 28,1 C 25,0 C 40,0 C 56 % 1019,1 hPa 0,0 l/m 8,5 km/h (2 Bft) O 95 2 min 0,000 mm 5,6 UV-I 889 W/m 18,5 C 27,8 C 17,7 km/h (3 Bft) 100,00 %
25.06.2019 12:08 28,2 C 25,0 C 40,6 C 56 % 1019,1 hPa 0,0 l/m 14,9 km/h (3 Bft) O 90 2 min 0,000 mm 5,6 UV-I 890 W/m 18,6 C 27,2 C 20,9 km/h (4 Bft) 100,00 %
25.06.2019 12:10 28,3 C 25,0 C 40,6 C 55 % 1019,1 hPa 0,0 l/m 15,4 km/h (3 Bft) O 101 2 min 0,000 mm 5,5 UV-I 892 W/m 18,4 C 27,3 C 24,1 km/h (4 Bft) 100,00 %
25.06.2019 12:12 28,3 C 25,0 C 41,1 C 57 % 1019,1 hPa 0,0 l/m 13,6 km/h (3 Bft) O 96 2 min 0,000 mm 5,7 UV-I 895 W/m 18,9 C 27,4 C 20,9 km/h (4 Bft) 100,00 %
25.06.2019 12:14 28,3 C 25,0 C 41,1 C 57 % 1019,1 hPa 0,0 l/m 14,6 km/h (3 Bft) O-SO 104 2 min 0,000 mm 5,7 UV-I 895 W/m 18,9 C 27,3 C 24,1 km/h (4 Bft) 100,00 %
25.06.2019 12:16 28,4 C 25,0 C 41,1 C 55 % 1019,1 hPa 0,0 l/m 13,6 km/h (3 Bft) O 90 2 min 0,000 mm 5,7 UV-I 896 W/m 18,5 C 27,5 C 19,3 km/h (3 Bft) 100,00 %
25.06.2019 12:18 28,5 C 25,0 C 41,7 C 56 % 1019,1 hPa 0,0 l/m 13,9 km/h (3 Bft) O 94 2 min 0,000 mm 5,7 UV-I 895 W/m 18,8 C 27,6 C 22,5 km/h (4 Bft) 98,11 %
25.06.2019 12:20 28,6 C 25,0 C 41,7 C 54 % 1019,2 hPa 0,0 l/m 12,4 km/h (3 Bft) O 80 2 min 0,000 mm 5,7 UV-I 896 W/m 18,4 C 27,9 C 19,3 km/h (3 Bft) 100,00 %
25.06.2019 12:22 28,5 C 25,0 C 41,1 C 59 % 1019,2 hPa 0,0 l/m 9,5 km/h (2 Bft) NO 40 2 min 0,000 mm 5,7 UV-I 896 W/m 19,7 C 28,1 C 12,9 km/h (3 Bft) 97,87 %
25.06.2019 12:24 28,6 C 25,0 C 41,7 C 55 % 1019,1 hPa 0,0 l/m 13,0 km/h (3 Bft) O 85 2 min 0,000 mm 5,8 UV-I 900 W/m 18,7 C 27,8 C 22,5 km/h (4 Bft) 96,00 %
25.06.2019 12:26 28,6 C 25,0 C 41,7 C 56 % 1019,2 hPa 0,0 l/m 11,9 km/h (2 Bft) O 88 2 min 0,000 mm 5,8 UV-I 901 W/m 18,9 C 27,9 C 17,7 km/h (3 Bft) 97,87 %
25.06.2019 12:28 28,7 C 25,0 C 41,7 C 57 % 1019,1 hPa 0,0 l/m 11,0 km/h (2 Bft) NO 38 2 min 0,000 mm 5,8 UV-I 903 W/m 19,3 C 28,1 C 17,7 km/h (3 Bft) 95,74 %
25.06.2019 12:30 28,8 C 25,0 C 40,6 C 58 % 1019,1 hPa 0,0 l/m 13,5 km/h (3 Bft) NO 51 2 min 0,000 mm 5,8 UV-I 904 W/m 19,7 C 28,0 C 19,3 km/h (3 Bft) 97,37 %
25.06.2019 12:32 28,8 C 25,0 C 40,6 C 60 % 1019,1 hPa 0,0 l/m 11,0 km/h (2 Bft) O-NO 74 2 min 0,000 mm 5,8 UV-I 904 W/m 20,2 C 28,3 C 17,7 km/h (3 Bft) 98,21 %
25.06.2019 12:34 28,8 C 25,6 C 41,1 C 57 % 1019,1 hPa 0,0 l/m 9,1 km/h (2 Bft) O-NO 63 2 min 0,000 mm 5,8 UV-I 901 W/m 19,4 C 28,5 C 12,9 km/h (3 Bft) 97,62 %
25.06.2019 12:36 28,9 C 25,6 C 42,2 C 60 % 1019,1 hPa 0,0 l/m 11,4 km/h (2 Bft) O-NO 57 2 min 0,000 mm 5,8 UV-I 900 W/m 20,3 C 28,3 C 16,1 km/h (3 Bft) 97,87 %
25.06.2019 12:38 29,1 C 25,6 C 41,7 C 58 % 1019,1 hPa 0,0 l/m 9,7 km/h (2 Bft) O 81 2 min 0,000 mm 5,9 UV-I 904 W/m 20,0 C 28,7 C 20,9 km/h (4 Bft) 97,73 %
25.06.2019 12:40 29,0 C 25,6 C 42,2 C 54 % 1019,1 hPa 0,0 l/m 11,0 km/h (2 Bft) O 86 2 min 0,000 mm 5,9 UV-I 907 W/m 18,7 C 28,5 C 19,3 km/h (3 Bft) 97,87 %
25.06.2019 12:42 29,1 C 25,6 C 42,2 C 55 % 1019,1 hPa 0,0 l/m 14,7 km/h (3 Bft) O 101 2 min 0,000 mm 5,8 UV-I 905 W/m 19,1 C 28,3 C 25,7 km/h (4 Bft) 96,00 %
25.06.2019 12:44 28,9 C 25,6 C 42,2 C 54 % 1019,1 hPa 0,0 l/m 9,4 km/h (2 Bft) O 87 2 min 0,000 mm 5,8 UV-I 904 W/m 18,6 C 28,5 C 14,5 km/h (3 Bft) 97,73 %
25.06.2019 12:46 29,1 C 25,6 C 42,8 C 58 % 1019,1 hPa 0,0 l/m 6,8 km/h (2 Bft) NO 38 2 min 0,000 mm 5,9 UV-I 905 W/m 20,0 C 29,1 C 11,3 km/h (2 Bft) 97,73 %
25.06.2019 12:48 29,3 C 25,6 C 42,2 C 61 % 1019,1 hPa 0,0 l/m 12,0 km/h (2 Bft) N 5 2 min 0,000 mm 5,9 UV-I 905 W/m 21,0 C 28,7 C 19,3 km/h (3 Bft) 98,31 %
25.06.2019 12:50 29,3 C 25,6 C 41,1 C 59 % 1019,0 hPa 0,0 l/m 14,5 km/h (3 Bft) NO 34 2 min 0,000 mm 5,9 UV-I 909 W/m 20,4 C 28,6 C 20,9 km/h (4 Bft) 97,73 %
25.06.2019 12:52 29,1 C 25,6 C 41,1 C 59 % 1019,1 hPa 0,0 l/m 7,8 km/h (2 Bft) O 101 2 min 0,000 mm 5,9 UV-I 910 W/m 20,2 C 28,9 C 12,9 km/h (3 Bft) 94,74 %
25.06.2019 12:54 29,3 C 25,6 C 42,2 C 58 % 1019,0 hPa 0,0 l/m 12,7 km/h (3 Bft) O 88 2 min 0,000 mm 5,9 UV-I 909 W/m 20,2 C 28,7 C 19,3 km/h (3 Bft) 97,87 %
25.06.2019 12:56 29,3 C 25,6 C 42,8 C 56 % 1019,1 hPa 0,0 l/m 8,9 km/h (2 Bft) NO 53 2 min 0,000 mm 5,9 UV-I 907 W/m 19,6 C 29,0 C 12,9 km/h (3 Bft) 98,21 %
25.06.2019 12:58 29,5 C 25,6 C 42,2 C 58 % 1019,1 hPa 0,0 l/m 13,2 km/h (3 Bft) NO 49 2 min 0,000 mm 5,9 UV-I 905 W/m 20,3 C 28,9 C 24,1 km/h (4 Bft) 97,73 %
25.06.2019 13:00 29,4 C 25,6 C 40,6 C 55 % 1019,1 hPa 0,0 l/m 12,4 km/h (3 Bft) O-NO 57 2 min 0,685 mm 5,9 UV-I 905 W/m 19,4 C 28,8 C 19,3 km/h (3 Bft) 97,73 %
25.06.2019 13:02 29,3 C 25,6 C 41,1 C 58 % 1019,1 hPa 0,0 l/m 13,5 km/h (3 Bft) NO 49 2 min 0,000 mm 5,9 UV-I 906 W/m 20,2 C 28,6 C 19,3 km/h (3 Bft) 100,00 %
25.06.2019 13:04 29,4 C 25,6 C 41,7 C 52 % 1019,1 hPa 0,0 l/m 14,4 km/h (3 Bft) O 82 2 min 0,000 mm 6,0 UV-I 911 W/m 18,5 C 28,7 C 19,3 km/h (3 Bft) 100,00 %
25.06.2019 13:06 29,3 C 25,6 C 41,7 C 53 % 1019,1 hPa 0,0 l/m 8,4 km/h (2 Bft) O 89 2 min 0,000 mm 5,9 UV-I 907 W/m 18,7 C 29,1 C 16,1 km/h (3 Bft) 100,00 %
25.06.2019 13:08 29,3 C 25,6 C 41,7 C 52 % 1019,1 hPa 0,0 l/m 8,3 km/h (2 Bft) NO 55 2 min 0,000 mm 5,9 UV-I 909 W/m 18,4 C 29,1 C 14,5 km/h (3 Bft) 100,00 %
25.06.2019 13:10 29,4 C 25,6 C 41,7 C 55 % 1019,1 hPa 0,0 l/m 8,3 km/h (2 Bft) O-NO 67 2 min 0,000 mm 5,5 UV-I 910 W/m 19,4 C 29,2 C 14,5 km/h (3 Bft) 98,00 %
25.06.2019 13:12 29,3 C 25,6 C 41,7 C 53 % 1019,1 hPa 0,0 l/m 6,6 km/h (2 Bft) O 85 2 min 0,000 mm 5,7 UV-I 906 W/m 18,7 C 29,3 C 11,3 km/h (2 Bft) 100,00 %
25.06.2019 13:14 29,6 C 25,6 C 41,7 C 55 % 1019,0 hPa 0,0 l/m 7,8 km/h (2 Bft) O 81 2 min 0,000 mm 5,9 UV-I 904 W/m 19,6 C 29,5 C 12,9 km/h (3 Bft) 100,00 %
25.06.2019 13:16 29,7 C 25,6 C 42,8 C 56 % 1019,1 hPa 0,0 l/m 10,0 km/h (2 Bft) O 89 2 min 0,000 mm 5,9 UV-I 906 W/m 20,0 C 29,4 C 19,3 km/h (3 Bft) 97,22 %
25.06.2019 13:18 29,6 C 25,6 C 41,7 C 58 % 1019,1 hPa 0,0 l/m 11,5 km/h (2 Bft) NO 49 2 min 0,000 mm 5,9 UV-I 901 W/m 20,4 C 29,1 C 17,7 km/h (3 Bft) 98,33 %
25.06.2019 13:20 29,5 C 25,6 C 40,6 C 56 % 1019,1 hPa 0,0 l/m 13,1 km/h (3 Bft) O-NO 60 2 min 0,000 mm 5,9 UV-I 900 W/m 19,8 C 28,9 C 22,5 km/h (4 Bft) 97,56 %
25.06.2019 13:22 29,4 C 25,6 C 40,6 C 58 % 1019,1 hPa 0,0 l/m 13,5 km/h (3 Bft) O 80 2 min 0,000 mm 5,9 UV-I 900 W/m 20,3 C 28,7 C 20,9 km/h (4 Bft) 98,00 %
25.06.2019 13:24 29,4 C 25,6 C 40,6 C 54 % 1019,0 hPa 0,0 l/m 12,1 km/h (2 Bft) N 355 2 min 0,000 mm 5,9 UV-I 905 W/m 19,1 C 28,8 C 17,7 km/h (3 Bft) 97,56 %
25.06.2019 13:26 29,6 C 25,6 C 41,1 C 58 % 1019,0 hPa 0,0 l/m 16,4 km/h (3 Bft) O-NO 59 2 min 0,000 mm 5,8 UV-I 901 W/m 20,4 C 28,8 C 22,5 km/h (4 Bft) 98,00 %
25.06.2019 13:28 29,5 C 25,6 C 40,6 C 55 % 1019,1 hPa 0,0 l/m 11,7 km/h (2 Bft) O 88 2 min 0,000 mm 5,8 UV-I 895 W/m 19,5 C 29,0 C 17,7 km/h (3 Bft) 98,00 %
25.06.2019 13:30 29,6 C 25,6 C 41,1 C 58 % 1019,0 hPa 0,0 l/m 15,0 km/h (3 Bft) O-SO 103 2 min 0,000 mm 5,8 UV-I 896 W/m 20,4 C 28,9 C 20,9 km/h (4 Bft) 97,73 %
25.06.2019 13:32 29,6 C 25,6 C 41,7 C 59 % 1019,1 hPa 0,0 l/m 11,1 km/h (2 Bft) NO 34 2 min 0,000 mm 5,9 UV-I 899 W/m 20,7 C 29,2 C 17,7 km/h (3 Bft) 98,00 %
25.06.2019 13:34 29,7 C 25,6 C 42,2 C 57 % 1019,1 hPa 0,0 l/m 13,3 km/h (3 Bft) O-NO 59 2 min 0,000 mm 5,8 UV-I 898 W/m 20,2 C 29,1 C 19,3 km/h (3 Bft) 96,00 %
25.06.2019 13:36 29,7 C 25,6 C 40,6 C 59 % 1019,1 hPa 0,0 l/m 15,5 km/h (3 Bft) NO 53 2 min 0,000 mm 5,8 UV-I 899 W/m 20,8 C 29,0 C 20,9 km/h (4 Bft) 97,14 %
25.06.2019 13:39 29,6 C 25,6 C 41,1 C 57 % 1019,0 hPa 0,0 l/m 13,6 km/h (3 Bft) N-NO 26 3 min 0,000 mm 5,9 UV-I 904 W/m 20,2 C 29,0 C 20,9 km/h (4 Bft) 97,59 %
25.06.2019 13:40 29,7 C 25,6 C 41,7 C 57 % 1019,0 hPa 0,0 l/m 7,1 km/h (2 Bft) N-NO 25 1 min 0,000 mm 5,8 UV-I 902 W/m 20,2 C 29,6 C 12,9 km/h (3 Bft) 92,86 %
25.06.2019 13:42 29,8 C 25,6 C 41,7 C 58 % 1019,0 hPa 0,0 l/m 14,9 km/h (3 Bft) O-NO 75 2 min 0,000 mm 5,8 UV-I 899 W/m 20,6 C 29,1 C 22,5 km/h (4 Bft) 97,87 %
25.06.2019 13:44 29,7 C 25,6 C 40,6 C 56 % 1019,0 hPa 0,0 l/m 13,3 km/h (3 Bft) NO 53 2 min 0,000 mm 5,8 UV-I 898 W/m 20,0 C 29,1 C 20,9 km/h (4 Bft) 98,00 %
25.06.2019 13:46 29,7 C 25,6 C 41,1 C 54 % 1019,0 hPa 0,0 l/m 13,8 km/h (3 Bft) O-NO 71 2 min 0,000 mm 5,8 UV-I 896 W/m 19,4 C 29,1 C 19,3 km/h (3 Bft) 95,74 %
25.06.2019 13:48 29,7 C 25,6 C 41,1 C 53 % 1019,0 hPa 0,0 l/m 15,1 km/h (3 Bft) O-SO 103 2 min 0,000 mm 5,8 UV-I 895 W/m 19,1 C 29,0 C 20,9 km/h (4 Bft) 95,74 %
25.06.2019 13:50 29,9 C 25,6 C 41,7 C 55 % 1019,0 hPa 0,0 l/m 13,4 km/h (3 Bft) NO 42 2 min 0,000 mm 5,8 UV-I 894 W/m 19,9 C 29,3 C 19,3 km/h (3 Bft) 97,62 %
25.06.2019 13:52 29,9 C 26,1 C 41,1 C 57 % 1018,9 hPa 0,0 l/m 14,6 km/h (3 Bft) NO 51 2 min 0,000 mm 5,8 UV-I 894 W/m 20,4 C 29,3 C 19,3 km/h (3 Bft) 96,15 %
25.06.2019 13:54 29,9 C 25,6 C 40,6 C 57 % 1019,0 hPa 0,0 l/m 15,5 km/h (3 Bft) NO 44 2 min 0,000 mm 5,7 UV-I 893 W/m 20,4 C 29,2 C 22,5 km/h (4 Bft) 100,00 %
25.06.2019 13:56 29,8 C 26,1 C 40,0 C 56 % 1019,0 hPa 0,0 l/m 16,1 km/h (3 Bft) NO 44 2 min 0,000 mm 5,7 UV-I 888 W/m 20,1 C 29,1 C 20,9 km/h (4 Bft) 100,00 %
25.06.2019 13:59 29,7 C 26,1 C 39,4 C 58 % 1018,9 hPa 0,0 l/m 15,3 km/h (3 Bft) NO 38 3 min 0,000 mm 5,7 UV-I 886 W/m 20,5 C 29,0 C 22,5 km/h (4 Bft) 97,26 %
25.06.2019 14:00 29,7 C 26,1 C 39,4 C 57 % 1018,9 hPa 0,0 l/m 13,0 km/h (3 Bft) NO 51 1 min 0,686 mm 5,7 UV-I 888 W/m 20,2 C 29,1 C 17,7 km/h (3 Bft) 100,00 %
25.06.2019 14:02 29,7 C 26,1 C 39,4 C 56 % 1018,9 hPa 0,0 l/m 11,5 km/h (2 Bft) NO 40 2 min 0,000 mm 5,7 UV-I 888 W/m 20,0 C 29,2 C 19,3 km/h (3 Bft) 100,00 %
25.06.2019 14:04 29,8 C 26,1 C 40,6 C 58 % 1018,9 hPa 0,0 l/m 10,8 km/h (2 Bft) O-NO 62 2 min 0,000 mm 5,7 UV-I 886 W/m 20,6 C 29,4 C 17,7 km/h (3 Bft) 100,00 %
25.06.2019 14:06 30,1 C 26,1 C 41,7 C 56 % 1018,9 hPa 0,0 l/m 10,5 km/h (2 Bft) NO 38 2 min 0,000 mm 5,6 UV-I 883 W/m 20,3 C 29,8 C 16,1 km/h (3 Bft) 100,00 %
25.06.2019 14:08 30,3 C 26,1 C 42,2 C 58 % 1018,9 hPa 0,0 l/m 9,4 km/h (2 Bft) O-NO 73 2 min 0,000 mm 5,6 UV-I 881 W/m 21,1 C 30,1 C 16,1 km/h (3 Bft) 100,00 %
25.06.2019 14:10 30,4 C 26,1 C 40,6 C 56 % 1018,9 hPa 0,0 l/m 18,5 km/h (3 Bft) NO 40 2 min 0,000 mm 5,6 UV-I 882 W/m 20,6 C 29,7 C 27,4 km/h (4 Bft) 95,74 %
25.06.2019 14:12 30,1 C 26,1 C 38,9 C 57 % 1018,9 hPa 0,0 l/m 17,9 km/h (3 Bft) N-NO 24 2 min 0,000 mm 5,5 UV-I 875 W/m 20,6 C 29,3 C 24,1 km/h (4 Bft) 100,00 %
25.06.2019 14:14 30,0 C 26,1 C 39,4 C 58 % 1018,9 hPa 0,0 l/m 13,9 km/h (3 Bft) O-NO 68 2 min 0,000 mm 5,2 UV-I 871 W/m 20,8 C 29,4 C 20,9 km/h (4 Bft) 100,00 %
25.06.2019 14:16 29,9 C 26,1 C 38,9 C 56 % 1018,9 hPa 0,0 l/m 11,0 km/h (2 Bft) O-NO 65 2 min 0,000 mm 5,4 UV-I 870 W/m 20,1 C 29,5 C 16,1 km/h (3 Bft) 98,11 %
25.06.2019 14:18 30,1 C 26,1 C 40,0 C 57 % 1018,9 hPa 0,0 l/m 12,3 km/h (3 Bft) O-NO 78 2 min 0,000 mm 5,4 UV-I 867 W/m 20,6 C 29,6 C 16,1 km/h (3 Bft) 100,00 %
25.06.2019 14:20 30,2 C 26,1 C 40,0 C 54 % 1018,9 hPa 0,0 l/m 13,5 km/h (3 Bft) NO 46 2 min 0,000 mm 4,5 UV-I 865 W/m 19,8 C 29,7 C 20,9 km/h (4 Bft) 97,37 %
25.06.2019 14:22 30,3 C 26,1 C 41,1 C 58 % 1018,9 hPa 0,0 l/m 8,3 km/h (2 Bft) O-NO 74 2 min 0,000 mm 5,4 UV-I 856 W/m 21,1 C 30,1 C 12,9 km/h (3 Bft) 97,73 %
25.06.2019 14:24 30,6 C 26,1 C 41,7 C 54 % 1018,9 hPa 0,0 l/m 10,3 km/h (2 Bft) N-NO 22 2 min 0,000 mm 5,4 UV-I 865 W/m 20,2 C 30,3 C 14,5 km/h (3 Bft) 98,00 %
25.06.2019 14:26 30,5 C 26,1 C 40,6 C 54 % 1018,8 hPa 0,0 l/m 14,7 km/h (3 Bft) NO 52 2 min 0,000 mm 5,4 UV-I 864 W/m 20,1 C 30,0 C 20,9 km/h (4 Bft) 94,34 %
25.06.2019 14:28 30,4 C 26,1 C 40,6 C 55 % 1018,8 hPa 0,0 l/m 15,9 km/h (3 Bft) NO 34 2 min 0,000 mm 5,3 UV-I 861 W/m 20,3 C 29,8 C 20,9 km/h (4 Bft) 96,30 %
25.06.2019 14:30 30,3 C 26,1 C 40,0 C 57 % 1018,8 hPa 0,0 l/m 10,9 km/h (2 Bft) NO 36 2 min 0,000 mm 5,3 UV-I 858 W/m 20,8 C 30,0 C 17,7 km/h (3 Bft) 94,92 %
25.06.2019 14:32 30,5 C 26,1 C 41,1 C 53 % 1018,9 hPa 0,0 l/m 10,9 km/h (2 Bft) NO 40 2 min 0,000 mm 5,2 UV-I 854 W/m 19,8 C 30,2 C 17,7 km/h (3 Bft) 94,34 %
25.06.2019 14:34 30,6 C 26,1 C 41,1 C 57 % 1018,8 hPa 0,0 l/m 13,1 km/h (3 Bft) O-NO 59 2 min 0,000 mm 5,2 UV-I 851 W/m 21,1 C 30,2 C 19,3 km/h (3 Bft) 97,56 %
25.06.2019 14:36 30,4 C 26,1 C 40,6 C 56 % 1018,9 hPa 0,0 l/m 11,7 km/h (2 Bft) O-NO 61 2 min 0,000 mm 5,2 UV-I 850 W/m 20,6 C 30,0 C 16,1 km/h (3 Bft) 92,86 %
25.06.2019 14:38 30,4 C 26,1 C 40,6 C 55 % 1018,8 hPa 0,0 l/m 12,1 km/h (2 Bft) NO 42 2 min 0,000 mm 5,2 UV-I 847 W/m 20,3 C 30,0 C 16,1 km/h (3 Bft) 94,29 %
25.06.2019 14:40 30,4 C 26,1 C 41,1 C 57 % 1018,9 hPa 0,0 l/m 10,3 km/h (2 Bft) NO 41 2 min 0,000 mm 5,1 UV-I 843 W/m 20,9 C 30,1 C 14,5 km/h (3 Bft) 94,34 %
25.06.2019 14:42 30,5 C 26,1 C 41,1 C 54 % 1018,8 hPa 0,0 l/m 15,0 km/h (3 Bft) O-NO 73 2 min 0,000 mm 5,0 UV-I 836 W/m 20,1 C 30,0 C 20,9 km/h (4 Bft) 94,00 %
25.06.2019 14:44 30,6 C 26,1 C 40,6 C 55 % 1018,8 hPa 0,0 l/m 14,8 km/h (3 Bft) O-NO 59 2 min 0,000 mm 5,0 UV-I 833 W/m 20,5 C 30,1 C 22,5 km/h (4 Bft) 94,00 %
25.06.2019 14:46 30,6 C 26,1 C 40,0 C 56 % 1018,8 hPa 0,0 l/m 18,3 km/h (3 Bft) O-NO 57 2 min 0,000 mm 5,0 UV-I 831 W/m 20,8 C 30,0 C 24,1 km/h (4 Bft) 95,74 %
25.06.2019 14:48 30,7 C 26,1 C 41,1 C 55 % 1018,8 hPa 0,0 l/m 14,4 km/h (3 Bft) O-SO 105 2 min 0,000 mm 4,9 UV-I 830 W/m 20,6 C 30,2 C 20,9 km/h (4 Bft) 95,12 %
25.06.2019 14:50 30,7 C 26,1 C 41,1 C 53 % 1018,8 hPa 0,0 l/m 16,1 km/h (3 Bft) O 95 2 min 0,000 mm 4,9 UV-I 827 W/m 20,0 C 30,2 C 22,5 km/h (4 Bft) 95,74 %
25.06.2019 14:52 30,8 C 26,1 C 41,7 C 56 % 1018,8 hPa 0,0 l/m 15,0 km/h (3 Bft) NO 51 2 min 0,000 mm 4,9 UV-I 824 W/m 21,0 C 30,3 C 20,9 km/h (4 Bft) 94,34 %
25.06.2019 14:54 30,8 C 26,1 C 40,6 C 55 % 1018,8 hPa 0,0 l/m 14,4 km/h (3 Bft) O-NO 61 2 min 0,000 mm 4,9 UV-I 822 W/m 20,7 C 30,4 C 19,3 km/h (3 Bft) 97,37 %
25.06.2019 14:56 30,7 C 26,1 C 41,1 C 55 % 1018,9 hPa 0,0 l/m 13,4 km/h (3 Bft) O-NO 72 2 min 0,000 mm 4,8 UV-I 818 W/m 20,6 C 30,3 C 19,3 km/h (3 Bft) 94,34 %
25.06.2019 14:58 30,8 C 26,1 C 41,7 C 52 % 1018,8 hPa 0,0 l/m 13,5 km/h (3 Bft) O-SO 105 2 min 0,000 mm 4,8 UV-I 818 W/m 19,8 C 30,4 C 20,9 km/h (4 Bft) 89,36 %
25.06.2019 15:00 30,8 C 26,1 C 42,8 C 51 % 1018,8 hPa 0,0 l/m 9,2 km/h (2 Bft) O-NO 74 2 min 0,661 mm 4,8 UV-I 816 W/m 19,5 C 30,6 C 12,9 km/h (3 Bft) 100,00 %
25.06.2019 15:02 31,0 C 26,1 C 43,3 C 52 % 1018,8 hPa 0,0 l/m 13,8 km/h (3 Bft) O-SO 108 2 min 0,000 mm 4,7 UV-I 812 W/m 20,0 C 30,6 C 19,3 km/h (3 Bft) 94,03 %
25.06.2019 15:04 31,3 C 26,1 C 43,3 C 53 % 1018,8 hPa 0,0 l/m 13,4 km/h (3 Bft) O 83 2 min 0,000 mm 4,6 UV-I 802 W/m 20,5 C 31,0 C 19,3 km/h (3 Bft) 97,87 %
25.06.2019 15:06 31,4 C 26,1 C 42,8 C 51 % 1018,8 hPa 0,0 l/m 10,7 km/h (2 Bft) O 84 2 min 0,000 mm 4,6 UV-I 798 W/m 20,0 C 31,2 C 17,7 km/h (3 Bft) 95,24 %
25.06.2019 15:08 31,4 C 26,1 C 43,3 C 52 % 1018,8 hPa 0,0 l/m 9,5 km/h (2 Bft) N-NO 15 2 min 0,000 mm 4,6 UV-I 794 W/m 20,3 C 31,3 C 14,5 km/h (3 Bft) 100,00 %
25.06.2019 15:10 31,4 C 26,1 C 43,3 C 52 % 1018,8 hPa 0,0 l/m 14,6 km/h (3 Bft) O-NO 74 2 min 0,000 mm 4,5 UV-I 788 W/m 20,3 C 31,1 C 22,5 km/h (4 Bft) 97,56 %
25.06.2019 15:12 31,3 C 26,1 C 43,3 C 56 % 1018,8 hPa 0,0 l/m 10,1 km/h (2 Bft) NO 34 2 min 0,000 mm 4,4 UV-I 783 W/m 21,4 C 31,1 C 16,1 km/h (3 Bft) 96,77 %
25.06.2019 15:14 31,2 C 26,1 C 42,2 C 54 % 1018,8 hPa 0,0 l/m 11,0 km/h (2 Bft) NO 44 2 min 0,000 mm 4,4 UV-I 781 W/m 20,8 C 31,0 C 16,1 km/h (3 Bft) 97,37 %
25.06.2019 15:16 31,3 C 26,1 C 42,2 C 55 % 1018,8 hPa 0,0 l/m 12,5 km/h (3 Bft) O 86 2 min 0,000 mm 4,3 UV-I 775 W/m 21,2 C 31,0 C 19,3 km/h (3 Bft) 98,00 %
25.06.2019 15:19 31,4 C 26,1 C 43,3 C 51 % 1018,8 hPa 0,0 l/m 11,7 km/h (2 Bft) O-SO 103 3 min 0,000 mm 4,3 UV-I 772 W/m 20,0 C 31,2 C 16,1 km/h (3 Bft) 97,01 %
25.06.2019 15:20 31,4 C 26,1 C 43,3 C 50 % 1018,8 hPa 0,0 l/m 13,8 km/h (3 Bft) O-SO 114 1 min 0,000 mm 4,4 UV-I 779 W/m 19,7 C 31,1 C 19,3 km/h (3 Bft) 96,30 %
25.06.2019 15:22 31,5 C 26,1 C 43,9 C 51 % 1018,7 hPa 0,0 l/m 11,6 km/h (2 Bft) NO 55 2 min 0,000 mm 4,4 UV-I 781 W/m 20,1 C 31,3 C 17,7 km/h (3 Bft) 95,74 %
25.06.2019 15:24 31,6 C 26,1 C 43,9 C 51 % 1018,7 hPa 0,0 l/m 11,5 km/h (2 Bft) O-NO 71 2 min 0,000 mm 4,3 UV-I 778 W/m 20,2 C 31,4 C 17,7 km/h (3 Bft) 97,87 %
25.06.2019 15:26 31,6 C 26,1 C 42,8 C 51 % 1018,7 hPa 0,0 l/m 14,2 km/h (3 Bft) O-NO 66 2 min 0,000 mm 4,3 UV-I 775 W/m 20,2 C 31,3 C 22,5 km/h (4 Bft) 94,74 %
25.06.2019 15:28 31,7 C 26,1 C 42,8 C 54 % 1018,7 hPa 0,0 l/m 10,9 km/h (2 Bft) O-NO 74 2 min 0,000 mm 4,2 UV-I 768 W/m 21,2 C 31,5 C 17,7 km/h (3 Bft) 96,43 %
25.06.2019 15:30 31,5 C 26,1 C 41,1 C 51 % 1018,7 hPa 0,0 l/m 15,7 km/h (3 Bft) NO 51 2 min 0,000 mm 4,1 UV-I 761 W/m 20,1 C 31,2 C 22,5 km/h (4 Bft) 97,87 %
25.06.2019 15:32 31,3 C 26,1 C 40,6 C 52 % 1018,7 hPa 0,0 l/m 13,2 km/h (3 Bft) NO 47 2 min 0,000 mm 4,1 UV-I 758 W/m 20,2 C 31,0 C 20,9 km/h (4 Bft) 97,73 %
25.06.2019 15:34 31,2 C 26,1 C 40,6 C 53 % 1018,7 hPa 0,0 l/m 13,1 km/h (3 Bft) O-NO 57 2 min 0,000 mm 4,0 UV-I 748 W/m 20,5 C 30,9 C 22,5 km/h (4 Bft) 97,73 %
25.06.2019 15:36 31,4 C 26,1 C 42,2 C 52 % 1018,7 hPa 0,0 l/m 10,0 km/h (2 Bft) NO 54 2 min 0,000 mm 4,0 UV-I 743 W/m 20,3 C 31,2 C 16,1 km/h (3 Bft) 98,11 %
25.06.2019 15:38 31,7 C 26,7 C 42,8 C 48 % 1018,6 hPa 0,0 l/m 11,3 km/h (2 Bft) O 86 2 min 0,000 mm 3,3 UV-I 744 W/m 19,3 C 31,5 C 16,1 km/h (3 Bft) 100,00 %
25.06.2019 15:40 31,7 C 26,1 C 43,3 C 49 % 1018,6 hPa 0,0 l/m 8,3 km/h (2 Bft) O 82 2 min 0,000 mm 3,9 UV-I 742 W/m 19,6 C 31,6 C 14,5 km/h (3 Bft) 100,00 %
25.06.2019 15:42 31,8 C 26,7 C 43,9 C 52 % 1018,6 hPa 0,0 l/m 8,0 km/h (2 Bft) O-NO 63 2 min 0,000 mm 3,9 UV-I 738 W/m 20,7 C 31,7 C 17,7 km/h (3 Bft) 100,00 %
25.06.2019 15:44 31,8 C 26,7 C 43,9 C 50 % 1018,6 hPa 0,0 l/m 11,8 km/h (2 Bft) O-SO 116 2 min 0,000 mm 3,9 UV-I 736 W/m 20,1 C 31,6 C 19,3 km/h (3 Bft) 100,00 %
25.06.2019 15:46 31,8 C 26,7 C 42,8 C 49 % 1018,6 hPa 0,0 l/m 14,8 km/h (3 Bft) O-NO 69 2 min 0,000 mm 3,8 UV-I 730 W/m 19,7 C 31,6 C 22,5 km/h (4 Bft) 100,00 %
25.06.2019 15:49 31,7 C 26,7 C 42,8 C 49 % 1018,6 hPa 0,0 l/m 12,3 km/h (3 Bft) O-SO 103 3 min 0,000 mm 3,7 UV-I 726 W/m 19,6 C 31,5 C 17,7 km/h (3 Bft) 98,57 %
25.06.2019 15:50 31,7 C 26,7 C 42,8 C 49 % 1018,6 hPa 0,0 l/m 10,9 km/h (2 Bft) O 95 1 min 0,000 mm 3,7 UV-I 720 W/m 19,6 C 31,5 C 16,1 km/h (3 Bft) 100,00 %
25.06.2019 15:52 31,7 C 26,7 C 42,2 C 51 % 1018,6 hPa 0,0 l/m 13,6 km/h (3 Bft) NO 51 2 min 0,000 mm 3,7 UV-I 715 W/m 20,3 C 31,5 C 20,9 km/h (4 Bft) 98,00 %
25.06.2019 15:54 31,6 C 26,7 C 42,2 C 51 % 1018,6 hPa 0,0 l/m 9,3 km/h (2 Bft) O-NO 74 2 min 0,000 mm 3,6 UV-I 710 W/m 20,2 C 31,5 C 16,1 km/h (3 Bft) 100,00 %
25.06.2019 15:56 31,6 C 26,7 C 42,8 C 52 % 1018,6 hPa 0,0 l/m 12,6 km/h (3 Bft) O 86 2 min 0,000 mm 3,6 UV-I 707 W/m 20,5 C 31,4 C 19,3 km/h (3 Bft) 100,00 %
25.06.2019 15:58 31,8 C 26,7 C 43,3 C 51 % 1018,6 hPa 0,0 l/m 8,7 km/h (2 Bft) O-NO 78 2 min 0,000 mm 3,5 UV-I 701 W/m 20,4 C 31,7 C 12,9 km/h (3 Bft) 98,00 %
25.06.2019 16:00 31,9 C 26,7 C 42,8 C 50 % 1018,6 hPa 0,0 l/m 12,5 km/h (3 Bft) O-NO 68 2 min 0,609 mm 3,4 UV-I 694 W/m 20,2 C 31,7 C 22,5 km/h (4 Bft) 100,00 %
25.06.2019 16:02 31,9 C 26,7 C 42,8 C 54 % 1018,5 hPa 0,0 l/m 14,8 km/h (3 Bft) NO 46 2 min 0,000 mm 3,4 UV-I 691 W/m 21,4 C 31,7 C 20,9 km/h (4 Bft) 100,00 %
25.06.2019 16:04 31,9 C 26,7 C 42,2 C 54 % 1018,5 hPa 0,0 l/m 12,9 km/h (3 Bft) NO 46 2 min 0,000 mm 3,4 UV-I 691 W/m 21,4 C 31,7 C 17,7 km/h (3 Bft) 100,00 %
25.06.2019 16:06 31,7 C 26,7 C 41,1 C 51 % 1018,6 hPa 0,0 l/m 10,2 km/h (2 Bft) NO 46 2 min 0,000 mm 3,4 UV-I 688 W/m 20,3 C 31,6 C 16,1 km/h (3 Bft) 98,00 %
25.06.2019 16:08 31,6 C 26,7 C 42,2 C 57 % 1018,5 hPa 0,0 l/m 8,8 km/h (2 Bft) O-NO 73 2 min 0,000 mm 2,7 UV-I 686 W/m 22,0 C 31,5 C 14,5 km/h (3 Bft) 100,00 %
25.06.2019 16:10 31,7 C 26,7 C 42,2 C 51 % 1018,6 hPa 0,0 l/m 12,5 km/h (3 Bft) O-SO 103 2 min 0,000 mm 3,3 UV-I 682 W/m 20,3 C 31,5 C 20,9 km/h (4 Bft) 98,00 %
25.06.2019 16:12 31,8 C 26,7 C 42,8 C 51 % 1018,5 hPa 0,0 l/m 12,4 km/h (3 Bft) O-NO 74 2 min 0,000 mm 3,2 UV-I 676 W/m 20,4 C 31,6 C 19,3 km/h (3 Bft) 100,00 %
25.06.2019 16:14 31,9 C 26,7 C 42,2 C 50 % 1018,6 hPa 0,0 l/m 13,4 km/h (3 Bft) O-NO 71 2 min 0,000 mm 3,2 UV-I 673 W/m 20,2 C 31,7 C 16,1 km/h (3 Bft) 100,00 %
25.06.2019 16:16 31,9 C 26,7 C 42,8 C 52 % 1018,6 hPa 0,0 l/m 10,2 km/h (2 Bft) O 79 2 min 0,000 mm 3,2 UV-I 671 W/m 20,8 C 31,8 C 14,5 km/h (3 Bft) 100,00 %
25.06.2019 16:18 31,9 C 26,7 C 42,8 C 49 % 1018,5 hPa 0,0 l/m 11,3 km/h (2 Bft) O-NO 65 2 min 0,000 mm 3,1 UV-I 667 W/m 19,8 C 31,8 C 19,3 km/h (3 Bft) 100,00 %
25.06.2019 16:20 31,9 C 26,7 C 42,8 C 51 % 1018,5 hPa 0,0 l/m 11,4 km/h (2 Bft) O-NO 64 2 min 0,000 mm 3,1 UV-I 662 W/m 20,5 C 31,7 C 17,7 km/h (3 Bft) 98,18 %
25.06.2019 16:22 31,9 C 26,7 C 42,2 C 48 % 1018,6 hPa 0,0 l/m 15,7 km/h (3 Bft) O 86 2 min 0,000 mm 3,0 UV-I 657 W/m 19,5 C 31,7 C 20,9 km/h (4 Bft) 100,00 %
25.06.2019 16:24 31,8 C 26,7 C 42,2 C 50 % 1018,6 hPa 0,0 l/m 11,7 km/h (2 Bft) NO 45 2 min 0,000 mm 3,0 UV-I 651 W/m 20,1 C 31,6 C 17,7 km/h (3 Bft) 100,00 %
25.06.2019 16:26 31,9 C 26,7 C 42,8 C 50 % 1018,6 hPa 0,0 l/m 12,4 km/h (3 Bft) O 92 2 min 0,000 mm 3,0 UV-I 645 W/m 20,2 C 31,7 C 19,3 km/h (3 Bft) 100,00 %
25.06.2019 16:28 31,9 C 26,7 C 43,3 C 49 % 1018,5 hPa 0,0 l/m 11,6 km/h (2 Bft) O-SO 111 2 min 0,000 mm 2,9 UV-I 641 W/m 19,8 C 31,7 C 20,9 km/h (4 Bft) 100,00 %
25.06.2019 16:30 31,9 C 26,7 C 42,8 C 52 % 1018,6 hPa 0,0 l/m 10,8 km/h (2 Bft) NO 44 2 min 0,000 mm 2,9 UV-I 638 W/m 20,8 C 31,8 C 22,5 km/h (4 Bft) 98,00 %
25.06.2019 16:32 31,8 C 26,7 C 41,7 C 51 % 1018,6 hPa 0,0 l/m 13,5 km/h (3 Bft) O-NO 57 2 min 0,000 mm 2,8 UV-I 635 W/m 20,4 C 31,6 C 19,3 km/h (3 Bft) 97,37 %
25.06.2019 16:34 31,6 C 26,7 C 40,6 C 52 % 1018,5 hPa 0,0 l/m 10,5 km/h (2 Bft) NO 39 2 min 0,000 mm 2,8 UV-I 631 W/m 20,5 C 31,4 C 17,7 km/h (3 Bft) 96,77 %
25.06.2019 16:36 31,7 C 26,7 C 41,1 C 54 % 1018,5 hPa 0,0 l/m 9,4 km/h (2 Bft) NO 55 2 min 0,000 mm 2,7 UV-I 621 W/m 21,2 C 31,6 C 16,1 km/h (3 Bft) 97,56 %
25.06.2019 16:38 31,8 C 26,7 C 41,7 C 51 % 1018,5 hPa 0,0 l/m 10,4 km/h (2 Bft) O-NO 69 2 min 0,000 mm 2,7 UV-I 614 W/m 20,4 C 31,7 C 17,7 km/h (3 Bft) 98,00 %
25.06.2019 16:40 32,0 C 26,7 C 42,8 C 50 % 1018,5 hPa 0,0 l/m 11,0 km/h (2 Bft) NO 39 2 min 0,000 mm 2,6 UV-I 609 W/m 20,2 C 31,9 C 20,9 km/h (4 Bft) 97,56 %
25.06.2019 16:42 32,1 C 26,7 C 41,7 C 51 % 1018,5 hPa 0,0 l/m 13,6 km/h (3 Bft) NO 42 2 min 0,000 mm 2,6 UV-I 605 W/m 20,7 C 31,9 C 19,3 km/h (3 Bft) 94,64 %
25.06.2019 16:44 31,8 C 26,7 C 40,6 C 52 % 1018,5 hPa 0,0 l/m 15,5 km/h (3 Bft) O-NO 65 2 min 0,000 mm 2,6 UV-I 603 W/m 20,7 C 31,5 C 20,9 km/h (4 Bft) 97,37 %
25.06.2019 16:46 31,7 C 26,7 C 40,6 C 53 % 1018,5 hPa 0,0 l/m 12,6 km/h (3 Bft) O-SO 105 2 min 0,000 mm 2,5 UV-I 598 W/m 20,9 C 31,5 C 17,7 km/h (3 Bft) 96,00 %
25.06.2019 16:49 31,8 C 26,7 C 41,1 C 50 % 1018,5 hPa 0,0 l/m 13,0 km/h (3 Bft) O 90 3 min 0,000 mm 2,5 UV-I 591 W/m 20,1 C 31,6 C 19,3 km/h (3 Bft) 98,59 %
25.06.2019 16:50 31,8 C 26,7 C 41,7 C 49 % 1018,5 hPa 0,0 l/m 14,4 km/h (3 Bft) O 96 1 min 0,000 mm 2,4 UV-I 589 W/m 19,7 C 31,6 C 16,1 km/h (3 Bft) 96,15 %
25.06.2019 16:52 31,9 C 26,7 C 41,7 C 49 % 1018,5 hPa 0,0 l/m 9,2 km/h (2 Bft) O-SO 103 2 min 0,000 mm 2,4 UV-I 587 W/m 19,8 C 31,8 C 16,1 km/h (3 Bft) 95,12 %
25.06.2019 16:54 32,0 C 26,7 C 41,7 C 51 % 1018,5 hPa 0,0 l/m 13,0 km/h (3 Bft) O 94 2 min 0,000 mm 2,4 UV-I 583 W/m 20,6 C 31,8 C 19,3 km/h (3 Bft) 98,11 %
25.06.2019 16:56 32,1 C 26,7 C 42,2 C 51 % 1018,5 hPa 0,0 l/m 13,6 km/h (3 Bft) O-NO 59 2 min 0,000 mm 2,3 UV-I 577 W/m 20,7 C 31,9 C 19,3 km/h (3 Bft) 97,56 %
25.06.2019 16:58 31,9 C 26,7 C 41,1 C 51 % 1018,5 hPa 0,0 l/m 9,9 km/h (2 Bft) O-NO 62 2 min 0,000 mm 2,3 UV-I 572 W/m 20,5 C 31,8 C 17,7 km/h (3 Bft) 94,00 %
25.06.2019 17:00 31,8 C 26,7 C 41,7 C 54 % 1018,5 hPa 0,0 l/m 10,6 km/h (2 Bft) O-NO 63 2 min 0,534 mm 2,2 UV-I 567 W/m 21,3 C 31,7 C 16,1 km/h (3 Bft) 93,62 %
25.06.2019 17:02 31,8 C 26,7 C 41,7 C 52 % 1018,4 hPa 0,0 l/m 10,9 km/h (2 Bft) NO 48 2 min 0,000 mm 2,2 UV-I 559 W/m 20,7 C 31,6 C 16,1 km/h (3 Bft) 97,44 %
25.06.2019 17:04 31,9 C 26,7 C 41,7 C 50 % 1018,4 hPa 0,0 l/m 10,2 km/h (2 Bft) O 98 2 min 0,000 mm 2,2 UV-I 553 W/m 20,2 C 31,8 C 16,1 km/h (3 Bft) 98,00 %
25.06.2019 17:06 32,0 C 26,7 C 41,7 C 51 % 1018,5 hPa 0,0 l/m 14,0 km/h (3 Bft) NO 52 2 min 0,000 mm 2,1 UV-I 543 W/m 20,6 C 31,8 C 20,9 km/h (4 Bft) 93,75 %
25.06.2019 17:08 31,9 C 26,7 C 42,2 C 52 % 1018,4 hPa 0,0 l/m 10,8 km/h (2 Bft) NO 47 2 min 0,000 mm 2,1 UV-I 537 W/m 20,8 C 31,8 C 14,5 km/h (3 Bft) 97,06 %
25.06.2019 17:10 31,7 C 26,7 C 40,6 C 53 % 1018,4 hPa 0,0 l/m 11,8 km/h (2 Bft) N-NO 22 2 min 0,000 mm 2,1 UV-I 537 W/m 20,9 C 31,5 C 22,5 km/h (4 Bft) 97,73 %
25.06.2019 17:12 31,8 C 26,7 C 41,1 C 52 % 1018,5 hPa 0,0 l/m 12,6 km/h (3 Bft) O-NO 71 2 min 0,000 mm 2,0 UV-I 534 W/m 20,7 C 31,6 C 17,7 km/h (3 Bft) 95,74 %
25.06.2019 17:14 32,1 C 26,7 C 42,2 C 50 % 1018,4 hPa 0,0 l/m 11,8 km/h (2 Bft) O-NO 76 2 min 0,000 mm 2,0 UV-I 530 W/m 20,3 C 32,0 C 16,1 km/h (3 Bft) 94,74 %
25.06.2019 17:16 32,2 C 26,7 C 41,7 C 49 % 1018,4 hPa 0,0 l/m 6,8 km/h (2 Bft) O-NO 75 2 min 0,000 mm 1,9 UV-I 525 W/m 20,1 C 32,2 C 12,9 km/h (3 Bft) 96,23 %
25.06.2019 17:18 32,1 C 26,7 C 41,7 C 52 % 1018,4 hPa 0,0 l/m 12,2 km/h (2 Bft) O-NO 67 2 min 0,000 mm 1,9 UV-I 519 W/m 21,0 C 32,0 C 17,7 km/h (3 Bft) 96,23 %
25.06.2019 17:20 31,8 C 26,7 C 40,6 C 50 % 1018,5 hPa 0,0 l/m 14,4 km/h (3 Bft) O-NO 63 2 min 0,000 mm 1,9 UV-I 514 W/m 20,1 C 31,6 C 19,3 km/h (3 Bft) 97,56 %
25.06.2019 17:22 31,6 C 26,7 C 40,0 C 53 % 1018,5 hPa 0,0 l/m 11,4 km/h (2 Bft) O-NO 60 2 min 0,000 mm 1,8 UV-I 509 W/m 20,8 C 31,4 C 16,1 km/h (3 Bft) 97,73 %
25.06.2019 17:24 31,4 C 26,7 C 40,0 C 53 % 1018,5 hPa 0,0 l/m 9,2 km/h (2 Bft) NO 56 2 min 0,000 mm 1,8 UV-I 506 W/m 20,6 C 31,3 C 14,5 km/h (3 Bft) 94,00 %
25.06.2019 17:26 31,5 C 26,7 C 40,6 C 55 % 1018,4 hPa 0,0 l/m 7,0 km/h (2 Bft) NO 40 2 min 0,000 mm 1,8 UV-I 499 W/m 21,3 C 31,5 C 11,3 km/h (2 Bft) 98,11 %
25.06.2019 17:28 31,7 C 26,7 C 41,1 C 49 % 1018,5 hPa 0,0 l/m 13,0 km/h (3 Bft) O 79 2 min 0,000 mm 1,7 UV-I 492 W/m 19,6 C 31,5 C 19,3 km/h (3 Bft) 95,12 %
25.06.2019 17:30 31,9 C 26,7 C 41,7 C 49 % 1018,5 hPa 0,0 l/m 9,6 km/h (2 Bft) O-NO 71 2 min 0,000 mm 1,7 UV-I 486 W/m 19,8 C 31,8 C 14,5 km/h (3 Bft) 98,11 %
25.06.2019 17:32 32,1 C 26,7 C 41,7 C 48 % 1018,5 hPa 0,0 l/m 10,8 km/h (2 Bft) O 98 2 min 0,000 mm 1,6 UV-I 483 W/m 19,7 C 32,0 C 16,1 km/h (3 Bft) 97,37 %
25.06.2019 17:34 32,2 C 26,7 C 42,2 C 48 % 1018,5 hPa 0,0 l/m 12,4 km/h (3 Bft) O-SO 109 2 min 0,000 mm 1,6 UV-I 479 W/m 19,8 C 32,1 C 16,1 km/h (3 Bft) 97,92 %
25.06.2019 17:36 32,2 C 26,7 C 42,2 C 48 % 1018,5 hPa 0,0 l/m 10,3 km/h (2 Bft) O 88 2 min 0,000 mm 1,6 UV-I 475 W/m 19,8 C 32,1 C 16,1 km/h (3 Bft) 97,73 %
25.06.2019 17:38 32,2 C 26,7 C 42,2 C 49 % 1018,5 hPa 0,0 l/m 11,5 km/h (2 Bft) O 96 2 min 0,000 mm 1,6 UV-I 469 W/m 20,1 C 32,1 C 14,5 km/h (3 Bft) 96,36 %
25.06.2019 17:40 32,3 C 26,7 C 42,8 C 48 % 1018,5 hPa 0,0 l/m 9,1 km/h (2 Bft) O 92 2 min 0,000 mm 1,5 UV-I 464 W/m 19,9 C 32,2 C 14,5 km/h (3 Bft) 97,62 %
25.06.2019 17:42 32,2 C 26,7 C 42,8 C 50 % 1018,4 hPa 0,0 l/m 8,0 km/h (2 Bft) NO 48 2 min 0,000 mm 1,5 UV-I 458 W/m 20,4 C 32,2 C 12,9 km/h (3 Bft) 96,23 %
25.06.2019 17:44 32,2 C 26,7 C 42,2 C 50 % 1018,4 hPa 0,0 l/m 8,2 km/h (2 Bft) O-NO 78 2 min 0,000 mm 1,5 UV-I 452 W/m 20,4 C 32,2 C 16,1 km/h (3 Bft) 95,12 %
25.06.2019 17:46 32,2 C 26,7 C 42,2 C 51 % 1018,4 hPa 0,0 l/m 8,1 km/h (2 Bft) NO 51 2 min 0,000 mm 1,4 UV-I 447 W/m 20,7 C 32,2 C 14,5 km/h (3 Bft) 97,73 %
25.06.2019 17:48 32,2 C 26,7 C 42,8 C 50 % 1018,5 hPa 0,0 l/m 9,2 km/h (2 Bft) O 86 2 min 0,000 mm 1,4 UV-I 444 W/m 20,4 C 32,1 C 14,5 km/h (3 Bft) 97,87 %
25.06.2019 17:50 32,2 C 26,7 C 41,7 C 49 % 1018,4 hPa 0,0 l/m 12,0 km/h (2 Bft) O-NO 59 2 min 0,000 mm 1,4 UV-I 437 W/m 20,1 C 32,1 C 17,7 km/h (3 Bft) 98,21 %
25.06.2019 17:52 31,9 C 26,7 C 41,7 C 51 % 1018,4 hPa 0,0 l/m 11,4 km/h (2 Bft) O-NO 65 2 min 0,000 mm 1,3 UV-I 429 W/m 20,5 C 31,7 C 16,1 km/h (3 Bft) 97,73 %
25.06.2019 17:54 31,8 C 26,7 C 40,6 C 50 % 1018,4 hPa 0,0 l/m 12,4 km/h (3 Bft) O-NO 67 2 min 0,000 mm 1,3 UV-I 421 W/m 20,1 C 31,6 C 16,1 km/h (3 Bft) 97,73 %
25.06.2019 17:56 31,8 C 26,7 C 40,6 C 50 % 1018,5 hPa 0,0 l/m 13,0 km/h (3 Bft) O 82 2 min 0,000 mm 1,3 UV-I 414 W/m 20,1 C 31,6 C 17,7 km/h (3 Bft) 97,56 %
25.06.2019 17:58 31,9 C 26,7 C 40,6 C 50 % 1018,5 hPa 0,0 l/m 13,1 km/h (3 Bft) O 97 2 min 0,000 mm 1,2 UV-I 409 W/m 20,2 C 31,7 C 16,1 km/h (3 Bft) 98,21 %
25.06.2019 18:00 31,9 C 26,7 C 40,6 C 50 % 1018,4 hPa 0,0 l/m 10,1 km/h (2 Bft) O 96 2 min 0,000 mm 1,2 UV-I 408 W/m 20,2 C 31,8 C 12,9 km/h (3 Bft) 94,74 %
25.06.2019 18:02 32,1 C 26,7 C 41,1 C 51 % 1018,5 hPa 0,0 l/m 6,9 km/h (2 Bft) O-NO 66 2 min 0,431 mm 1,2 UV-I 404 W/m 20,7 C 32,1 C 11,3 km/h (2 Bft) 98,15 %
25.06.2019 18:04 32,0 C 26,7 C 40,6 C 52 % 1018,4 hPa 0,0 l/m 9,8 km/h (2 Bft) O-NO 60 2 min 0,000 mm 1,2 UV-I 401 W/m 20,9 C 31,9 C 14,5 km/h (3 Bft) 97,87 %
25.06.2019 18:06 31,8 C 26,7 C 40,6 C 51 % 1018,4 hPa 0,0 l/m 10,9 km/h (2 Bft) O-NO 58 2 min 0,000 mm 1,1 UV-I 396 W/m 20,4 C 31,6 C 17,7 km/h (3 Bft) 100,00 %
25.06.2019 18:08 31,6 C 26,7 C 40,0 C 53 % 1018,4 hPa 0,0 l/m 11,0 km/h (2 Bft) NO 51 2 min 0,000 mm 1,1 UV-I 390 W/m 20,8 C 31,4 C 16,1 km/h (3 Bft) 100,00 %
25.06.2019 18:10 31,6 C 26,7 C 40,0 C 51 % 1018,4 hPa 0,0 l/m 8,6 km/h (2 Bft) O 84 2 min 0,000 mm 1,1 UV-I 382 W/m 20,2 C 31,5 C 12,9 km/h (3 Bft) 98,00 %
25.06.2019 18:12 31,8 C 26,7 C 40,6 C 51 % 1018,4 hPa 0,0 l/m 11,5 km/h (2 Bft) O-NO 69 2 min 0,000 mm 1,0 UV-I 379 W/m 20,4 C 31,6 C 17,7 km/h (3 Bft) 100,00 %
25.06.2019 18:14 31,8 C 26,7 C 41,1 C 50 % 1018,4 hPa 0,0 l/m 7,5 km/h (2 Bft) O 100 2 min 0,000 mm 1,0 UV-I 376 W/m 20,1 C 31,8 C 12,9 km/h (3 Bft) 100,00 %
25.06.2019 18:16 31,9 C 26,7 C 40,6 C 50 % 1018,4 hPa 0,0 l/m 10,3 km/h (2 Bft) O-SO 105 2 min 0,000 mm 1,0 UV-I 372 W/m 20,2 C 31,8 C 17,7 km/h (3 Bft) 95,74 %
25.06.2019 18:18 31,9 C 26,7 C 41,1 C 51 % 1018,4 hPa 0,0 l/m 10,6 km/h (2 Bft) O 98 2 min 0,000 mm 1,0 UV-I 365 W/m 20,5 C 31,8 C 14,5 km/h (3 Bft) 100,00 %
25.06.2019 18:20 31,9 C 26,7 C 40,6 C 51 % 1018,4 hPa 0,0 l/m 10,3 km/h (2 Bft) O 98 2 min 0,000 mm 0,9 UV-I 351 W/m 20,5 C 31,8 C 16,1 km/h (3 Bft) 100,00 %
25.06.2019 18:22 31,9 C 26,7 C 40,0 C 49 % 1018,4 hPa 0,0 l/m 12,3 km/h (3 Bft) O 101 2 min 0,000 mm 0,9 UV-I 346 W/m 19,8 C 31,7 C 17,7 km/h (3 Bft) 100,00 %
25.06.2019 18:24 31,9 C 26,7 C 40,0 C 49 % 1018,4 hPa 0,0 l/m 11,6 km/h (2 Bft) O 98 2 min 0,000 mm 0,9 UV-I 340 W/m 19,8 C 31,7 C 16,1 km/h (3 Bft) 100,00 %
25.06.2019 18:26 31,9 C 26,7 C 40,0 C 47 % 1018,4 hPa 0,0 l/m 12,4 km/h (3 Bft) O-NO 78 2 min 0,000 mm 0,9 UV-I 334 W/m 19,2 C 31,7 C 17,7 km/h (3 Bft) 100,00 %
25.06.2019 18:28 31,8 C 26,7 C 40,0 C 48 % 1018,4 hPa 0,0 l/m 10,6 km/h (2 Bft) O 98 2 min 0,000 mm 0,8 UV-I 326 W/m 19,4 C 31,7 C 16,1 km/h (3 Bft) 100,00 %
25.06.2019 18:30 31,8 C 26,7 C 39,4 C 47 % 1018,4 hPa 0,0 l/m 9,2 km/h (2 Bft) O-SO 114 2 min 0,000 mm 0,8 UV-I 306 W/m 19,1 C 31,7 C 12,9 km/h (3 Bft) 98,15 %
25.06.2019 18:32 31,7 C 26,7 C 40,0 C 48 % 1018,4 hPa 0,0 l/m 7,2 km/h (2 Bft) O 81 2 min 0,000 mm 0,8 UV-I 308 W/m 19,3 C 31,7 C 12,9 km/h (3 Bft) 96,00 %
25.06.2019 18:34 31,7 C 26,7 C 40,0 C 49 % 1018,4 hPa 0,0 l/m 8,8 km/h (2 Bft) O 90 2 min 0,000 mm 0,5 UV-I 304 W/m 19,6 C 31,6 C 12,9 km/h (3 Bft) 95,74 %
25.06.2019 18:36 31,7 C 26,7 C 40,0 C 52 % 1018,4 hPa 0,0 l/m 8,2 km/h (2 Bft) SO 126 2 min 0,000 mm 0,5 UV-I 293 W/m 20,6 C 31,6 C 12,9 km/h (3 Bft) 96,00 %
25.06.2019 18:38 31,7 C 26,7 C 40,0 C 49 % 1018,4 hPa 0,0 l/m 10,9 km/h (2 Bft) O 80 2 min 0,000 mm 0,6 UV-I 287 W/m 19,6 C 31,5 C 16,1 km/h (3 Bft) 95,45 %
25.06.2019 18:40 31,7 C 26,7 C 39,4 C 49 % 1018,3 hPa 0,0 l/m 11,3 km/h (2 Bft) O-NO 78 2 min 0,000 mm 0,7 UV-I 279 W/m 19,6 C 31,5 C 16,1 km/h (3 Bft) 92,31 %
25.06.2019 18:42 31,6 C 26,7 C 38,9 C 49 % 1018,4 hPa 0,0 l/m 11,6 km/h (2 Bft) O 80 2 min 0,000 mm 0,6 UV-I 272 W/m 19,6 C 31,4 C 16,1 km/h (3 Bft) 95,59 %
25.06.2019 18:44 31,5 C 26,7 C 38,3 C 50 % 1018,4 hPa 0,0 l/m 7,4 km/h (2 Bft) O 79 2 min 0,000 mm 0,5 UV-I 221 W/m 19,8 C 31,5 C 14,5 km/h (3 Bft) 97,56 %
25.06.2019 18:46 31,3 C 26,7 C 37,8 C 52 % 1018,4 hPa 0,0 l/m 7,2 km/h (2 Bft) NO 40 2 min 0,000 mm 0,5 UV-I 208 W/m 20,2 C 31,3 C 12,9 km/h (3 Bft) 93,62 %
25.06.2019 18:48 31,1 C 26,7 C 36,7 C 53 % 1018,4 hPa 0,0 l/m 9,1 km/h (2 Bft) O-NO 58 0 min 0,000 mm 0,6 UV-I 182 W/m 20,4 C 30,9 C 14,5 km/h (3 Bft) 96,23 %
25.06.2019 18:50 30,8 C 26,7 C 36,1 C 54 % 1018,4 hPa 0,0 l/m 6,8 km/h (2 Bft) O-NO 75 0 min 0,000 mm 0,5 UV-I 151 W/m 20,4 C 30,8 C 11,3 km/h (2 Bft) 91,49 %
25.06.2019 18:52 30,7 C 26,7 C 35,6 C 53 % 1018,4 hPa 0,0 l/m 6,8 km/h (2 Bft) NO 52 0 min 0,000 mm 0,3 UV-I 150 W/m 20,0 C 30,7 C 12,9 km/h (3 Bft) 92,59 %
25.06.2019 18:54 30,7 C 26,7 C 35,6 C 54 % 1018,4 hPa 0,0 l/m 7,9 km/h (2 Bft) NO 52 2 min 0,000 mm 0,5 UV-I 179 W/m 20,3 C 30,6 C 14,5 km/h (3 Bft) 96,61 %
25.06.2019 18:56 30,6 C 26,7 C 35,6 C 55 % 1018,4 hPa 0,0 l/m 6,6 km/h (2 Bft) O-NO 77 2 min 0,000 mm 0,3 UV-I 175 W/m 20,5 C 30,6 C 11,3 km/h (2 Bft) 94,34 %
25.06.2019 18:58 30,6 C 26,7 C 35,0 C 54 % 1018,4 hPa 0,0 l/m 5,8 km/h (2 Bft) O 90 0 min 0,000 mm 0,5 UV-I 162 W/m 20,2 C 30,6 C 8,0 km/h (2 Bft) 92,11 %
25.06.2019 19:00 30,6 C 26,7 C 35,0 C 54 % 1018,4 hPa 0,0 l/m 7,9 km/h (2 Bft) O-NO 69 2 min 0,000 mm 0,5 UV-I 175 W/m 20,2 C 30,5 C 11,3 km/h (2 Bft) 94,55 %
25.06.2019 19:02 30,6 C 26,7 C 35,6 C 54 % 1018,4 hPa 0,0 l/m 6,5 km/h (2 Bft) O-NO 69 0 min 0,280 mm 0,1 UV-I 146 W/m 20,2 C 30,6 C 9,7 km/h (2 Bft) 100,00 %
25.06.2019 19:04 30,6 C 26,7 C 35,6 C 54 % 1018,5 hPa 0,0 l/m 5,6 km/h (1 Bft) O 79 2 min 0,000 mm 0,0 UV-I 179 W/m 20,2 C 30,6 C 11,3 km/h (2 Bft) 95,74 %
25.06.2019 19:06 30,7 C 26,7 C 36,1 C 55 % 1018,5 hPa 0,0 l/m 3,1 km/h (1 Bft) O 79 2 min 0,000 mm 0,0 UV-I 182 W/m 20,6 C 30,7 C 6,4 km/h (2 Bft) 100,00 %
25.06.2019 19:08 30,6 C 26,7 C 36,1 C 55 % 1018,5 hPa 0,0 l/m 3,9 km/h (1 Bft) NO 56 2 min 0,000 mm 0,0 UV-I 182 W/m 20,5 C 30,6 C 6,4 km/h (2 Bft) 97,37 %
25.06.2019 19:10 30,5 C 26,7 C 36,7 C 57 % 1018,5 hPa 0,0 l/m 5,0 km/h (1 Bft) O 90 2 min 0,000 mm 0,0 UV-I 182 W/m 21,0 C 30,5 C 9,7 km/h (2 Bft) 97,87 %
25.06.2019 19:12 30,5 C 26,7 C 35,6 C 55 % 1018,5 hPa 0,0 l/m 5,8 km/h (2 Bft) O 80 2 min 0,000 mm 0,0 UV-I 154 W/m 20,4 C 30,5 C 8,0 km/h (2 Bft) 100,00 %
25.06.2019 19:14 30,4 C 26,7 C 35,6 C 55 % 1018,5 hPa 0,0 l/m 5,8 km/h (2 Bft) O 90 2 min 0,000 mm 0,0 UV-I 165 W/m 20,3 C 30,4 C 9,7 km/h (2 Bft) 100,00 %
25.06.2019 19:16 30,5 C 26,7 C 36,1 C 55 % 1018,5 hPa 0,0 l/m 5,6 km/h (1 Bft) O-NO 67 2 min 0,000 mm 0,0 UV-I 193 W/m 20,4 C 30,5 C 9,7 km/h (2 Bft) 100,00 %
25.06.2019 19:18 30,5 C 26,7 C 36,7 C 56 % 1018,5 hPa 0,0 l/m 4,9 km/h (1 Bft) O-NO 77 2 min 0,000 mm 0,0 UV-I 188 W/m 20,7 C 30,5 C 6,4 km/h (2 Bft) 100,00 %
25.06.2019 19:20 30,5 C 26,7 C 36,7 C 56 % 1018,5 hPa 0,0 l/m 5,5 km/h (1 Bft) O-NO 69 2 min 0,000 mm 0,0 UV-I 178 W/m 20,7 C 30,5 C 8,0 km/h (2 Bft) 100,00 %
25.06.2019 19:22 30,5 C 26,7 C 36,1 C 55 % 1018,5 hPa 0,0 l/m 5,0 km/h (1 Bft) O 90 2 min 0,000 mm 0,0 UV-I 154 W/m 20,4 C 30,5 C 8,0 km/h (2 Bft) 97,87 %
25.06.2019 19:24 30,4 C 26,7 C 36,1 C 57 % 1018,5 hPa 0,0 l/m 3,2 km/h (1 Bft) O 87 2 min 0,000 mm 0,0 UV-I 143 W/m 20,9 C 30,4 C 4,8 km/h (1 Bft) 100,00 %
25.06.2019 19:26 30,3 C 26,7 C 36,1 C 58 % 1018,5 hPa 0,0 l/m 5,4 km/h (1 Bft) O-NO 64 2 min 0,000 mm 0,0 UV-I 155 W/m 21,1 C 30,3 C 9,7 km/h (2 Bft) 100,00 %
25.06.2019 19:28 30,2 C 26,7 C 35,6 C 58 % 1018,5 hPa 0,0 l/m 4,9 km/h (1 Bft) O 93 2 min 0,000 mm 0,0 UV-I 141 W/m 21,0 C 30,2 C 8,0 km/h (2 Bft) 100,00 %
25.06.2019 19:30 30,2 C 26,7 C 35,0 C 57 % 1018,6 hPa 0,0 l/m 2,9 km/h (1 Bft) O 93 0 min 0,000 mm 0,0 UV-I 106 W/m 20,7 C 30,2 C 4,8 km/h (1 Bft) 96,15 %
25.06.2019 19:32 30,1 C 26,7 C 34,4 C 59 % 1018,5 hPa 0,0 l/m 2,6 km/h (1 Bft) O 93 2 min 0,000 mm 0,0 UV-I 128 W/m 21,2 C 30,1 C 4,8 km/h (1 Bft) 98,00 %
25.06.2019 19:34 30,1 C 26,7 C 35,0 C 59 % 1018,5 hPa 0,0 l/m 4,1 km/h (1 Bft) O 94 2 min 0,000 mm 0,0 UV-I 147 W/m 21,2 C 30,1 C 6,4 km/h (2 Bft) 100,00 %
25.06.2019 19:36 30,1 C 26,7 C 35,6 C 59 % 1018,5 hPa 0,0 l/m 3,7 km/h (1 Bft) O 96 2 min 0,000 mm 0,0 UV-I 148 W/m 21,2 C 30,1 C 6,4 km/h (2 Bft) 100,00 %
25.06.2019 19:38 30,2 C 26,7 C 35,6 C 57 % 1018,5 hPa 0,0 l/m 4,6 km/h (1 Bft) O-SO 103 2 min 0,000 mm 0,0 UV-I 143 W/m 20,7 C 30,2 C 6,4 km/h (2 Bft) 100,00 %
25.06.2019 19:40 30,3 C 26,7 C 36,1 C 58 % 1018,5 hPa 0,0 l/m 4,1 km/h (1 Bft) O-SO 106 2 min 0,000 mm 0,0 UV-I 134 W/m 21,1 C 30,3 C 6,4 km/h (2 Bft) 100,00 %
25.06.2019 19:42 30,2 C 26,7 C 35,0 C 57 % 1018,5 hPa 0,0 l/m 4,4 km/h (1 Bft) O 94 0 min 0,000 mm 0,0 UV-I 108 W/m 20,7 C 30,2 C 6,4 km/h (2 Bft) 100,00 %
25.06.2019 19:44 30,1 C 26,7 C 33,9 C 57 % 1018,6 hPa 0,0 l/m 4,8 km/h (1 Bft) O-SO 102 0 min 0,000 mm 0,0 UV-I 85 W/m 20,6 C 30,1 C 9,7 km/h (2 Bft) 100,00 %
25.06.2019 19:46 30,0 C 26,7 C 33,9 C 57 % 1018,5 hPa 0,0 l/m 4,3 km/h (1 Bft) O 93 0 min 0,000 mm 0,0 UV-I 99 W/m 20,5 C 30,0 C 6,4 km/h (2 Bft) 100,00 %
25.06.2019 19:48 29,9 C 26,7 C 33,3 C 57 % 1018,6 hPa 0,0 l/m 6,3 km/h (2 Bft) O 94 2 min 0,000 mm 0,0 UV-I 104 W/m 20,4 C 29,9 C 11,3 km/h (2 Bft) 100,00 %
25.06.2019 19:50 29,9 C 26,7 C 33,3 C 56 % 1018,6 hPa 0,0 l/m 5,6 km/h (1 Bft) O 99 0 min 0,000 mm 0,0 UV-I 92 W/m 20,1 C 29,9 C 11,3 km/h (2 Bft) 98,00 %
25.06.2019 19:52 29,8 C 26,7 C 32,8 C 56 % 1018,6 hPa 0,0 l/m 9,1 km/h (2 Bft) O-NO 68 0 min 0,000 mm 0,0 UV-I 76 W/m 20,1 C 29,5 C 12,9 km/h (3 Bft) 97,73 %
25.06.2019 19:54 29,7 C 26,7 C 31,7 C 57 % 1018,6 hPa 0,0 l/m 6,5 km/h (2 Bft) O 82 0 min 0,000 mm 0,0 UV-I 63 W/m 20,2 C 29,7 C 12,9 km/h (3 Bft) 97,56 %
25.06.2019 19:56 29,6 C 26,7 C 31,1 C 58 % 1018,6 hPa 0,0 l/m 6,9 km/h (2 Bft) O 97 0 min 0,000 mm 0,0 UV-I 58 W/m 20,4 C 29,5 C 11,3 km/h (2 Bft) 100,00 %
25.06.2019 19:58 29,3 C 26,7 C 30,6 C 58 % 1018,6 hPa 0,0 l/m 6,7 km/h (2 Bft) O-SO 107 0 min 0,000 mm 0,0 UV-I 56 W/m 20,2 C 29,3 C 11,3 km/h (2 Bft) 100,00 %
25.06.2019 20:00 29,2 C 26,7 C 30,6 C 59 % 1018,6 hPa 0,0 l/m 4,9 km/h (1 Bft) O 85 0 min 0,000 mm 0,0 UV-I 54 W/m 20,3 C 29,2 C 11,3 km/h (2 Bft) 100,00 %
25.06.2019 20:02 29,0 C 26,7 C 30,0 C 60 % 1018,6 hPa 0,0 l/m 5,1 km/h (1 Bft) O 100 0 min 0,127 mm 0,0 UV-I 46 W/m 20,4 C 29,0 C 9,7 km/h (2 Bft) 98,00 %
25.06.2019 20:04 28,8 C 26,7 C 28,9 C 60 % 1018,6 hPa 0,0 l/m 5,3 km/h (1 Bft) O 101 0 min 0,000 mm 0,0 UV-I 39 W/m 20,2 C 28,8 C 9,7 km/h (2 Bft) 97,73 %
25.06.2019 20:06 28,8 C 26,7 C 28,9 C 59 % 1018,6 hPa 0,0 l/m 6,0 km/h (2 Bft) O 95 0 min 0,000 mm 0,0 UV-I 34 W/m 20,0 C 28,8 C 9,7 km/h (2 Bft) 100,00 %
25.06.2019 20:08 28,7 C 26,7 C 28,3 C 59 % 1018,6 hPa 0,0 l/m 5,6 km/h (1 Bft) O 99 0 min 0,000 mm 0,0 UV-I 32 W/m 19,9 C 28,7 C 9,7 km/h (2 Bft) 100,00 %
25.06.2019 20:10 28,7 C 26,7 C 27,8 C 59 % 1018,6 hPa 0,0 l/m 5,7 km/h (1 Bft) O 97 0 min 0,000 mm 0,0 UV-I 32 W/m 19,9 C 28,7 C 9,7 km/h (2 Bft) 97,22 %
25.06.2019 20:12 28,6 C 26,7 C 27,8 C 59 % 1018,6 hPa 0,0 l/m 6,6 km/h (2 Bft) O-SO 108 0 min 0,000 mm 0,0 UV-I 33 W/m 19,8 C 28,6 C 11,3 km/h (2 Bft) 98,00 %
25.06.2019 20:14 28,6 C 26,7 C 27,8 C 59 % 1018,7 hPa 0,0 l/m 6,0 km/h (2 Bft) O 88 0 min 0,000 mm 0,0 UV-I 37 W/m 19,8 C 28,6 C 9,7 km/h (2 Bft) 96,00 %
25.06.2019 20:16 28,6 C 26,7 C 27,8 C 60 % 1018,6 hPa 0,0 l/m 5,4 km/h (1 Bft) O-SO 115 0 min 0,000 mm 0,0 UV-I 37 W/m 20,1 C 28,6 C 9,7 km/h (2 Bft) 98,00 %
25.06.2019 20:18 28,5 C 26,7 C 27,8 C 60 % 1018,7 hPa 0,0 l/m 6,2 km/h (2 Bft) O-SO 105 0 min 0,000 mm 0,0 UV-I 32 W/m 20,0 C 28,5 C 9,7 km/h (2 Bft) 97,56 %
25.06.2019 20:20 28,4 C 26,7 C 27,2 C 60 % 1018,7 hPa 0,0 l/m 6,0 km/h (2 Bft) O 100 0 min 0,000 mm 0,0 UV-I 30 W/m 19,9 C 28,4 C 9,7 km/h (2 Bft) 97,87 %
25.06.2019 20:22 28,3 C 26,7 C 27,2 C 60 % 1018,6 hPa 0,0 l/m 5,4 km/h (1 Bft) O-SO 103 0 min 0,000 mm 0,0 UV-I 33 W/m 19,8 C 28,3 C 9,7 km/h (2 Bft) 93,62 %
25.06.2019 20:24 28,2 C 26,7 C 26,7 C 61 % 1018,7 hPa 0,0 l/m 4,8 km/h (1 Bft) O-SO 103 0 min 0,000 mm 0,0 UV-I 35 W/m 19,9 C 28,2 C 6,4 km/h (2 Bft) 96,23 %
25.06.2019 20:26 28,1 C 26,7 C 26,1 C 61 % 1018,7 hPa 0,0 l/m 5,6 km/h (1 Bft) O-SO 105 0 min 0,000 mm 0,0 UV-I 34 W/m 19,9 C 28,1 C 9,7 km/h (2 Bft) 95,45 %
25.06.2019 20:29 28,1 C 26,7 C 26,1 C 61 % 1018,7 hPa 0,0 l/m 4,6 km/h (1 Bft) O 92 0 min 0,000 mm 0,0 UV-I 42 W/m 19,9 C 28,1 C 9,7 km/h (2 Bft) 96,05 %
25.06.2019 20:30 28,1 C 26,7 C 26,1 C 61 % 1018,7 hPa 0,0 l/m 5,4 km/h (1 Bft) O 97 1 min 0,000 mm 0,0 UV-I 42 W/m 19,9 C 28,1 C 9,7 km/h (2 Bft) 83,33 %
25.06.2019 20:32 28,1 C 26,7 C 26,1 C 61 % 1018,7 hPa 0,0 l/m 5,6 km/h (1 Bft) O-SO 114 0 min 0,000 mm 0,0 UV-I 36 W/m 19,9 C 28,1 C 9,7 km/h (2 Bft) 93,62 %
25.06.2019 20:34 28,1 C 26,7 C 26,1 C 61 % 1018,7 hPa 0,0 l/m 4,3 km/h (1 Bft) O 93 0 min 0,000 mm 0,0 UV-I 28 W/m 19,9 C 28,1 C 6,4 km/h (2 Bft) 92,00 %
25.06.2019 20:36 28,0 C 26,7 C 26,1 C 61 % 1018,7 hPa 0,0 l/m 5,3 km/h (1 Bft) O-SO 106 0 min 0,000 mm 0,0 UV-I 26 W/m 19,8 C 28,0 C 9,7 km/h (2 Bft) 95,12 %
25.06.2019 20:38 27,9 C 26,7 C 25,6 C 61 % 1018,8 hPa 0,0 l/m 3,0 km/h (1 Bft) O-SO 106 0 min 0,000 mm 0,0 UV-I 25 W/m 19,7 C 27,9 C 4,8 km/h (1 Bft) 96,23 %
25.06.2019 20:40 27,9 C 26,7 C 25,6 C 61 % 1018,8 hPa 0,0 l/m 2,5 km/h (1 Bft) O-SO 106 0 min 0,000 mm 0,0 UV-I 21 W/m 19,7 C 27,9 C 4,8 km/h (1 Bft) 96,00 %
25.06.2019 20:42 27,8 C 26,7 C 25,0 C 62 % 1018,8 hPa 0,0 l/m 2,2 km/h (1 Bft) O-SO 106 0 min 0,000 mm 0,0 UV-I 19 W/m 19,8 C 27,8 C 4,8 km/h (1 Bft) 92,59 %
25.06.2019 20:44 27,8 C 26,7 C 25,0 C 61 % 1018,8 hPa 0,0 l/m 2,5 km/h (1 Bft) O-SO 106 0 min 0,000 mm 0,0 UV-I 17 W/m 19,6 C 27,8 C 4,8 km/h (1 Bft) 96,88 %
25.06.2019 20:46 27,8 C 26,7 C 25,0 C 61 % 1018,9 hPa 0,0 l/m 7,7 km/h (2 Bft) O-SO 103 0 min 0,000 mm 0,0 UV-I 16 W/m 19,6 C 27,6 C 11,3 km/h (2 Bft) 93,62 %
25.06.2019 20:48 27,8 C 26,7 C 25,0 C 61 % 1018,8 hPa 0,0 l/m 7,4 km/h (2 Bft) O-SO 117 2 min 0,000 mm 0,0 UV-I 18 W/m 19,6 C 27,6 C 11,3 km/h (2 Bft) 97,22 %
25.06.2019 20:50 27,8 C 26,7 C 25,0 C 61 % 1018,9 hPa 0,0 l/m 5,1 km/h (1 Bft) O-SO 109 2 min 0,000 mm 0,0 UV-I 18 W/m 19,6 C 27,8 C 9,7 km/h (2 Bft) 92,45 %
25.06.2019 20:52 27,6 C 26,7 C 25,0 C 62 % 1018,8 hPa 0,0 l/m 5,5 km/h (1 Bft) O-SO 118 2 min 0,000 mm 0,0 UV-I 16 W/m 19,6 C 27,6 C 9,7 km/h (2 Bft) 96,00 %
25.06.2019 20:54 27,5 C 26,7 C 25,0 C 62 % 1018,9 hPa 0,0 l/m 7,0 km/h (2 Bft) O-SO 118 2 min 0,000 mm 0,0 UV-I 14 W/m 19,6 C 27,4 C 14,5 km/h (3 Bft) 97,87 %
25.06.2019 20:56 27,4 C 26,7 C 25,0 C 63 % 1018,9 hPa 0,0 l/m 6,2 km/h (2 Bft) O-SO 114 0 min 0,000 mm 0,0 UV-I 14 W/m 19,7 C 27,4 C 11,3 km/h (2 Bft) 94,34 %
25.06.2019 20:58 27,3 C 26,7 C 25,0 C 63 % 1018,9 hPa 0,0 l/m 5,7 km/h (1 Bft) O 101 0 min 0,000 mm 0,0 UV-I 12 W/m 19,6 C 27,3 C 9,7 km/h (2 Bft) 97,87 %
25.06.2019 21:00 27,3 C 26,7 C 25,0 C 63 % 1018,9 hPa 0,0 l/m 4,7 km/h (1 Bft) O-SO 107 0 min 0,051 mm 0,0 UV-I 11 W/m 19,6 C 27,3 C 9,7 km/h (2 Bft) 97,87 %
25.06.2019 21:02 27,2 C 26,7 C 24,4 C 64 % 1018,9 hPa 0,0 l/m 5,4 km/h (1 Bft) O-SO 102 0 min 0,000 mm 0,0 UV-I 11 W/m 19,8 C 27,2 C 9,7 km/h (2 Bft) 97,37 %
25.06.2019 21:04 27,1 C 26,7 C 24,4 C 64 % 1018,9 hPa 0,0 l/m 6,0 km/h (2 Bft) O-SO 120 0 min 0,000 mm 0,0 UV-I 9 W/m 19,7 C 27,1 C 11,3 km/h (2 Bft) 95,74 %
25.06.2019 21:06 27,1 C 26,7 C 24,4 C 64 % 1018,9 hPa 0,0 l/m 7,3 km/h (2 Bft) O-SO 108 0 min 0,000 mm 0,0 UV-I 9 W/m 19,7 C 26,9 C 11,3 km/h (2 Bft) 98,11 %
25.06.2019 21:08 27,1 C 26,7 C 25,0 C 64 % 1018,9 hPa 0,0 l/m 8,5 km/h (2 Bft) SO 124 0 min 0,000 mm 0,0 UV-I 8 W/m 19,7 C 26,7 C 12,9 km/h (3 Bft) 97,37 %
25.06.2019 21:10 27,1 C 26,7 C 25,0 C 64 % 1018,9 hPa 0,0 l/m 6,7 km/h (2 Bft) O-SO 123 0 min 0,000 mm 0,0 UV-I 7 W/m 19,7 C 27,0 C 14,5 km/h (3 Bft) 98,00 %
25.06.2019 21:12 27,0 C 26,7 C 25,0 C 64 % 1018,9 hPa 0,0 l/m 8,8 km/h (2 Bft) O-SO 108 0 min 0,000 mm 0,0 UV-I 7 W/m 19,6 C 26,6 C 12,9 km/h (3 Bft) 98,00 %
25.06.2019 21:14 26,9 C 26,7 C 25,0 C 64 % 1018,9 hPa 0,0 l/m 9,7 km/h (2 Bft) O 99 0 min 0,000 mm 0,0 UV-I 6 W/m 19,5 C 26,3 C 14,5 km/h (3 Bft) 96,00 %
25.06.2019 21:16 26,8 C 26,7 C 24,4 C 65 % 1018,9 hPa 0,0 l/m 9,2 km/h (2 Bft) O-SO 111 0 min 0,000 mm 0,0 UV-I 5 W/m 19,7 C 26,3 C 14,5 km/h (3 Bft) 96,67 %
25.06.2019 21:18 26,8 C 26,7 C 24,4 C 65 % 1018,9 hPa 0,0 l/m 5,5 km/h (1 Bft) O-SO 103 0 min 0,000 mm 0,0 UV-I 5 W/m 19,7 C 26,8 C 11,3 km/h (2 Bft) 96,72 %
25.06.2019 21:20 26,7 C 26,7 C 24,4 C 65 % 1019,0 hPa 0,0 l/m 8,2 km/h (2 Bft) O-SO 103 0 min 0,000 mm 0,0 UV-I 5 W/m 19,6 C 26,3 C 12,9 km/h (3 Bft) 97,87 %
25.06.2019 21:22 26,7 C 26,7 C 24,4 C 65 % 1019,0 hPa 0,0 l/m 8,0 km/h (2 Bft) O-SO 114 0 min 0,000 mm 0,0 UV-I 5 W/m 19,6 C 26,4 C 12,9 km/h (3 Bft) 97,44 %
25.06.2019 21:24 26,6 C 26,7 C 24,4 C 66 % 1019,0 hPa 0,0 l/m 8,0 km/h (2 Bft) O-SO 105 0 min 0,000 mm 0,0 UV-I 0 W/m 19,7 C 26,3 C 12,9 km/h (3 Bft) 98,11 %
25.06.2019 21:26 26,6 C 26,7 C 24,4 C 66 % 1019,0 hPa 0,0 l/m 8,6 km/h (2 Bft) O-SO 123 0 min 0,000 mm 0,0 UV-I 0 W/m 19,7 C 26,2 C 14,5 km/h (3 Bft) 97,73 %
25.06.2019 21:28 26,4 C 26,7 C 23,9 C 66 % 1019,1 hPa 0,0 l/m 6,1 km/h (2 Bft) O 81 0 min 0,000 mm 0,0 UV-I 0 W/m 19,5 C 26,4 C 11,3 km/h (2 Bft) 98,11 %
25.06.2019 21:30 26,3 C 26,7 C 23,9 C 67 % 1019,1 hPa 0,0 l/m 4,3 km/h (1 Bft) O-SO 115 0 min 0,000 mm 0,0 UV-I 0 W/m 19,7 C 26,3 C 9,7 km/h (2 Bft) 97,87 %
25.06.2019 21:32 26,3 C 26,7 C 23,9 C 67 % 1019,2 hPa 0,0 l/m 7,1 km/h (2 Bft) O-SO 110 0 min 0,000 mm 0,0 UV-I 0 W/m 19,7 C 26,2 C 11,3 km/h (2 Bft) 97,87 %
25.06.2019 21:34 26,3 C 26,7 C 23,9 C 67 % 1019,2 hPa 0,0 l/m 7,4 km/h (2 Bft) O-SO 112 0 min 0,000 mm 0,0 UV-I 0 W/m 19,7 C 26,1 C 11,3 km/h (2 Bft) 97,87 %
25.06.2019 21:36 26,3 C 26,7 C 23,9 C 67 % 1019,2 hPa 0,0 l/m 7,9 km/h (2 Bft) O-SO 112 0 min 0,000 mm 0,0 UV-I 0 W/m 19,7 C 26,0 C 12,9 km/h (3 Bft) 97,87 %
25.06.2019 21:38 26,2 C 26,7 C 23,9 C 67 % 1019,2 hPa 0,0 l/m 7,1 km/h (2 Bft) O-SO 111 0 min 0,000 mm 0,0 UV-I 0 W/m 19,6 C 26,1 C 11,3 km/h (2 Bft) 95,45 %
25.06.2019 21:40 26,1 C 26,7 C 23,9 C 67 % 1019,2 hPa 0,0 l/m 5,7 km/h (1 Bft) O-SO 105 0 min 0,000 mm 0,0 UV-I 0 W/m 19,5 C 26,1 C 9,7 km/h (2 Bft) 95,12 %
25.06.2019 21:42 26,1 C 26,7 C 23,3 C 68 % 1019,1 hPa 0,0 l/m 5,8 km/h (2 Bft) O 100 0 min 0,000 mm 0,0 UV-I 0 W/m 19,7 C 26,1 C 11,3 km/h (2 Bft) 98,00 %
25.06.2019 21:44 26,1 C 26,7 C 23,9 C 68 % 1019,2 hPa 0,0 l/m 7,9 km/h (2 Bft) O-SO 116 0 min 0,000 mm 0,0 UV-I 0 W/m 19,7 C 25,8 C 14,5 km/h (3 Bft) 100,00 %
25.06.2019 21:46 26,1 C 26,7 C 23,9 C 68 % 1019,2 hPa 0,0 l/m 7,0 km/h (2 Bft) O-SO 114 0 min 0,000 mm 0,0 UV-I 0 W/m 19,7 C 26,0 C 11,3 km/h (2 Bft) 95,74 %
25.06.2019 21:48 26,0 C 26,7 C 23,3 C 68 % 1019,2 hPa 0,0 l/m 5,1 km/h (1 Bft) SO 142 0 min 0,000 mm 0,0 UV-I 0 W/m 19,6 C 26,0 C 14,5 km/h (3 Bft) 98,00 %
25.06.2019 21:50 26,0 C 26,7 C 23,3 C 68 % 1019,2 hPa 0,0 l/m 6,4 km/h (2 Bft) O 96 0 min 0,000 mm 0,0 UV-I 0 W/m 19,6 C 26,0 C 11,3 km/h (2 Bft) 98,00 %
25.06.2019 21:52 25,9 C 26,7 C 23,3 C 68 % 1019,2 hPa 0,0 l/m 7,0 km/h (2 Bft) O 87 0 min 0,000 mm 0,0 UV-I 0 W/m 19,5 C 25,8 C 12,9 km/h (3 Bft) 96,30 %
25.06.2019 21:54 25,9 C 26,7 C 22,2 C 68 % 1019,3 hPa 0,0 l/m 6,4 km/h (2 Bft) O 98 0 min 0,000 mm 0,0 UV-I 0 W/m 19,5 C 25,9 C 14,5 km/h (3 Bft) 96,88 %
25.06.2019 21:56 25,8 C 26,7 C 21,7 C 69 % 1019,3 hPa 0,0 l/m 9,0 km/h (2 Bft) O-SO 109 0 min 0,000 mm 0,0 UV-I 0 W/m 19,7 C 25,2 C 14,5 km/h (3 Bft) 98,00 %
25.06.2019 21:58 25,8 C 26,7 C 21,1 C 69 % 1019,2 hPa 0,0 l/m 9,3 km/h (2 Bft) SO 125 0 min 0,000 mm 0,0 UV-I 0 W/m 19,7 C 25,2 C 16,1 km/h (3 Bft) 97,56 %
25.06.2019 22:00 25,7 C 26,7 C 21,1 C 70 % 1019,3 hPa 0,0 l/m 7,4 km/h (2 Bft) O-SO 104 0 min 0,050 mm 0,0 UV-I 0 W/m 19,8 C 25,5 C 12,9 km/h (3 Bft) 97,44 %
25.06.2019 22:02 25,6 C 26,7 C 20,6 C 70 % 1019,3 hPa 0,0 l/m 7,6 km/h (2 Bft) O-SO 117 0 min 0,000 mm 0,0 UV-I 0 W/m 19,7 C 25,3 C 11,3 km/h (2 Bft) 98,11 %
25.06.2019 22:04 25,5 C 26,7 C 20,6 C 70 % 1019,3 hPa 0,0 l/m 8,2 km/h (2 Bft) O 95 0 min 0,000 mm 0,0 UV-I 0 W/m 19,6 C 25,1 C 11,3 km/h (2 Bft) 97,56 %
25.06.2019 22:06 25,4 C 26,7 C 20,6 C 70 % 1019,3 hPa 0,0 l/m 7,1 km/h (2 Bft) O-SO 105 0 min 0,000 mm 0,0 UV-I 0 W/m 19,5 C 25,2 C 12,9 km/h (3 Bft) 98,11 %
25.06.2019 22:08 25,4 C 26,7 C 20,6 C 71 % 1019,3 hPa 0,0 l/m 6,3 km/h (2 Bft) O-SO 111 0 min 0,000 mm 0,0 UV-I 0 W/m 19,7 C 25,4 C 14,5 km/h (3 Bft) 96,00 %
25.06.2019 22:10 25,3 C 26,7 C 20,6 C 71 % 1019,2 hPa 0,0 l/m 8,7 km/h (2 Bft) O-SO 114 0 min 0,000 mm 0,0 UV-I 0 W/m 19,7 C 24,8 C 14,5 km/h (3 Bft) 97,87 %
25.06.2019 22:12 25,3 C 26,7 C 20,6 C 71 % 1019,3 hPa 0,0 l/m 5,1 km/h (1 Bft) SO 138 0 min 0,000 mm 0,0 UV-I 0 W/m 19,7 C 25,3 C 9,7 km/h (2 Bft) 98,00 %
25.06.2019 22:14 25,3 C 26,7 C 20,6 C 71 % 1019,3 hPa 0,0 l/m 6,2 km/h (2 Bft) SO 134 0 min 0,000 mm 0,0 UV-I 0 W/m 19,7 C 25,3 C 12,9 km/h (3 Bft) 100,00 %
25.06.2019 22:16 25,2 C 26,7 C 20,6 C 71 % 1019,3 hPa 0,0 l/m 4,7 km/h (1 Bft) O-SO 110 0 min 0,000 mm 0,0 UV-I 0 W/m 19,6 C 25,2 C 6,4 km/h (2 Bft) 97,37 %
25.06.2019 22:18 25,2 C 26,7 C 20,6 C 71 % 1019,3 hPa 0,0 l/m 8,0 km/h (2 Bft) O-SO 103 0 min 0,000 mm 0,0 UV-I 0 W/m 19,6 C 24,8 C 11,3 km/h (2 Bft) 97,83 %
25.06.2019 22:20 25,2 C 26,7 C 20,6 C 71 % 1019,3 hPa 0,0 l/m 9,7 km/h (2 Bft) O-SO 103 0 min 0,000 mm 0,0 UV-I 0 W/m 19,6 C 24,4 C 14,5 km/h (3 Bft) 97,78 %
25.06.2019 22:22 25,2 C 26,7 C 20,6 C 71 % 1019,3 hPa 0,0 l/m 8,7 km/h (2 Bft) O-SO 106 0 min 0,000 mm 0,0 UV-I 0 W/m 19,6 C 24,7 C 14,5 km/h (3 Bft) 98,11 %
25.06.2019 22:24 25,2 C 26,7 C 20,6 C 71 % 1019,3 hPa 0,0 l/m 7,7 km/h (2 Bft) SO 124 0 min 0,000 mm 0,0 UV-I 0 W/m 19,6 C 24,9 C 12,9 km/h (3 Bft) 98,00 %
25.06.2019 22:26 25,2 C 26,7 C 20,6 C 71 % 1019,3 hPa 0,0 l/m 9,3 km/h (2 Bft) O 96 0 min 0,000 mm 0,0 UV-I 0 W/m 19,6 C 24,5 C 16,1 km/h (3 Bft) 97,56 %
25.06.2019 22:28 25,1 C 26,7 C 20,6 C 72 % 1019,3 hPa 0,0 l/m 7,4 km/h (2 Bft) O 91 0 min 0,000 mm 0,0 UV-I 0 W/m 19,7 C 24,9 C 12,9 km/h (3 Bft) 96,23 %
25.06.2019 22:30 25,2 C 26,7 C 20,6 C 71 % 1019,4 hPa 0,0 l/m 5,9 km/h (2 Bft) SO 126 0 min 0,000 mm 0,0 UV-I 0 W/m 19,6 C 25,2 C 12,9 km/h (3 Bft) 100,00 %
25.06.2019 22:32 25,2 C 26,7 C 20,6 C 71 % 1019,4 hPa 0,0 l/m 7,2 km/h (2 Bft) O-SO 107 0 min 0,000 mm 0,0 UV-I 0 W/m 19,6 C 25,0 C 12,9 km/h (3 Bft) 95,74 %
25.06.2019 22:34 25,2 C 26,7 C 20,6 C 71 % 1019,4 hPa 0,0 l/m 10,2 km/h (2 Bft) O-NO 78 0 min 0,000 mm 0,0 UV-I 0 W/m 19,6 C 24,3 C 14,5 km/h (3 Bft) 96,00 %
25.06.2019 22:36 25,2 C 26,7 C 20,6 C 71 % 1019,3 hPa 0,0 l/m 7,6 km/h (2 Bft) O-NO 76 0 min 0,000 mm 0,0 UV-I 0 W/m 19,6 C 24,9 C 11,3 km/h (2 Bft) 98,00 %
25.06.2019 22:38 25,3 C 26,7 C 21,1 C 71 % 1019,3 hPa 0,0 l/m 9,1 km/h (2 Bft) O 98 0 min 0,000 mm 0,0 UV-I 0 W/m 19,7 C 24,7 C 14,5 km/h (3 Bft) 97,56 %
25.06.2019 22:40 25,2 C 26,7 C 21,1 C 71 % 1019,3 hPa 0,0 l/m 6,1 km/h (2 Bft) O 96 0 min 0,000 mm 0,0 UV-I 0 W/m 19,6 C 25,2 C 9,7 km/h (2 Bft) 95,74 %
25.06.2019 22:42 25,2 C 26,7 C 21,1 C 71 % 1019,3 hPa 0,0 l/m 8,6 km/h (2 Bft) O 101 0 min 0,000 mm 0,0 UV-I 0 W/m 19,6 C 24,7 C 14,5 km/h (3 Bft) 97,92 %
25.06.2019 22:44 25,2 C 26,7 C 21,1 C 71 % 1019,3 hPa 0,0 l/m 8,9 km/h (2 Bft) O-SO 109 0 min 0,000 mm 0,0 UV-I 0 W/m 19,6 C 24,6 C 14,5 km/h (3 Bft) 97,37 %
25.06.2019 22:46 25,2 C 26,7 C 21,1 C 71 % 1019,3 hPa 0,0 l/m 7,9 km/h (2 Bft) O 88 0 min 0,000 mm 0,0 UV-I 0 W/m 19,6 C 24,8 C 11,3 km/h (2 Bft) 98,21 %
25.06.2019 22:48 25,2 C 26,7 C 21,1 C 71 % 1019,3 hPa 0,0 l/m 9,3 km/h (2 Bft) O-SO 105 0 min 0,000 mm 0,0 UV-I 0 W/m 19,6 C 24,5 C 12,9 km/h (3 Bft) 100,00 %
25.06.2019 22:50 25,1 C 26,7 C 21,1 C 71 % 1019,3 hPa 0,0 l/m 7,2 km/h (2 Bft) O-SO 108 0 min 0,000 mm 0,0 UV-I 0 W/m 19,5 C 24,9 C 11,3 km/h (2 Bft) 98,00 %
25.06.2019 22:52 25,1 C 26,7 C 21,1 C 71 % 1019,3 hPa 0,0 l/m 5,1 km/h (1 Bft) O 87 0 min 0,000 mm 0,0 UV-I 0 W/m 19,5 C 25,1 C 9,7 km/h (2 Bft) 97,37 %
25.06.2019 22:54 25,1 C 26,7 C 21,1 C 71 % 1019,3 hPa 0,0 l/m 6,6 km/h (2 Bft) O 86 0 min 0,000 mm 0,0 UV-I 0 W/m 19,5 C 25,1 C 9,7 km/h (2 Bft) 100,00 %
25.06.2019 22:56 25,0 C 26,7 C 21,1 C 71 % 1019,3 hPa 0,0 l/m 3,7 km/h (1 Bft) O 93 0 min 0,000 mm 0,0 UV-I 0 W/m 19,4 C 25,0 C 6,4 km/h (2 Bft) 96,15 %
25.06.2019 22:58 24,9 C 26,7 C 21,1 C 72 % 1019,3 hPa 0,0 l/m 5,3 km/h (1 Bft) O 90 0 min 0,000 mm 0,0 UV-I 0 W/m 19,5 C 24,9 C 11,3 km/h (2 Bft) 100,00 %
25.06.2019 23:00 24,7 C 26,7 C 20,6 C 73 % 1019,3 hPa 0,0 l/m 6,6 km/h (2 Bft) O-SO 108 0 min 0,051 mm 0,0 UV-I 0 W/m 19,5 C 24,7 C 11,3 km/h (2 Bft) 100,00 %
25.06.2019 23:02 24,6 C 26,7 C 21,1 C 73 % 1019,3 hPa 0,0 l/m 7,6 km/h (2 Bft) O-SO 103 0 min 0,000 mm 0,0 UV-I 0 W/m 19,4 C 24,3 C 12,9 km/h (3 Bft) 97,37 %
25.06.2019 23:04 24,6 C 26,7 C 21,1 C 73 % 1019,4 hPa 0,0 l/m 5,7 km/h (1 Bft) O 92 0 min 0,000 mm 0,0 UV-I 0 W/m 19,4 C 24,6 C 9,7 km/h (2 Bft) 100,00 %
25.06.2019 23:06 24,6 C 26,7 C 21,1 C 73 % 1019,4 hPa 0,0 l/m 7,1 km/h (2 Bft) O 90 0 min 0,000 mm 0,0 UV-I 0 W/m 19,4 C 24,4 C 12,9 km/h (3 Bft) 97,73 %
25.06.2019 23:08 24,5 C 26,7 C 20,6 C 74 % 1019,5 hPa 0,0 l/m 5,2 km/h (1 Bft) O 101 0 min 0,000 mm 0,0 UV-I 0 W/m 19,6 C 24,5 C 11,3 km/h (2 Bft) 100,00 %
25.06.2019 23:10 24,4 C 26,7 C 21,1 C 74 % 1019,5 hPa 0,0 l/m 7,7 km/h (2 Bft) O 89 0 min 0,000 mm 0,0 UV-I 0 W/m 19,5 C 24,0 C 14,5 km/h (3 Bft) 100,00 %
25.06.2019 23:12 24,4 C 26,7 C 21,1 C 74 % 1019,5 hPa 0,0 l/m 6,4 km/h (2 Bft) O 99 0 min 0,000 mm 0,0 UV-I 0 W/m 19,5 C 24,4 C 11,3 km/h (2 Bft) 97,73 %
25.06.2019 23:14 24,5 C 26,7 C 21,1 C 74 % 1019,5 hPa 0,0 l/m 8,8 km/h (2 Bft) O-SO 118 0 min 0,000 mm 0,0 UV-I 0 W/m 19,6 C 23,9 C 14,5 km/h (3 Bft) 97,87 %
25.06.2019 23:16 24,6 C 26,7 C 21,1 C 73 % 1019,5 hPa 0,0 l/m 6,8 km/h (2 Bft) O-SO 105 0 min 0,000 mm 0,0 UV-I 0 W/m 19,4 C 24,5 C 12,9 km/h (3 Bft) 97,22 %
25.06.2019 23:19 24,6 C 26,7 C 21,1 C 73 % 1019,5 hPa 0,0 l/m 7,1 km/h (2 Bft) O 90 0 min 0,000 mm 0,0 UV-I 0 W/m 19,4 C 24,4 C 12,9 km/h (3 Bft) 98,73 %
25.06.2019 23:20 24,6 C 26,7 C 21,1 C 73 % 1019,5 hPa 0,0 l/m 6,8 km/h (2 Bft) O 80 0 min 0,000 mm 0,0 UV-I 0 W/m 19,4 C 24,5 C 9,7 km/h (2 Bft) 96,15 %
25.06.2019 23:22 24,5 C 26,7 C 21,1 C 74 % 1019,5 hPa 0,0 l/m 7,8 km/h (2 Bft) O 85 0 min 0,000 mm 0,0 UV-I 0 W/m 19,6 C 24,1 C 12,9 km/h (3 Bft) 98,00 %
25.06.2019 23:24 24,6 C 26,7 C 21,1 C 73 % 1019,5 hPa 0,0 l/m 8,7 km/h (2 Bft) O-SO 103 0 min 0,000 mm 0,0 UV-I 0 W/m 19,4 C 24,0 C 11,3 km/h (2 Bft) 94,87 %
25.06.2019 23:26 24,5 C 26,7 C 21,1 C 74 % 1019,5 hPa 0,0 l/m 7,4 km/h (2 Bft) O-SO 117 0 min 0,000 mm 0,0 UV-I 0 W/m 19,6 C 24,2 C 12,9 km/h (3 Bft) 98,21 %
25.06.2019 23:29 24,5 C 26,7 C 21,1 C 73 % 1019,6 hPa 0,0 l/m 8,7 km/h (2 Bft) O-SO 117 0 min 0,000 mm 0,0 UV-I 0 W/m 19,3 C 23,9 C 14,5 km/h (3 Bft) 94,03 %
25.06.2019 23:30 24,6 C 26,7 C 21,1 C 73 % 1019,6 hPa 0,0 l/m 10,2 km/h (2 Bft) O-SO 111 0 min 0,000 mm 0,0 UV-I 0 W/m 19,4 C 23,7 C 12,9 km/h (3 Bft) 100,00 %
25.06.2019 23:32 24,5 C 26,7 C 21,1 C 73 % 1019,7 hPa 0,0 l/m 7,6 km/h (2 Bft) O-SO 102 0 min 0,000 mm 0,0 UV-I 0 W/m 19,3 C 24,2 C 14,5 km/h (3 Bft) 95,74 %
25.06.2019 23:34 24,4 C 26,7 C 21,1 C 73 % 1019,7 hPa 0,0 l/m 8,4 km/h (2 Bft) O 97 0 min 0,000 mm 0,0 UV-I 0 W/m 19,2 C 23,9 C 12,9 km/h (3 Bft) 96,00 %
25.06.2019 23:36 24,4 C 26,7 C 21,1 C 74 % 1019,7 hPa 0,0 l/m 8,6 km/h (2 Bft) O 86 0 min 0,000 mm 0,0 UV-I 0 W/m 19,5 C 23,8 C 12,9 km/h (3 Bft) 100,00 %
25.06.2019 23:38 24,3 C 26,7 C 21,1 C 74 % 1019,7 hPa 0,0 l/m 8,0 km/h (2 Bft) O 90 0 min 0,000 mm 0,0 UV-I 0 W/m 19,4 C 23,9 C 11,3 km/h (2 Bft) 100,00 %
25.06.2019 23:40 24,4 C 26,7 C 21,1 C 74 % 1019,7 hPa 0,0 l/m 7,5 km/h (2 Bft) O 88 0 min 0,000 mm 0,0 UV-I 0 W/m 19,5 C 24,1 C 12,9 km/h (3 Bft) 96,88 %
25.06.2019 23:42 24,3 C 26,1 C 21,1 C 74 % 1019,7 hPa 0,0 l/m 7,3 km/h (2 Bft) O 91 0 min 0,000 mm 0,0 UV-I 0 W/m 19,4 C 24,1 C 11,3 km/h (2 Bft) 98,21 %
25.06.2019 23:44 24,3 C 26,7 C 21,1 C 74 % 1019,7 hPa 0,0 l/m 7,7 km/h (2 Bft) O 97 0 min 0,000 mm 0,0 UV-I 0 W/m 19,4 C 23,9 C 11,3 km/h (2 Bft) 100,00 %
25.06.2019 23:46 24,3 C 26,7 C 21,1 C 74 % 1019,7 hPa 0,0 l/m 7,4 km/h (2 Bft) O-SO 108 0 min 0,000 mm 0,0 UV-I 0 W/m 19,4 C 24,0 C 11,3 km/h (2 Bft) 95,74 %
25.06.2019 23:49 24,3 C 26,7 C 21,1 C 74 % 1019,8 hPa 0,0 l/m 7,3 km/h (2 Bft) O-SO 102 0 min 0,000 mm 0,0 UV-I 0 W/m 19,4 C 24,1 C 11,3 km/h (2 Bft) 100,00 %
25.06.2019 23:50 24,3 C 26,7 C 21,1 C 74 % 1019,8 hPa 0,0 l/m 8,3 km/h (2 Bft) O 98 0 min 0,000 mm 0,0 UV-I 0 W/m 19,4 C 23,8 C 11,3 km/h (2 Bft) 100,00 %
25.06.2019 23:52 24,2 C 26,7 C 21,1 C 74 % 1019,8 hPa 0,0 l/m 6,9 km/h (2 Bft) O 84 0 min 0,000 mm 0,0 UV-I 0 W/m 19,3 C 24,1 C 11,3 km/h (2 Bft) 100,00 %
25.06.2019 23:54 24,2 C 26,1 C 21,1 C 74 % 1019,8 hPa 0,0 l/m 5,2 km/h (1 Bft) O-SO 102 0 min 0,000 mm 0,0 UV-I 0 W/m 19,3 C 24,2 C 9,7 km/h (2 Bft) 100,00 %
25.06.2019 23:56 24,2 C 26,1 C 20,6 C 74 % 1019,8 hPa 0,0 l/m 6,2 km/h (2 Bft) O 94 0 min 0,000 mm 0,0 UV-I 0 W/m 19,3 C 24,2 C 11,3 km/h (2 Bft) 100,00 %
25.06.2019 23:59 24,1 C 26,1 C 20,6 C 75 % 1019,9 hPa 0,0 l/m 6,4 km/h (2 Bft) O-SO 105 0 min 0,000 mm 0,0 UV-I 0 W/m 19,4 C 24,1 C 11,3 km/h (2 Bft) 100,00 %
_ Min-Zeit 05:44 03:14 04:14 18:26 18:40 - 06:30 - - - - - - 05:44 05:00 05:58 00:02
Minimum _ 16,7 C 24,4 C 16,1 C 47 % 1018,3 hPa - 1,1 km/h (1 Bft) - - - - - - 14,7 C 16,4 C 3,2 km/h (1 Bft) 5,56 %
_ Max-Zeit 17:40 15:38 15:22 05:46 23:59 00:00 11:56 - - 13:39 14:00 13:04 13:04 16:08 17:40 11:56 00:20
Maximum _ 32,3 C 26,7 C 43,9 C 89 % 1019,9 hPa 0,0 l/m 18,5 km/h
O-NO (3 Bft)
- - 3 min 0,686 mm 6,0 UV-I 911 W/m 22,0 C 32,2 C 27,4 km/h
O-NO (4 Bft)
100,00 %
Durchschnitt _ 24,7 C 25,5 C 28,7 C 68 % 1018,9 hPa #0,0 l/m 8,7 km/h (2 Bft) O - #14:23 h #6,553 mm 3,3 UV-I 494 W/m 18,1 C 24,3 C 13,7 km/h (3 Bft) 97,37 %